GEFSCGP_500_meanwind_000.txt.gz
Wind_Speed
60 58 56 49 40 35 35 36 31 31 32 27 24 22 21 18 17 20 20 20 21 23 27 29 28 25 24 23 24 23 25 28 30 33 34 36 37 37 36 34 32 31 32 33
61 57 48 43 41 39 37 35 30 30 30 26 24 20 20 18 18 19 19 20 22 24 23 23 22 21 20 20 23 25 28 32 35 36 36 35 34 32 31 31 32 34 35 37
60 54 48 45 41 37 34 30 28 29 29 26 25 21 21 21 21 20 18 19 20 19 19 22 22 21 21 23 26 29 32 34 35 33 31 30 29 30 32 34 36 38 39 42
57 49 45 44 39 35 29 26 27 29 27 22 24 21 20 22 23 22 20 20 19 18 19 23 24 24 25 27 31 34 35 34 32 31 31 31 32 34 36 38 40 43 46 48
58 50 47 46 38 32 25 26 26 28 26 23 21 19 16 22 24 24 23 21 19 20 21 23 26 28 31 32 33 35 35 32 32 33 34 35 37 38 40 43 45 47 47 47
55 52 47 40 36 30 28 26 25 27 27 23 18 19 14 21 23 23 23 23 22 22 23 24 27 31 34 34 34 34 33 34 35 37 38 39 40 42 44 45 46 47 49 52
53 49 44 40 38 35 33 31 26 25 24 21 20 20 15 21 22 23 23 24 23 23 25 26 29 32 35 36 35 34 35 37 38 40 40 41 42 43 44 45 48 51 54 57
53 51 47 43 38 35 31 30 25 25 23 23 21 19 17 21 24 25 25 24 26 26 27 28 30 34 36 37 35 35 38 39 40 40 41 41 41 43 47 50 54 58 61 65
50 47 42 38 34 33 31 31 27 25 23 22 22 20 20 22 25 27 27 29 30 30 29 27 31 34 36 36 37 38 39 39 39 38 38 41 45 49 53 57 61 65 68 71
44 44 43 37 35 37 36 31 29 26 25 23 21 20 22 24 26 27 28 30 31 30 28 29 32 35 37 38 38 38 37 37 37 39 42 46 50 53 56 60 63 66 69 72
41 39 39 38 37 35 33 31 28 27 25 24 21 20 21 22 23 25 26 27 28 28 28 30 33 35 38 39 36 35 36 38 39 42 45 49 53 56 59 63 66 69 71 74
38 35 35 37 37 36 35 31 29 29 27 23 21 17 19 20 22 22 21 22 24 26 29 32 35 36 37 37 35 36 37 39 42 45 50 54 58 61 63 66 68 71 73 76
35 38 37 38 39 38 34 30 28 26 25 22 21 16 19 20 21 19 20 23 26 28 30 33 36 36 36 36 36 38 41 44 48 52 55 58 62 64 66 68 70 73 76 81
33 37 37 35 31 30 29 26 25 26 24 23 20 18 22 23 20 20 22 25 27 29 32 35 35 35 36 37 40 43 47 51 55 57 58 61 64 67 69 71 74 78 83 88
25 32 33 33 34 32 31 29 29 28 24 24 21 23 25 23 21 23 25 26 29 31 33 35 35 37 39 42 45 49 52 54 56 58 61 64 67 69 72 75 79 84 90 96
24 32 33 30 30 29 30 31 30 28 26 25 24 24 25 24 24 26 26 28 30 32 33 35 37 40 43 46 49 51 52 54 57 60 63 65 68 71 75 80 86 91 96 98
24 32 33 31 31 30 30 29 28 27 26 27 25 24 25 25 25 26 27 29 31 33 35 37 40 43 47 49 50 52 54 57 60 62 65 67 71 75 80 86 91 94 96 95
26 32 33 30 30 31 26 27 27 26 26 25 24 24 22 22 25 28 30 32 33 35 37 40 44 47 49 50 52 55 57 59 62 65 68 72 76 80 85 90 93 95 93 86
29 28 27 26 26 25 24 25 25 25 25 26 26 25 23 24 28 30 32 32 34 38 41 45 47 49 51 53 55 57 60 63 66 69 72 75 79 84 88 91 92 90 84 75
28 28 28 29 29 29 24 25 26 28 28 25 22 21 23 26 30 31 33 35 37 41 44 47 49 51 53 56 59 61 63 65 67 71 74 78 83 86 89 90 87 82 75 71
21 26 28 29 30 30 27 24 25 27 24 22 23 25 28 30 31 32 35 38 41 44 47 50 52 54 57 59 61 63 64 66 70 73 77 82 85 87 88 85 80 75 72 75
18 21 22 22 22 22 20 21 21 22 23 23 25 27 30 31 33 35 38 41 44 47 50 53 56 58 60 61 62 63 65 69 73 76 80 83 84 85 84 80 75 72 74 78
22 23 22 23 23 23 23 22 22 23 23 24 27 29 32 34 37 40 42 45 48 52 55 57 59 61 61 61 62 65 68 71 75 79 82 83 83 82 79 75 73 73 76 80
21 21 20 20 20 20 21 22 23 25 27 28 31 33 35 38 41 45 48 51 54 57 60 61 61 61 60 62 65 67 70 73 78 81 82 83 82 78 73 72 73 75 77 81
20 20 20 21 23 24 26 28 29 30 32 34 36 39 42 44 48 51 55 57 60 63 63 62 61 61 63 65 67 69 73 77 81 83 84 83 80 74 70 70 72 74 77 81
24 26 27 27 28 30 32 33 34 35 36 39 41 44 47 50 53 56 59 62 64 64 62 61 61 62 63 65 68 73 77 80 83 84 83 80 75 71 70 70 70 71 75 80

GEFSCGP_500_meanwind_006.txt.gz
Wind_Speed
62 67 68 65 62 58 54 46 40 38 40 40 37 32 33 33 27 25 23 23 26 28 27 26 26 27 28 29 30 29 25 24 24 25 27 28 30 33 35 35 35 35 36 37
59 66 64 60 57 56 52 47 42 40 39 37 34 30 32 33 29 27 25 24 25 27 27 27 27 28 30 31 29 24 21 23 25 27 28 30 32 34 34 35 35 37 38 39
56 62 61 57 54 54 51 46 42 39 35 35 33 30 31 32 30 29 27 26 25 25 25 26 27 29 30 29 26 22 22 24 27 29 30 31 33 34 34 35 37 38 39 40
52 58 54 51 51 51 49 46 41 37 35 35 32 28 29 31 30 29 28 27 25 25 25 26 28 29 28 26 25 24 25 27 29 31 32 33 33 34 35 37 38 39 40 40
51 56 53 49 48 48 47 45 40 36 35 34 30 26 27 31 30 29 30 28 26 26 27 28 28 27 27 25 26 27 28 29 31 32 34 35 35 35 36 37 38 39 40 41
49 50 50 46 44 46 47 44 39 35 34 32 29 26 27 30 30 30 29 29 28 28 29 29 28 27 27 26 27 28 29 30 31 33 35 35 36 36 36 37 39 40 42 44
51 48 49 47 46 47 48 43 38 36 34 30 28 27 28 29 28 28 28 29 29 29 29 30 30 29 28 28 28 29 30 31 33 34 34 35 36 36 37 39 41 43 45 47
46 44 47 48 47 46 46 42 38 35 32 28 27 27 27 27 27 26 26 26 27 27 28 29 29 28 28 29 29 30 31 33 34 34 35 35 35 36 38 40 43 46 49 52
42 43 47 48 45 42 42 40 37 33 29 27 27 27 26 25 25 24 23 23 25 26 28 30 30 29 29 30 30 31 32 33 34 34 34 35 36 37 40 43 47 51 54 57
41 42 45 45 43 41 39 38 36 32 29 27 26 26 25 23 24 23 23 23 25 26 29 31 30 30 30 31 30 31 31 32 33 33 34 35 37 40 44 48 52 55 58 61
39 41 44 44 42 41 39 38 36 32 30 27 25 23 23 23 24 24 24 25 27 28 30 31 29 29 29 29 28 29 30 31 32 33 35 38 41 45 49 52 55 59 62 65
39 39 41 43 41 39 37 35 33 32 30 27 25 23 22 22 23 24 24 25 27 29 30 28 26 25 26 27 28 29 30 32 34 36 39 42 45 49 52 56 59 62 65 67
41 39 40 41 42 41 39 35 32 31 30 30 27 23 22 23 24 23 23 24 25 26 26 24 24 25 27 28 29 30 32 34 37 40 43 46 50 53 57 60 62 64 67 69
39 38 37 37 37 36 34 31 30 30 30 29 26 22 24 26 25 25 25 24 24 24 24 24 25 27 28 29 30 32 35 37 41 44 47 50 54 57 60 62 64 66 69 72
34 33 33 34 34 35 36 36 35 33 31 30 26 24 25 27 26 26 26 25 25 25 25 25 27 28 29 30 33 35 37 40 44 48 51 55 58 61 63 65 66 68 71 75
29 28 30 32 34 36 37 39 38 35 33 31 28 23 25 27 27 26 26 26 26 27 28 28 28 29 31 33 35 37 40 44 48 52 55 59 62 64 65 67 69 71 74 76
24 26 28 31 33 35 35 35 36 36 33 31 28 24 26 26 27 27 27 27 29 30 30 30 29 31 33 35 37 40 44 47 51 55 59 62 65 66 67 69 71 73 76 78
22 23 25 28 32 35 33 33 33 34 33 31 28 25 25 26 27 28 28 30 31 31 30 30 31 33 34 36 39 43 47 51 55 60 63 66 67 68 68 70 73 76 78 80
23 21 21 23 26 28 28 29 29 27 26 26 26 26 27 27 28 29 31 32 32 31 30 31 33 34 36 39 43 47 51 56 60 64 67 68 67 68 69 72 74 77 79 81
24 23 22 21 21 21 21 23 24 25 22 22 24 26 27 29 30 30 32 34 33 31 32 33 34 35 39 43 47 52 56 60 64 67 68 67 67 69 71 73 75 78 81 84
26 26 25 23 22 22 23 23 23 23 21 22 24 26 29 31 32 31 31 32 32 32 33 34 36 39 43 48 52 56 60 64 67 68 67 67 68 70 72 74 77 80 84 88
25 26 25 24 23 21 23 25 26 26 26 26 27 28 29 30 31 30 30 30 31 32 34 36 40 44 48 52 56 60 64 67 68 67 67 68 69 71 73 76 79 83 88 91
25 25 23 23 22 22 23 23 24 26 27 28 28 28 28 28 28 28 29 30 32 34 37 41 45 49 53 57 60 63 66 67 66 65 65 67 69 72 75 79 83 87 91 92
19 19 19 19 18 19 19 20 21 23 25 26 27 27 27 27 27 28 30 32 35 38 42 46 49 53 57 60 63 65 64 62 61 62 64 67 71 75 79 83 88 91 92 90
15 15 16 16 17 18 19 20 21 22 24 25 27 28 28 29 30 32 34 37 40 43 47 50 53 56 59 61 61 59 57 58 60 63 67 71 75 79 84 88 91 91 89 85
16 17 17 17 17 18 19 21 22 24 25 27 28 30 31 33 34 36 38 41 44 47 50 52 55 57 57 55 53 53 55 58 62 67 71 76 80 84 88 90 89 87 82 77

GEFSCGP_500_meanwind_012.txt.gz
Wind_Speed
51 54 53 52 52 51 50 51 53 52 50 52 52 47 43 42 41 36 33 32 30 29 29 28 28 29 30 29 27 27 27 28 30 32 34 35 34 32 31 33 34 36 38 39
51 52 48 49 51 53 52 51 51 51 50 51 51 48 45 44 42 37 34 32 31 29 29 29 28 29 30 29 29 28 29 30 32 34 34 32 32 32 33 35 37 39 40 40
49 45 46 50 53 55 54 51 49 48 47 50 51 50 47 43 40 38 35 33 32 29 29 28 28 28 29 29 29 29 30 32 34 34 33 32 33 34 35 37 39 40 40 39
46 44 47 50 51 53 54 49 46 45 42 47 51 49 45 41 41 39 34 34 33 30 29 28 27 27 27 28 29 29 31 33 34 34 33 33 34 36 38 39 40 40 40 40
41 40 43 45 46 49 51 48 47 45 43 45 48 48 45 43 42 37 34 33 32 30 29 28 27 26 26 27 28 29 31 32 33 33 33 34 36 37 39 40 40 40 40 40
36 36 38 39 42 46 47 47 46 44 42 45 47 46 42 41 38 35 34 32 30 29 29 29 27 26 26 26 27 29 31 32 33 34 35 36 37 39 40 40 41 40 40 40
31 32 33 36 42 46 50 49 47 46 44 44 44 44 41 39 37 32 30 30 28 28 28 28 28 26 26 27 28 30 32 33 35 36 37 38 38 39 40 39 39 40 40 41
25 26 31 36 42 48 52 49 47 47 47 43 42 42 39 38 31 28 28 28 27 27 27 27 27 27 28 29 30 32 33 34 36 36 37 38 39 39 38 38 38 39 41 43
17 19 28 36 43 49 51 51 43 37 42 40 41 38 36 31 27 26 25 24 24 25 25 26 26 26 28 29 30 31 32 34 35 37 37 38 38 36 36 38 39 41 43 46
11 18 32 40 43 45 49 48 38 35 40 39 38 36 33 26 25 25 24 22 23 24 24 25 25 25 26 28 29 31 33 34 36 36 36 36 35 36 37 39 41 43 46 49
13 21 34 40 39 40 44 41 36 37 38 37 36 33 30 23 22 23 22 23 24 25 25 25 25 25 27 28 29 31 33 34 34 34 34 34 35 37 39 41 43 46 49 53
17 21 31 35 33 35 37 38 36 36 36 33 31 29 25 22 21 22 23 23 24 25 25 24 25 26 28 29 30 31 31 32 32 34 34 35 37 40 42 44 46 49 53 58
17 17 26 32 32 33 35 35 34 33 33 32 29 25 22 21 21 22 22 22 23 24 24 24 26 28 28 28 29 29 30 31 34 35 36 38 40 42 44 46 50 54 58 63
14 15 23 30 30 31 32 31 30 30 30 29 26 24 22 21 21 21 21 21 22 23 24 25 27 27 27 27 28 29 31 34 36 37 38 40 41 43 46 50 54 59 63 67
15 16 20 24 27 28 27 26 26 27 26 26 24 23 23 23 22 21 21 21 21 23 24 25 27 27 27 28 30 32 34 36 38 39 40 41 43 46 50 54 59 63 67 68
19 18 20 21 23 25 24 24 23 24 24 24 24 22 23 24 23 22 22 22 23 24 25 26 26 27 29 31 33 35 37 38 39 40 41 43 46 50 54 59 63 67 67 65
19 18 18 18 19 21 21 21 21 22 23 24 24 22 25 25 25 25 24 24 24 24 25 25 26 28 31 33 35 37 38 39 40 41 43 46 50 54 59 63 67 67 64 62
19 18 18 17 17 18 19 21 23 25 26 27 27 28 29 26 26 27 26 25 24 24 25 26 28 31 33 35 36 38 39 40 41 42 45 50 54 58 63 66 67 64 61 63
21 21 21 21 20 19 20 21 23 25 26 28 28 31 31 28 28 28 27 25 25 26 27 29 31 32 34 36 37 39 39 40 41 45 49 54 58 62 65 66 63 61 62 66
23 22 21 21 21 20 21 21 21 22 24 27 29 30 29 29 29 26 27 28 28 28 30 31 32 33 35 36 37 37 38 40 44 49 53 57 61 64 65 62 60 62 66 71
24 23 22 20 19 17 17 18 18 19 20 23 25 26 25 27 27 26 27 28 28 29 30 32 33 34 35 35 35 37 40 44 49 53 57 60 63 63 60 59 61 66 71 76
22 21 19 17 15 14 16 16 17 17 20 22 23 24 24 25 26 26 26 27 27 29 30 31 32 33 33 35 37 40 44 48 52 56 59 61 61 58 57 60 65 71 76 81
19 19 17 16 15 15 16 17 17 17 19 21 22 23 23 24 25 26 26 27 28 28 29 30 31 32 35 37 40 44 48 51 55 57 59 58 56 56 59 65 70 76 81 86
21 21 20 19 18 17 17 17 18 19 20 21 22 23 24 25 26 26 26 27 28 29 29 30 32 35 38 41 44 47 50 53 55 55 54 53 54 58 64 70 75 80 85 90
23 23 23 21 20 20 19 19 19 18 18 18 18 19 20 21 22 24 25 27 28 30 31 33 36 39 41 44 46 49 52 52 51 50 51 53 57 62 68 73 79 84 89 94
19 20 20 18 19 19 17 16 15 15 15 15 16 18 19 20 22 23 26 27 29 31 34 36 38 40 43 45 48 49 48 47 47 49 52 56 61 67 72 77 82 87 92 96

GEFSCGP_500_meanwind_018.txt.gz
Wind_Speed
42 45 46 45 47 49 50 50 51 51 50 51 52 51 49 47 45 45 44 41 39 35 32 30 29 28 27 27 26 25 25 25 26 26 25 25 27 28 30 31 31 30 30 31
45 45 44 45 48 51 52 52 52 52 51 53 54 54 52 50 48 47 46 43 40 36 33 30 29 28 28 28 27 26 27 27 27 27 27 28 29 30 31 32 32 31 32 34
46 45 46 48 49 51 51 51 49 49 48 52 54 55 54 51 49 50 48 45 42 37 33 30 29 29 29 29 28 27 27 28 28 29 29 30 31 30 31 31 31 32 34 37
47 47 47 49 49 49 50 48 48 48 49 51 52 56 55 53 51 51 49 46 42 37 34 30 29 30 29 29 28 28 27 28 29 29 31 31 31 30 31 31 33 35 37 38
46 45 47 48 44 45 46 46 47 49 51 53 52 56 55 52 52 50 48 46 42 37 34 31 30 30 29 29 28 28 27 28 29 30 31 31 30 30 32 33 35 37 38 40
44 44 46 44 41 43 43 45 46 48 50 55 51 54 56 50 49 47 46 44 41 37 34 31 31 30 29 29 29 28 28 28 29 30 30 30 31 32 34 35 37 38 39 40
40 40 40 39 39 39 40 41 44 47 51 54 48 54 54 43 42 43 43 42 39 35 32 30 30 30 30 30 29 29 29 29 30 30 31 31 33 34 35 36 37 39 39 40
32 32 31 31 32 34 36 39 42 44 46 46 47 52 48 40 37 40 41 39 37 34 31 30 31 31 30 30 30 30 30 30 31 31 32 33 34 35 36 37 38 39 39 39
25 25 26 27 28 31 33 37 36 39 40 42 46 47 44 38 36 37 37 36 34 30 30 30 30 29 29 29 29 30 30 30 31 32 33 34 34 35 37 38 38 38 39 41
19 20 21 24 27 30 32 33 36 39 37 38 41 43 40 36 35 33 30 28 28 29 29 29 28 27 27 28 29 29 29 30 31 32 33 34 35 36 37 37 37 39 41 43
14 15 15 20 22 25 30 34 37 37 34 33 35 36 32 32 30 27 25 25 26 26 26 26 26 26 26 26 26 27 28 29 30 31 33 34 35 35 36 37 38 41 43 45
10 10 7 11 14 20 27 31 36 38 35 31 28 28 27 27 26 26 25 25 25 24 24 25 24 23 23 23 24 26 27 28 30 31 32 34 34 35 36 38 41 43 45 47
7 5 2 5 10 17 24 30 34 36 33 28 23 23 26 26 26 26 25 24 23 23 22 22 21 21 22 23 24 26 27 28 29 31 32 33 34 36 38 41 43 45 47 49
1 2 1 3 7 12 20 27 32 34 30 22 21 22 24 24 23 23 23 22 21 20 20 19 19 20 21 22 24 25 26 27 29 30 32 33 35 38 40 43 45 47 49 51
3 6 3 2 9 13 17 23 27 26 19 18 22 24 24 24 23 22 21 20 19 18 18 19 19 20 21 22 23 24 25 27 29 31 33 35 38 40 43 45 47 49 51 53
6 9 7 6 9 12 15 18 20 20 18 20 25 27 25 25 23 22 20 18 17 17 18 18 19 20 20 21 22 24 25 27 30 32 35 37 40 42 44 46 48 50 53 57
9 12 11 10 10 10 11 13 16 20 24 26 26 24 23 22 21 20 19 18 17 17 18 18 19 19 19 21 22 24 26 28 31 34 37 40 42 44 45 46 48 52 57 61
9 11 12 12 13 12 12 13 15 18 21 22 21 21 20 20 19 18 18 18 18 18 17 17 17 18 20 21 23 25 28 31 34 36 39 41 43 44 45 48 52 56 59 61
8 10 11 12 12 12 13 12 13 15 17 18 18 19 19 19 18 17 17 17 18 17 17 18 19 20 21 23 25 27 30 33 35 38 40 41 43 45 48 52 55 58 59 59
7 8 9 9 9 9 9 10 10 12 15 16 17 18 17 17 17 16 17 18 17 17 18 19 20 21 23 25 27 29 32 34 36 38 39 41 44 48 51 54 56 56 56 56
10 8 7 7 6 6 7 8 9 11 13 14 16 17 18 18 19 19 18 18 18 18 19 20 21 23 24 26 28 30 32 34 36 38 41 44 47 50 52 54 54 53 54 57
12 11 9 8 8 8 8 9 10 12 12 13 15 16 18 18 18 17 17 17 18 18 19 20 21 23 25 27 29 31 33 35 37 40 43 46 48 50 51 51 51 53 56 60
13 12 11 10 10 8 9 10 11 11 11 12 13 14 14 15 15 15 16 16 17 17 19 21 23 25 27 28 30 32 34 37 39 42 44 46 48 48 48 49 52 55 59 64
13 13 12 11 10 10 9 10 10 11 11 11 11 12 13 13 13 14 15 16 17 19 21 22 24 25 27 29 31 33 36 38 40 42 44 45 46 47 48 51 55 59 64 70
15 14 13 13 13 12 12 11 11 11 11 11 12 13 13 14 14 15 16 17 18 19 20 22 24 26 28 30 32 34 36 38 41 42 43 44 45 47 50 54 58 64 70 76
16 16 16 16 16 15 14 14 14 13 12 13 13 13 14 14 14 14 15 16 17 19 21 23 25 27 29 31 33 34 37 39 40 41 42 44 46 49 53 57 63 69 75 81

GEFSCGP_500_meanwind_024.txt.gz
Wind_Speed
33 35 35 36 39 41 43 44 45 45 47 49 49 50 50 50 50 49 46 43 40 38 38 39 38 37 36 34 32 31 31 31 29 28 28 29 30 29 28 28 28 30 31 32
36 36 38 41 42 44 45 47 47 48 48 51 52 53 52 52 50 49 48 46 42 40 40 40 39 37 37 36 33 32 33 31 30 29 29 29 30 30 30 30 31 32 32 33
38 39 41 43 44 46 47 49 50 51 51 52 54 55 53 53 53 51 49 47 45 44 43 42 40 38 37 37 35 34 34 33 31 30 29 29 29 30 31 32 33 33 34 35
40 41 43 45 47 49 50 51 53 55 56 55 56 58 53 54 54 53 51 49 48 47 47 45 41 38 38 38 37 35 35 34 32 30 29 29 29 30 31 32 34 34 36 37
41 43 45 47 48 50 52 53 55 56 58 59 58 61 56 52 53 53 52 51 50 49 48 46 42 39 39 39 37 36 36 34 33 31 30 29 29 30 31 32 34 35 37 39
42 44 46 47 48 50 51 52 54 56 59 62 60 63 60 54 50 51 52 52 51 50 49 47 43 40 40 39 38 37 35 34 32 31 31 30 29 30 31 32 34 36 38 40
42 43 44 45 45 46 48 49 51 55 58 62 60 62 62 56 52 49 49 51 51 50 49 47 44 41 41 40 38 37 35 34 32 32 31 31 30 30 31 33 35 37 39 41
41 39 39 39 40 42 44 46 48 51 54 55 56 60 59 56 54 50 48 49 51 50 49 46 44 42 42 41 39 38 36 34 33 32 32 31 31 31 33 34 36 38 40 41
36 35 35 35 35 37 38 40 40 44 48 51 53 52 52 50 50 48 46 47 49 49 48 45 43 43 43 41 39 38 36 35 34 33 33 32 32 32 34 36 37 39 41 41
31 31 29 30 30 29 32 33 36 39 44 47 47 44 40 38 40 42 43 46 48 48 47 43 42 43 42 41 39 38 37 35 34 33 33 33 33 33 35 37 38 39 40 41
25 26 24 24 25 27 28 31 34 38 41 42 42 34 28 28 31 35 40 44 46 46 43 40 40 41 41 40 39 38 36 35 34 33 33 33 33 34 35 36 38 39 40 42
22 24 23 22 23 25 25 26 30 34 36 37 37 25 21 19 23 31 37 41 43 42 39 39 39 40 40 39 38 37 36 34 33 33 33 33 33 33 34 36 37 39 40 42
20 22 23 22 21 23 23 21 24 27 31 32 31 15 15 17 21 29 35 39 39 38 37 38 39 40 39 38 37 36 35 34 33 32 32 32 32 33 34 36 37 39 41 43
18 19 21 22 21 22 22 20 21 24 26 23 17 7 13 18 24 30 35 37 36 36 37 38 38 38 37 36 36 35 34 32 31 30 31 31 32 32 34 35 37 40 42 45
17 17 18 18 19 20 19 18 18 18 16 11 5 9 18 23 26 30 34 36 35 35 36 36 35 35 34 33 32 31 30 29 29 29 29 30 31 32 33 36 39 41 45 48
15 14 15 15 15 16 15 13 9 7 4 1 8 17 21 25 27 29 32 33 34 33 33 32 31 31 30 29 28 27 26 26 27 27 28 28 29 31 34 37 41 44 47 50
10 11 13 15 14 15 15 10 6 9 12 15 19 22 23 25 26 28 30 30 30 29 28 27 27 27 26 25 24 24 24 24 24 25 26 27 30 33 36 39 43 46 48 50
7 9 12 14 15 17 14 10 11 14 17 20 23 24 25 25 26 27 27 26 25 25 24 23 22 22 21 21 20 20 20 21 22 24 26 29 32 35 38 41 44 47 49 52
4 7 9 12 14 16 15 13 14 16 19 21 22 23 23 23 23 23 22 22 21 20 20 19 18 18 17 17 17 18 19 21 23 25 28 31 34 37 40 43 46 48 50 53
2 4 7 9 11 12 13 14 14 15 16 17 18 19 19 19 18 18 18 18 18 17 16 15 14 15 15 16 17 18 20 22 24 27 30 33 36 39 42 44 46 49 52 54
2 0 2 4 7 8 9 9 10 10 12 13 14 14 14 15 15 15 14 14 14 13 13 13 14 15 16 17 18 20 22 24 27 29 32 35 37 40 42 44 47 50 52 54
7 5 3 1 1 3 4 5 5 7 8 9 9 10 11 11 11 11 11 11 11 11 12 14 15 16 17 18 20 22 24 26 28 31 33 36 38 40 42 45 48 50 51 52
11 9 8 6 4 2 1 2 3 4 5 5 6 7 9 10 10 10 10 11 11 12 13 14 15 16 17 19 21 23 25 27 29 32 34 36 38 40 43 46 47 48 49 51
14 13 11 10 8 7 5 4 3 4 5 5 6 7 8 9 10 11 11 11 12 12 13 13 14 16 18 20 22 24 26 28 30 32 34 36 38 41 43 44 45 47 50 53
15 14 14 13 11 9 7 5 4 4 5 5 5 6 6 8 9 10 10 11 11 12 13 14 16 17 18 20 23 25 27 29 30 32 35 37 39 41 42 43 45 48 52 57
17 16 15 14 12 10 8 6 6 6 5 6 6 5 6 7 8 9 10 10 11 12 14 15 16 18 20 22 24 26 28 30 31 33 35 37 38 40 41 43 47 51 56 62

GEFSCGP_500_meanwind_030.txt.gz
Wind_Speed
30 30 29 30 30 30 30 31 32 32 34 36 36 37 36 36 37 38 41 44 47 48 47 46 44 42 41 41 41 41 41 41 41 39 38 36 36 36 37 37 37 37 36 35
28 28 28 28 28 29 31 33 34 37 39 41 42 42 42 41 41 41 43 45 47 48 49 49 48 45 43 43 42 41 41 42 43 41 39 38 37 37 37 37 36 36 36 36
26 26 26 27 28 30 32 35 38 41 44 46 48 48 47 47 46 45 46 47 48 49 49 50 50 48 46 44 43 42 42 43 43 42 40 38 37 37 36 35 35 35 36 36
26 26 27 28 30 33 35 38 41 44 47 49 50 55 51 50 48 48 49 51 51 51 51 51 52 51 48 46 45 43 42 42 43 42 41 39 38 37 36 36 36 36 35 36
27 27 28 30 33 36 38 41 43 46 50 53 53 58 56 54 53 51 52 53 54 54 53 53 53 52 50 48 47 45 42 42 43 42 41 39 38 37 36 36 36 36 36 37
28 29 30 32 35 37 40 42 45 48 51 55 53 58 58 55 56 55 55 56 56 57 56 54 54 54 52 51 48 45 43 43 43 42 41 39 38 37 37 36 37 37 37 38
29 30 31 33 35 37 40 42 46 49 51 53 53 56 54 51 54 56 57 58 57 58 58 55 55 55 54 51 49 46 44 43 42 42 40 39 38 37 37 37 37 38 38 39
29 29 30 32 34 36 38 41 43 47 51 52 53 53 47 45 48 52 55 57 57 57 58 57 55 55 54 52 50 47 44 43 43 42 41 40 39 37 37 37 37 38 38 39
27 26 27 29 31 32 35 38 40 44 47 50 50 47 42 40 44 47 48 50 52 54 56 57 55 55 54 52 49 47 45 44 43 42 41 40 39 38 37 37 38 38 39 39
23 23 24 25 28 30 33 34 36 39 43 46 44 40 37 36 38 40 42 43 45 49 53 56 55 54 53 52 49 47 46 45 44 43 42 41 40 38 38 38 38 39 39 40
21 21 21 22 25 28 29 31 34 37 41 43 43 37 33 31 32 33 35 38 41 44 49 53 54 54 53 51 49 47 46 45 44 43 42 41 39 38 38 38 38 39 40 40
19 19 17 19 23 26 27 28 32 36 38 40 42 33 28 27 26 28 30 32 35 40 46 50 52 52 51 49 47 46 45 45 44 43 42 41 40 39 38 38 38 39 40 40
15 15 15 16 20 23 24 26 30 33 36 37 37 31 25 23 22 24 26 28 30 35 42 47 49 48 47 46 44 44 44 44 44 42 41 40 39 38 38 38 38 39 39 40
12 12 13 14 17 21 21 22 25 29 32 32 29 25 20 20 19 20 21 23 25 32 40 44 45 45 44 43 42 42 43 43 42 41 40 39 38 38 38 38 38 38 38 39
10 9 10 11 14 16 18 20 21 24 25 25 20 18 13 13 13 13 13 17 21 29 37 40 41 41 40 39 40 40 41 41 40 39 38 38 37 37 37 38 38 37 38 39
8 7 7 8 11 12 14 17 17 17 17 17 15 11 9 7 5 5 8 12 18 26 33 35 36 37 36 36 37 37 38 37 37 36 36 36 35 35 36 37 36 36 37 39
5 4 3 4 7 9 12 14 14 14 13 12 10 9 7 5 3 6 10 14 19 24 28 30 32 32 32 33 33 33 34 34 34 34 33 34 34 34 34 34 35 36 37 39
4 2 1 3 6 10 11 12 12 12 12 11 9 8 9 9 9 11 15 18 20 22 24 26 27 28 28 29 29 29 30 30 30 30 31 31 31 31 31 32 33 35 38 41
4 1 2 5 8 9 10 10 11 11 12 12 11 10 10 11 14 15 17 18 20 20 22 23 23 23 23 23 24 24 24 25 26 27 27 28 28 28 29 31 34 36 39 43
4 2 2 4 6 8 8 8 9 10 11 12 12 11 10 10 13 15 16 17 18 18 19 19 19 19 19 20 20 22 23 23 24 24 24 24 26 27 30 32 35 38 41 44
6 3 1 2 4 5 5 5 6 7 8 10 11 11 11 12 14 15 14 15 15 16 17 17 17 17 17 18 18 19 19 19 20 21 22 24 25 28 31 34 37 40 42 44
9 6 3 1 1 3 3 3 4 5 5 6 7 8 8 9 10 11 12 12 12 12 13 13 13 14 14 14 15 15 16 17 18 20 22 24 27 30 33 35 38 40 42 44
11 9 7 5 3 2 3 3 3 3 3 3 3 4 4 4 5 6 6 7 7 8 8 8 9 9 10 11 12 13 14 16 18 21 23 26 28 31 33 36 38 40 43 45
13 12 10 8 6 5 4 3 3 3 2 2 2 1 1 1 1 2 2 3 4 4 5 5 6 7 8 9 11 13 15 17 19 22 24 27 29 31 34 36 39 41 43 45
15 14 12 10 9 8 6 5 4 3 3 2 1 1 1 0 0 1 1 2 2 3 4 5 6 7 8 10 12 14 16 18 20 23 25 27 30 32 35 37 39 42 43 45
17 15 13 12 11 9 8 7 6 5 4 3 2 2 1 1 1 2 2 3 3 4 4 5 6 7 9 10 12 14 17 19 22 24 26 29 31 33 36 38 40 41 43 46

GEFSCGP_500_meanwind_036.txt.gz
Wind_Speed
34 35 35 35 36 38 39 39 38 38 39 39 39 38 37 36 36 35 35 36 36 36 36 36 36 37 38 39 41 41 41 39 39 38 37 37 38 38 37 36 36 36 36 37
31 31 32 33 34 34 35 35 35 36 37 38 38 38 37 37 37 37 38 38 39 39 40 40 40 40 40 41 42 44 45 43 42 42 40 39 39 38 38 37 37 36 37 37
28 29 29 30 29 30 31 32 33 33 34 36 38 39 38 38 38 39 40 41 43 44 44 45 45 45 45 45 45 45 46 47 46 45 44 42 40 39 39 38 38 38 38 39
26 25 26 26 26 27 28 29 29 30 32 33 37 41 38 39 41 43 45 46 47 48 49 50 50 50 49 49 49 48 48 49 50 48 46 44 42 41 41 40 39 39 39 39
23 22 22 23 23 24 25 25 27 29 31 34 35 41 40 42 44 47 50 51 52 53 54 55 55 54 54 53 53 52 51 51 52 50 48 46 45 43 42 41 40 40 40 40
22 21 21 21 22 22 23 25 27 30 32 35 37 42 42 45 48 51 53 55 56 56 57 57 58 58 58 57 57 56 54 53 53 52 50 49 47 44 43 41 41 41 41 41
21 20 20 21 21 22 23 25 28 32 35 37 41 44 43 46 49 52 54 55 56 57 57 57 57 58 59 59 59 58 57 55 53 52 51 50 49 46 44 43 42 42 41 41
22 21 21 21 21 23 25 27 30 34 38 40 43 45 44 46 49 52 53 54 55 55 56 55 55 55 56 58 59 59 58 56 54 52 51 51 49 46 45 44 43 42 41 41
22 21 21 21 22 24 26 29 32 36 39 42 43 44 44 45 47 49 51 52 53 53 54 53 52 52 53 55 57 58 59 57 54 53 52 51 48 47 45 45 44 43 41 41
22 21 21 22 24 26 29 30 31 34 38 41 42 42 42 41 42 44 47 49 50 51 51 51 49 49 50 51 53 55 57 56 54 53 51 49 47 46 45 44 43 42 41 40
22 22 21 22 25 26 27 29 31 34 36 39 41 38 36 38 41 43 46 47 49 50 49 48 47 47 48 48 49 51 53 54 53 51 49 47 46 45 44 43 43 42 41 40
21 20 20 22 24 25 26 27 29 31 33 35 37 35 33 35 39 42 44 45 46 46 45 45 43 43 44 45 46 47 49 51 50 48 46 45 45 44 43 42 41 41 40 39
19 19 20 22 22 22 22 24 26 28 29 30 33 32 31 36 39 41 43 43 43 43 42 40 39 38 39 41 41 43 46 46 45 44 43 43 43 42 41 40 40 40 39 38
18 18 19 20 20 19 18 20 23 25 26 27 28 30 30 33 36 37 39 39 38 37 35 33 31 30 33 36 38 39 41 41 41 41 40 40 40 39 39 38 38 37 37 37
16 16 17 17 17 16 15 16 18 20 21 24 25 28 30 32 32 32 33 31 29 27 24 23 21 23 27 31 33 35 36 37 38 38 38 37 36 36 36 36 35 35 36 36
15 14 14 15 14 13 12 13 14 15 17 20 24 26 28 29 28 28 26 23 18 14 12 12 12 16 21 25 28 31 33 35 36 35 34 33 32 32 32 32 32 34 35 36
14 13 13 13 12 10 10 10 10 11 14 18 23 25 26 25 26 24 22 18 12 7 2 4 7 12 18 22 25 29 31 31 30 29 28 28 28 29 29 30 32 33 34 37
13 12 11 11 10 9 7 7 8 10 14 17 20 23 24 23 23 21 19 16 12 9 8 9 10 13 18 22 24 26 26 25 24 24 24 24 25 25 27 28 30 32 35 39
13 11 10 9 8 7 5 5 7 9 12 15 18 21 20 20 21 21 18 17 16 16 15 15 15 17 20 21 21 21 20 20 19 19 19 20 21 23 26 29 31 33 36 38
12 11 9 8 7 6 5 5 7 9 11 14 15 18 18 18 19 19 19 17 17 18 18 17 17 18 18 18 17 17 16 15 15 15 16 18 21 24 27 30 33 35 37 38
12 11 9 8 6 6 5 6 7 9 11 12 13 15 16 16 17 17 17 16 15 16 16 16 16 17 17 16 15 14 13 13 14 15 17 20 23 26 28 30 33 34 36 37
13 11 10 8 7 6 6 7 7 9 10 10 11 13 13 13 13 13 13 13 13 12 12 13 12 12 12 11 12 12 12 13 15 18 20 22 23 25 26 28 31 33 35 37
14 13 12 10 9 8 7 7 8 8 9 9 10 10 11 11 11 10 9 10 10 10 9 9 8 8 8 8 9 10 11 12 13 14 16 18 20 23 25 28 30 32 35 37
16 15 13 12 11 10 9 8 8 8 8 8 8 8 8 9 9 8 7 7 6 6 6 6 6 5 5 4 5 5 6 8 10 12 15 17 20 22 25 28 30 33 35 38
17 16 15 13 12 11 10 10 9 9 8 8 8 7 6 7 7 6 5 5 5 4 4 4 4 3 2 2 2 4 6 8 11 13 16 18 21 23 26 29 31 34 36 37
19 17 16 14 14 13 12 12 11 10 9 8 8 7 6 6 6 5 4 3 3 2 2 2 1 1 0 2 3 5 7 10 12 15 17 20 23 25 28 30 32 34 35 38

GEFSCGP_500_meanwind_042.txt.gz
Wind_Speed
37 39 40 40 41 43 44 45 45 45 45 44 44 42 40 40 42 42 41 40 40 38 38 39 38 37 37 38 38 38 37 36 36 36 36 36 35 35 35 34 34 33 32 31
33 33 34 35 38 40 41 41 41 42 43 43 43 42 40 40 41 42 42 41 41 40 40 40 41 41 40 40 40 40 40 39 39 38 38 39 40 40 39 38 37 35 34 34
29 30 30 32 33 35 36 37 37 38 40 41 42 40 38 37 39 40 41 41 42 42 42 43 43 43 43 43 43 43 43 43 43 42 42 42 43 42 41 40 39 38 38 38
30 29 29 29 29 30 32 32 32 33 34 35 37 37 32 34 35 36 38 39 40 42 43 44 45 46 46 46 47 47 47 47 47 47 47 46 45 45 44 43 44 43 43 41
27 26 26 26 26 27 27 26 27 28 29 31 31 35 29 29 31 33 35 38 40 42 44 45 47 48 50 50 51 51 52 51 52 52 52 51 49 48 47 47 47 46 45 44
26 25 24 24 24 24 23 23 23 24 25 26 25 30 29 27 30 33 36 38 41 43 45 47 49 51 52 54 55 56 56 56 57 57 56 56 54 52 51 50 49 49 48 47
23 23 22 22 22 21 21 20 21 21 22 22 23 26 27 29 31 34 37 40 43 45 47 49 52 53 55 56 57 58 59 59 60 60 60 59 58 56 54 52 52 52 51 49
22 22 21 21 20 19 19 19 19 19 20 20 22 24 26 30 33 35 38 40 43 46 48 51 53 55 56 58 58 59 60 60 60 61 61 61 61 59 58 55 54 53 52 51
23 22 21 20 19 18 18 17 17 18 19 21 22 24 26 30 33 36 38 41 43 46 48 50 52 54 56 57 58 58 58 59 59 59 60 59 59 60 59 57 56 54 53 52
22 21 20 19 18 17 16 16 17 18 20 22 23 23 26 28 31 34 36 39 42 44 46 48 50 52 53 54 56 57 57 56 57 58 58 58 57 57 58 57 55 54 53 52
21 20 19 18 17 16 16 16 17 19 21 23 23 21 23 26 29 31 34 37 39 41 44 47 50 52 53 53 53 53 54 54 54 55 56 56 56 56 56 56 54 53 52 51
20 19 18 17 16 15 15 16 17 19 20 21 21 18 21 24 27 29 31 34 37 41 44 47 50 52 52 51 49 49 50 50 51 52 53 53 53 53 53 53 52 51 50 49
19 18 17 17 15 15 15 16 17 18 18 18 18 16 21 22 24 26 29 33 36 39 42 45 46 46 45 44 42 42 43 44 46 47 49 50 50 49 49 49 49 48 47 46
18 17 16 15 14 14 14 15 16 16 16 16 15 14 17 19 21 24 28 31 34 37 39 39 39 36 34 32 32 33 35 38 40 42 43 45 46 45 45 45 45 44 43 41
16 16 15 14 14 13 14 14 15 14 14 13 11 13 14 17 20 23 26 29 31 33 34 33 29 26 23 21 21 22 25 29 31 33 36 38 39 40 40 40 40 39 37 37
16 15 14 14 13 12 12 13 12 12 11 9 9 10 13 16 19 22 25 26 28 29 29 27 23 18 14 12 11 13 16 19 24 27 30 32 33 34 35 34 33 33 33 33
15 14 14 13 12 11 10 11 10 9 8 8 8 10 12 15 18 21 22 24 25 25 24 23 19 14 9 5 4 7 11 14 19 23 25 26 28 29 29 29 28 28 29 29
14 14 13 12 11 10 9 9 8 7 7 7 8 10 12 14 17 19 20 22 23 22 21 20 16 12 7 3 3 7 11 13 16 19 21 22 24 25 25 25 25 25 25 25
14 13 13 12 11 9 8 8 7 7 7 7 8 10 11 13 15 17 18 19 20 19 19 17 15 13 10 7 7 9 11 14 17 18 20 21 21 22 22 22 22 22 23 25
14 13 13 12 11 10 9 9 8 7 7 7 8 9 11 12 13 15 16 16 16 16 15 15 14 14 12 11 11 13 14 16 16 17 18 19 18 18 19 18 20 22 24 26
14 13 13 13 12 10 10 9 8 7 7 7 8 9 10 11 12 13 13 13 13 13 13 12 12 12 12 12 12 13 14 14 13 14 13 14 14 14 15 16 19 21 23 26
14 14 14 13 12 11 10 9 8 7 6 7 7 9 9 10 11 12 11 11 11 11 10 10 9 9 9 9 9 9 10 10 9 9 9 10 11 13 16 18 19 21 24 27
14 15 15 14 13 12 11 9 8 8 7 7 7 8 8 9 10 10 10 10 9 9 9 8 8 8 8 7 6 6 5 5 6 6 7 8 9 11 13 15 18 21 24 28
15 15 16 16 15 14 13 11 10 9 8 7 7 7 7 8 9 9 9 9 8 8 7 7 6 6 6 6 5 5 4 3 2 2 3 6 8 11 13 17 20 22 25 28
17 17 17 17 17 16 15 13 11 10 9 8 8 8 8 8 9 9 9 9 8 8 7 6 5 5 4 4 4 3 2 2 3 4 6 9 11 14 17 19 22 24 27 30
19 18 18 18 18 17 16 14 12 11 10 10 10 9 8 8 9 9 9 8 8 7 6 6 5 5 5 4 4 4 5 5 7 9 11 13 15 17 19 22 24 26 29 31

GEFSCGP_500_meanwind_048.txt.gz
Wind_Speed
38 39 42 44 45 46 47 47 47 46 45 44 44 43 40 41 43 43 43 43 42 42 41 42 43 43 42 41 41 42 42 42 43 43 43 43 42 42 42 41 41 40 39 38
35 35 37 40 43 44 45 45 45 44 45 44 44 43 41 41 43 43 43 43 43 43 42 43 44 44 44 44 43 44 44 45 45 45 45 45 45 45 45 45 44 42 41 40
32 32 34 36 39 41 42 42 42 41 42 42 42 41 40 40 41 42 43 43 43 43 43 44 44 45 45 45 45 45 46 47 48 48 48 48 47 47 46 46 45 44 44 44
30 30 30 31 33 35 36 37 37 38 39 40 40 39 35 37 39 40 41 41 42 43 43 43 44 45 46 46 47 47 48 49 50 50 51 51 50 49 48 47 47 47 48 47
28 28 28 29 30 31 31 32 33 34 36 37 36 36 31 33 34 35 36 38 39 40 41 42 43 44 46 47 48 49 49 50 52 53 53 54 54 53 52 51 50 50 50 50
28 28 27 27 28 28 28 28 29 30 32 33 31 32 29 29 30 31 32 34 35 37 39 40 41 43 44 46 47 49 50 52 53 55 56 56 57 57 57 56 55 54 53 52
27 27 26 26 27 26 25 26 26 27 28 28 25 26 26 24 25 27 29 31 33 35 37 38 40 42 44 46 48 50 52 54 56 57 58 59 60 61 61 60 60 58 57 56
25 25 25 25 26 25 24 25 25 24 24 22 21 22 22 21 22 25 28 30 32 34 36 38 40 43 45 47 49 51 54 56 58 60 62 63 64 64 64 64 64 63 62 60
24 24 23 23 24 25 23 23 22 22 21 20 19 20 20 20 22 24 27 29 31 33 36 38 41 43 45 48 50 53 56 58 61 63 65 67 68 68 68 67 67 66 65 64
22 22 21 21 22 22 22 22 22 21 20 18 17 18 19 21 23 25 26 28 30 32 35 37 40 42 45 48 50 53 56 59 61 64 66 67 68 69 70 70 69 68 66 65
20 20 20 20 21 21 21 21 20 19 18 17 16 17 19 22 23 25 26 27 29 31 33 35 38 41 43 46 49 51 54 57 59 61 63 65 66 66 67 67 67 67 66 64
19 19 19 19 18 19 18 18 18 17 15 15 15 18 20 21 22 23 24 26 28 29 31 33 36 38 41 44 47 50 53 55 56 57 58 59 60 62 63 63 63 63 62 62
19 18 17 17 17 16 16 16 16 15 14 14 15 18 19 19 20 21 22 23 25 27 29 31 34 36 39 41 44 47 49 48 48 48 49 50 51 53 55 57 58 58 57 57
17 17 16 16 15 14 15 15 14 14 14 14 15 18 19 18 18 19 20 21 22 24 27 29 31 33 36 39 41 42 41 39 38 38 38 39 41 44 46 47 49 50 50 50
16 16 15 15 14 14 14 14 14 14 15 14 15 17 17 17 17 17 18 19 21 22 24 26 28 30 33 35 36 35 33 31 30 28 27 27 29 32 35 37 39 41 42 43
16 16 15 15 14 14 15 15 15 15 14 14 15 15 15 15 16 16 16 17 19 20 22 23 25 27 29 31 31 29 27 25 22 19 17 17 18 21 24 27 29 31 33 34
17 16 16 15 14 15 15 15 14 14 14 13 13 13 13 14 14 14 15 16 17 19 20 21 22 25 27 27 26 24 22 20 17 14 12 11 11 12 15 17 20 22 23 25
17 16 16 15 15 15 14 14 14 13 13 12 12 12 12 12 13 13 14 15 16 17 18 19 20 22 24 24 23 21 19 17 14 11 8 5 4 6 8 11 14 15 17 20
17 16 16 16 16 16 15 14 14 13 13 12 11 11 10 11 12 13 14 15 15 16 17 17 17 18 20 20 19 19 17 14 12 9 7 4 1 1 3 6 9 12 14 16
17 16 16 16 16 16 15 14 13 13 12 11 10 10 9 10 11 13 13 14 14 15 16 16 15 16 17 16 16 16 15 14 12 10 8 6 4 2 2 4 6 9 11 13
17 17 17 16 16 15 15 14 14 12 12 11 10 10 10 11 12 12 13 13 13 14 14 14 14 15 15 14 13 13 13 12 12 12 10 8 6 4 2 1 3 5 7 10
19 18 17 17 16 16 15 14 14 13 12 11 11 11 11 11 12 12 12 12 12 13 13 13 13 13 13 12 12 10 10 11 11 10 9 8 6 5 3 2 2 5 8 11
20 19 18 17 17 16 16 16 15 14 13 12 12 11 11 11 12 12 12 12 12 13 13 13 12 11 11 10 10 10 9 9 9 9 9 8 7 6 6 6 6 8 10 12
21 21 19 18 18 18 17 17 16 15 14 13 13 12 12 12 12 12 13 12 12 12 12 11 10 9 9 9 9 9 9 9 9 9 9 9 8 8 8 9 10 11 13 15
21 21 20 20 20 19 18 18 18 17 16 15 14 13 13 13 13 13 13 13 12 12 11 10 9 8 9 9 9 9 9 9 9 10 10 10 10 11 12 13 14 15 17 18
21 21 20 20 21 20 20 20 19 18 17 17 16 15 14 14 14 14 14 13 13 12 11 10 10 9 9 9 9 9 9 10 10 11 12 12 13 15 16 17 18 19 20 21

GEFSCGP_500_meanwind_054.txt.gz
Wind_Speed
41 41 43 44 46 47 47 46 46 45 44 42 42 40 38 38 39 40 41 42 42 41 40 40 39 38 38 38 38 38 39 40 41 42 42 43 43 44 45 45 45 46 45 45
38 38 40 43 45 46 47 46 45 44 43 42 41 41 39 38 38 39 40 41 41 41 41 40 40 39 39 39 39 39 40 41 42 43 43 44 45 46 46 47 47 47 47 47
35 36 39 41 43 45 46 45 44 43 42 42 41 41 40 39 39 39 39 40 40 41 41 41 41 40 40 40 40 40 41 41 42 43 44 45 46 47 48 48 48 49 49 50
33 35 37 39 41 42 43 44 44 43 42 42 42 41 40 39 38 39 39 39 40 40 41 41 41 41 40 40 41 41 42 42 43 44 45 45 46 47 48 49 50 51 52 53
31 32 34 35 37 39 40 41 41 42 42 42 41 40 40 38 38 38 38 39 39 40 40 40 40 40 40 41 41 42 42 43 44 44 45 46 47 48 49 50 51 53 54 55
29 29 31 32 33 35 36 38 38 39 40 40 38 38 38 37 36 36 36 37 38 38 38 39 39 39 40 40 41 41 42 42 43 44 45 46 48 49 50 52 53 54 55 56
28 29 29 30 30 31 32 34 35 36 37 37 36 36 36 34 34 34 34 34 34 35 35 36 36 37 38 38 39 39 40 41 42 44 45 47 48 50 52 54 55 56 58 59
27 28 29 29 29 28 29 32 32 33 33 33 32 33 32 31 31 31 31 31 31 31 32 32 33 34 35 36 36 37 39 41 42 44 47 49 51 53 55 57 59 60 62 62
25 26 27 28 28 28 28 29 29 30 30 29 29 29 29 28 28 28 28 28 28 29 29 30 31 32 33 34 35 37 39 41 43 45 48 50 53 55 57 59 62 64 65 66
23 25 26 26 27 27 26 26 27 27 26 25 25 25 25 25 25 25 25 25 26 27 28 28 29 30 32 33 34 36 38 40 43 45 47 50 52 55 57 60 63 65 67 68
21 23 24 24 25 25 25 26 26 25 25 24 24 24 24 24 23 23 23 24 25 26 26 27 28 30 31 32 33 35 37 39 41 43 46 48 51 53 56 58 60 62 64 65
19 20 21 21 22 23 24 24 25 24 22 22 22 23 23 23 23 22 22 23 24 25 26 27 28 28 29 31 32 33 34 36 39 41 43 45 47 49 50 52 53 55 56 58
19 19 19 19 20 21 22 22 22 21 21 21 22 22 22 21 21 21 22 23 24 24 25 26 26 27 28 28 29 30 32 34 35 37 39 40 42 44 44 45 46 46 47 48
17 17 17 16 16 18 19 20 20 20 20 20 21 21 20 19 20 21 21 22 23 23 24 24 24 24 25 25 26 27 28 30 31 32 33 35 36 37 38 38 37 37 37 37
16 16 16 16 15 17 17 18 18 18 19 19 19 19 19 18 18 19 19 20 21 21 21 21 21 22 23 23 23 24 25 26 26 27 28 29 30 31 31 30 29 27 27 27
16 16 16 16 16 16 16 17 17 17 17 18 18 17 17 16 17 17 17 17 18 18 18 18 19 20 20 20 21 21 22 22 22 23 24 25 26 26 25 24 22 20 18 18
16 16 16 16 16 16 16 16 16 16 17 17 17 16 16 16 16 15 15 15 15 15 16 16 17 18 18 18 19 19 19 19 19 20 21 21 22 21 21 19 17 15 13 11
17 17 16 16 16 16 15 16 16 16 16 16 16 16 16 16 15 14 14 14 14 14 15 16 16 16 17 17 18 18 17 16 16 17 18 18 18 18 18 16 15 13 10 8
17 17 17 17 16 16 16 16 16 16 16 16 16 16 16 15 15 14 13 13 14 14 15 15 15 15 16 16 16 16 15 14 15 15 15 15 15 15 15 14 13 11 9 8
17 17 17 18 17 17 16 16 16 16 16 16 16 16 16 15 14 13 13 13 13 14 14 14 15 15 15 15 15 15 14 13 13 12 13 13 13 13 13 12 11 10 9 9
18 18 18 18 18 17 17 17 17 17 16 16 15 16 16 15 14 13 12 12 12 13 13 13 14 14 14 14 14 13 12 12 12 12 12 12 13 12 12 12 11 11 10 9
18 18 18 18 18 18 17 17 17 17 17 16 16 15 15 15 15 14 13 12 12 12 13 13 13 14 14 13 13 12 11 11 11 11 11 12 12 12 13 12 12 11 11 11
19 19 19 19 18 18 18 17 18 18 18 18 17 16 16 16 15 14 13 12 12 12 13 13 13 13 13 12 12 11 11 11 11 11 11 11 12 12 12 12 12 12 13 13
20 20 19 19 19 19 18 18 18 19 19 19 19 18 17 16 16 15 14 13 13 13 13 13 13 12 12 12 12 11 11 11 11 12 12 12 12 12 13 13 14 14 15 15
20 20 20 20 20 20 20 20 19 19 20 20 20 19 18 17 17 16 15 14 14 13 13 13 13 12 12 12 13 13 13 13 12 12 12 13 13 13 14 15 15 16 17 17
20 20 20 20 21 21 21 21 20 20 20 21 21 20 19 19 18 17 17 16 15 15 14 14 13 13 13 13 13 14 14 14 14 14 14 14 15 16 16 17 17 18 19 20

GEFSCGP_500_meanwind_060.txt.gz
Wind_Speed
44 44 44 41 41 42 43 44 45 47 49 47 46 45 45 46 44 43 43 43 42 41 40 39 38 38 37 38 38 37 37 36 36 36 36 36 37 37 38 39 39 40 41 42
41 40 39 39 39 42 44 44 45 47 47 45 45 45 44 44 43 43 43 43 42 41 40 39 39 38 38 38 38 38 37 37 37 38 38 39 39 39 40 40 41 43 44 46
36 36 37 38 38 39 41 42 43 45 43 43 43 44 44 44 41 41 41 41 41 39 39 38 37 37 37 37 37 37 37 38 38 39 39 40 41 41 41 42 43 44 46 48
34 34 34 35 36 36 39 41 42 42 41 41 41 42 43 43 42 40 39 39 39 37 37 35 35 36 36 36 37 37 37 38 39 39 40 41 41 42 43 44 44 45 46 48
32 32 31 32 33 35 38 39 40 39 40 42 41 40 42 41 40 40 39 38 37 36 35 34 34 35 35 36 36 37 37 38 39 39 40 41 42 43 43 44 45 46 47 48
28 30 30 31 31 33 35 37 38 39 40 40 39 39 40 39 37 37 37 37 37 36 35 35 35 36 36 36 37 37 38 38 38 39 40 41 42 42 43 44 45 46 47 48
26 27 28 29 30 32 33 36 37 38 39 39 38 38 40 39 37 36 36 36 37 37 37 37 37 37 37 38 38 38 38 38 39 39 40 40 41 41 42 43 44 45 46 48
24 25 27 28 29 31 32 33 35 35 36 36 37 38 39 38 36 36 36 36 36 36 36 36 37 37 37 37 37 38 38 38 38 39 39 39 40 40 41 42 43 44 46 47
23 24 24 25 27 28 30 31 32 32 33 34 36 38 38 36 34 35 36 36 35 35 35 36 36 36 37 37 37 37 37 37 37 37 38 38 38 39 39 40 42 43 45 47
19 21 22 23 24 26 28 29 30 31 31 32 34 35 36 35 34 34 34 34 34 35 35 35 36 36 36 36 35 35 35 35 35 36 36 36 37 37 38 39 40 42 43 45
17 18 20 21 23 23 25 27 29 29 31 31 32 33 32 32 33 33 34 34 34 34 34 35 35 35 34 34 34 34 34 34 34 34 34 35 35 35 36 38 39 39 40 42
16 17 18 20 21 22 23 24 26 28 29 30 30 32 29 29 30 31 31 32 33 33 33 33 33 33 33 33 32 32 32 32 32 33 33 33 33 34 34 35 36 36 38 39
15 16 18 20 21 22 22 22 24 26 27 27 28 30 27 26 27 28 29 30 30 31 31 32 31 31 31 31 30 30 31 31 31 31 31 31 31 32 33 33 33 34 35 37
15 16 17 18 18 19 20 22 23 24 25 25 27 27 24 24 25 26 26 27 28 29 29 29 29 29 29 29 29 29 29 29 29 29 29 29 30 30 31 31 31 32 33 35
15 16 17 17 18 19 20 21 21 22 23 25 25 25 23 23 23 23 24 26 26 27 27 27 26 27 27 27 27 27 27 27 27 27 28 28 28 29 29 28 29 30 31 31
15 16 16 17 17 18 19 19 20 20 21 22 23 23 23 22 21 22 23 24 24 24 24 25 25 25 25 25 25 24 25 25 25 26 26 26 27 27 27 27 27 28 28 29
14 15 15 16 16 16 16 16 17 18 19 21 21 21 21 20 20 21 22 22 22 22 23 23 23 23 23 23 22 22 22 23 24 24 25 25 26 26 25 25 25 26 26 26
15 15 16 16 16 16 15 16 16 17 18 18 18 19 19 18 19 20 21 21 21 21 21 21 20 20 20 20 20 21 21 22 22 23 24 24 24 24 24 24 24 24 25 25
15 16 16 16 16 16 15 16 16 16 16 17 18 18 18 19 19 20 20 19 19 19 19 19 18 19 18 18 19 20 20 21 22 22 23 23 23 23 22 22 23 23 23 23
16 16 16 17 16 16 15 16 17 16 17 17 17 18 18 19 19 18 19 18 18 18 17 17 17 17 17 18 18 19 20 20 21 21 21 21 22 22 22 22 22 22 23 23
17 17 17 17 17 16 16 17 17 17 16 17 17 18 19 19 18 18 18 18 18 17 17 17 17 17 17 17 18 19 19 20 20 20 20 20 20 21 21 21 22 22 22 22
18 18 18 18 18 17 17 17 17 17 16 17 17 18 18 18 18 18 18 18 18 18 17 17 17 16 17 17 17 18 19 19 19 19 19 19 19 19 20 20 21 21 21 21
18 18 18 18 18 17 18 18 18 18 18 17 18 18 18 18 18 19 19 19 19 18 18 17 17 17 17 17 17 17 18 18 18 18 18 18 19 20 20 20 21 21 21 22
19 19 18 19 19 19 19 19 19 19 19 19 19 20 20 20 20 20 19 19 19 18 18 18 18 17 17 17 17 17 17 18 18 18 18 19 20 20 20 21 21 22 23 23
20 20 19 19 20 20 19 19 19 19 19 19 20 21 21 21 21 21 20 20 19 19 19 19 19 18 18 18 18 18 18 18 19 19 20 20 20 21 21 22 22 23 24 25
22 22 21 20 21 20 20 20 20 20 20 20 20 21 22 22 22 22 21 21 21 20 20 20 20 19 19 19 19 19 19 20 20 20 21 21 22 22 23 24 24 25 26 26

GEFSCGP_500_meanwind_066.txt.gz
Wind_Speed
43 44 43 41 40 40 41 42 42 42 43 44 44 43 43 43 43 43 44 44 44 45 46 45 44 43 42 41 40 39 38 37 37 37 36 36 35 36 36 35 35 35 36 37
41 41 40 39 39 39 39 40 40 41 41 43 44 44 44 45 44 43 44 44 44 45 45 44 43 43 42 42 41 41 40 40 39 38 38 38 37 37 37 37 37 37 38 38
37 37 38 38 38 38 37 38 38 39 40 42 44 46 45 45 44 43 43 44 45 45 45 44 43 42 42 42 42 41 41 41 40 40 39 39 39 39 39 39 39 39 39 40
36 36 37 37 36 35 34 34 35 37 39 40 42 45 45 44 45 43 42 42 43 44 44 43 43 42 43 43 42 42 42 42 41 40 40 40 40 40 40 40 40 40 41 42
35 35 35 34 33 33 32 32 33 34 36 38 39 42 43 45 44 42 41 41 42 43 43 43 42 42 42 42 42 42 42 42 42 41 41 40 40 40 40 40 41 41 42 43
32 33 34 33 32 31 31 30 31 33 34 37 37 39 40 42 42 41 41 41 42 42 43 43 42 42 42 42 42 41 41 42 41 41 40 40 40 40 40 41 41 42 43 44
29 31 32 31 31 30 30 30 30 31 34 34 34 38 37 38 40 41 42 42 42 42 42 42 42 42 42 42 42 41 41 40 40 39 39 40 40 41 41 42 42 43 43 44
25 28 29 30 29 28 28 29 29 30 30 30 32 35 34 36 39 40 41 42 42 42 42 42 42 41 41 41 41 41 40 40 40 40 41 41 42 42 43 43 43 44 44 44
22 24 25 26 26 26 27 28 27 28 29 30 32 32 33 34 36 39 40 40 40 41 42 42 42 42 41 41 40 41 41 41 42 42 42 42 42 43 43 43 43 43 43 43
20 21 23 23 24 25 25 26 26 26 27 29 29 30 30 31 33 36 38 39 40 41 41 41 41 42 42 42 42 42 42 42 43 43 42 42 42 42 42 42 42 42 42 41
17 19 21 23 24 23 24 24 25 25 27 27 28 28 28 29 31 33 35 38 40 41 41 41 41 41 41 41 41 41 41 41 41 41 41 41 41 41 40 40 40 40 40 40
15 17 19 20 22 23 24 24 24 25 26 26 26 25 25 26 28 30 32 35 37 38 40 40 40 40 40 40 40 40 40 40 40 40 39 39 39 38 38 38 38 38 38 38
14 15 17 19 21 22 23 24 24 25 25 26 26 24 24 24 25 27 28 31 33 35 36 38 38 39 39 39 38 38 38 38 37 37 37 36 36 36 36 36 36 36 36 36
13 14 15 17 18 20 20 22 24 25 25 24 24 22 23 24 24 24 25 27 29 31 33 34 35 36 36 36 36 35 35 35 35 34 34 34 34 34 34 34 34 33 33 33
13 13 14 16 18 19 20 21 22 23 22 23 22 23 23 25 26 25 25 26 27 28 30 31 32 33 33 33 33 33 32 32 32 32 32 32 32 32 32 31 31 31 31 31
13 14 14 15 17 19 20 20 20 21 21 22 23 22 23 24 25 25 24 25 26 27 28 28 28 29 29 29 30 30 30 30 30 30 30 30 30 29 29 29 29 29 29 29
14 14 15 16 17 17 18 18 19 19 20 21 21 21 23 23 23 24 24 24 25 25 25 25 25 26 26 27 27 28 28 28 28 28 28 27 27 27 27 27 28 28 28 28
15 16 16 16 17 17 15 17 18 18 18 20 19 20 21 21 21 22 23 23 23 23 23 23 23 24 24 25 25 25 25 26 25 25 25 25 25 25 25 25 25 26 26 26
16 17 17 17 17 16 16 16 16 17 17 17 17 18 18 19 19 20 21 21 22 22 22 22 22 23 23 23 23 23 23 24 24 24 24 23 23 23 23 24 24 24 25 25
17 17 17 17 17 16 16 16 16 16 16 16 16 17 17 18 18 19 20 20 20 20 21 21 21 21 22 22 22 22 22 22 22 22 22 22 22 22 23 23 23 24 24 25
17 17 17 16 16 16 16 16 16 16 16 16 16 17 17 17 18 19 19 19 20 20 20 20 20 20 20 21 21 21 21 21 21 21 21 21 21 22 22 22 23 23 24 24
18 18 17 16 16 16 16 16 16 16 16 16 16 17 17 18 18 19 19 19 19 19 19 20 20 20 20 20 20 20 20 20 20 20 20 20 20 21 21 22 22 22 23 24
19 18 18 17 16 16 16 17 17 16 16 17 17 17 17 17 18 18 19 19 19 19 19 20 20 20 20 20 20 20 20 20 20 20 20 20 20 20 20 21 22 23 23 24
20 20 19 18 17 17 17 17 18 18 18 18 17 17 18 18 18 18 19 19 19 19 19 20 20 20 20 20 20 20 20 20 20 20 20 19 20 20 21 22 23 24 25 26
21 21 20 19 19 18 18 19 18 18 18 19 19 19 18 18 18 19 20 20 20 20 20 21 20 20 21 20 20 20 21 20 20 20 20 20 20 21 22 23 24 25 26 27
22 22 22 21 21 20 19 19 19 19 19 19 19 19 20 20 20 20 21 21 22 22 22 22 22 22 21 21 21 21 21 21 21 21 21 21 22 23 23 24 25 26 27 29

GEFSCGP_500_meanwind_072.txt.gz
Wind_Speed
42 44 45 44 43 42 42 42 41 41 42 44 47 49 51 52 52 51 51 52 52 52 52 50 49 48 48 47 46 44 44 43 42 42 41 40 39 38 38 37 36 36 36 36
39 41 41 42 42 42 41 41 40 39 40 41 44 47 48 51 51 50 50 50 50 50 50 50 49 49 48 48 47 46 45 45 44 44 43 42 41 41 40 39 38 38 38 38
34 36 39 40 40 40 40 39 38 38 38 40 41 44 45 47 48 48 48 48 48 49 49 49 49 49 48 48 48 47 47 47 46 45 45 44 43 42 42 41 40 40 40 40
31 33 36 38 38 38 38 38 37 37 38 39 40 42 41 44 46 45 44 44 45 46 47 48 48 48 48 48 48 48 48 47 47 46 46 45 44 44 43 43 42 42 42 42
28 32 33 34 35 35 36 36 36 36 37 37 38 39 39 41 42 42 41 41 43 44 45 46 46 47 47 48 48 48 48 48 48 48 47 46 45 45 44 43 44 44 44 44
26 30 32 32 33 34 34 34 34 34 34 36 35 37 36 37 38 39 40 41 42 43 44 44 45 45 45 46 47 47 48 49 49 48 48 47 47 46 45 45 45 45 46 45
26 29 31 31 32 33 32 32 32 33 34 33 33 34 31 32 35 37 39 41 43 43 43 44 44 44 45 45 45 46 47 47 47 47 47 47 47 47 47 46 46 46 46 46
24 28 29 30 30 31 31 31 31 32 32 32 31 31 28 29 32 36 38 41 43 44 44 44 44 45 45 45 45 46 46 46 47 47 47 47 47 47 47 47 46 46 45 45
22 26 28 29 29 29 30 30 30 30 30 30 30 28 27 27 30 34 37 39 41 43 45 45 45 46 46 46 46 46 46 46 46 46 47 46 46 46 46 46 45 45 45 45
19 23 26 28 29 30 29 29 29 29 28 28 28 26 26 27 30 32 35 37 40 42 44 45 46 47 47 47 47 47 47 47 47 47 47 46 46 46 46 45 45 46 46 47
17 21 23 26 28 28 28 28 29 29 29 27 26 25 24 25 27 30 33 35 37 40 42 44 45 46 47 47 47 47 47 47 46 46 46 46 46 46 46 46 46 47 47 47
15 18 20 22 24 27 27 28 28 29 28 27 25 24 23 23 24 27 29 31 34 37 40 42 43 44 45 46 46 47 47 47 46 46 46 46 46 46 46 47 47 47 46 45
14 17 18 20 22 25 27 27 27 27 28 28 27 24 22 21 22 24 27 29 31 33 36 39 41 42 43 45 45 45 45 46 46 46 46 46 46 46 46 45 45 44 43 43
14 16 17 18 20 22 24 26 27 28 28 27 25 22 21 23 24 25 27 28 29 31 33 35 37 39 40 41 42 43 44 44 44 45 44 44 44 44 43 43 42 41 40 39
16 17 17 18 20 21 23 25 27 28 27 27 23 23 21 24 26 27 28 28 29 30 31 32 34 36 37 39 40 40 41 42 42 42 41 41 41 41 40 40 39 38 37 36
17 18 19 20 20 22 23 24 25 26 26 26 25 22 22 25 27 28 29 30 30 30 31 31 32 33 34 36 37 37 38 38 38 39 39 39 38 38 37 36 36 35 35 35
18 18 19 20 21 22 22 22 24 24 23 24 24 21 24 26 27 28 29 30 30 30 31 31 32 32 32 33 33 34 35 35 35 35 35 35 35 34 34 34 33 33 33 32
19 19 20 20 21 21 20 20 22 22 22 23 22 21 23 25 26 27 27 28 28 29 30 31 30 30 30 31 31 31 31 32 32 32 32 32 32 32 32 32 31 31 30 30
21 21 21 21 21 20 20 19 20 21 21 22 22 22 23 24 24 23 25 26 27 28 29 29 28 28 28 29 28 28 29 29 29 29 29 30 30 30 30 30 29 29 28 27
21 22 22 22 22 21 20 20 21 21 21 22 22 22 22 22 21 22 24 25 26 27 27 27 26 27 27 27 27 27 27 27 27 28 28 27 27 28 27 27 27 27 26 26
21 22 22 22 22 21 20 21 21 22 22 21 21 21 21 21 21 22 22 22 23 24 24 24 25 25 25 25 25 26 26 26 26 26 26 26 26 26 26 26 25 25 25 25
20 21 21 21 21 20 21 21 21 21 20 20 21 20 20 21 21 21 21 22 22 22 22 22 23 23 23 24 24 24 24 24 24 24 25 25 24 24 24 24 24 24 24 24
21 21 21 21 20 20 20 21 21 21 20 20 20 20 20 20 20 20 21 21 21 21 22 22 22 23 23 23 23 23 23 23 23 24 24 24 24 24 23 23 24 24 24 24
22 22 22 21 21 21 21 21 21 21 21 21 20 20 20 20 20 20 20 20 21 22 22 22 22 22 23 23 23 23 23 24 24 24 24 24 24 24 24 24 24 24 24 24
21 22 23 22 22 22 22 22 21 20 20 21 21 20 20 20 20 20 20 20 20 20 21 21 22 22 23 23 23 23 23 23 23 24 24 24 24 24 24 24 24 24 24 25
21 22 23 23 23 23 23 23 23 21 21 20 20 21 21 21 21 21 21 21 21 21 21 21 22 23 23 23 23 24 24 24 24 24 24 24 24 25 25 25 25 25 26 27

GEFSCGP_500_meanwind_078.txt.gz
Wind_Speed
36 38 40 41 43 43 43 44 45 46 46 47 47 48 50 53 55 56 57 56 54 52 51 50 49 48 48 47 46 45 45 45 45 44 43 42 41 41 39 39 39 38 38 37
33 37 38 39 40 41 42 42 42 43 44 45 46 47 48 52 53 55 55 55 54 53 52 51 50 50 50 49 49 48 48 48 47 46 45 45 44 43 43 42 41 41 41 40
30 33 35 36 37 38 39 40 41 40 41 43 44 45 45 48 52 54 54 54 54 53 52 51 51 51 51 50 50 50 50 49 49 49 48 47 46 46 45 45 44 43 43 43
28 30 32 33 34 36 36 37 38 38 39 40 42 42 43 43 48 51 53 53 53 53 52 52 53 52 52 51 51 51 51 51 51 50 50 49 49 48 48 47 47 46 46 46
24 27 30 31 32 33 35 35 35 36 37 38 40 41 41 41 42 46 49 52 53 52 52 53 53 53 53 53 53 52 52 52 52 52 52 52 51 50 50 49 49 48 48 48
22 25 29 30 30 31 33 34 33 34 35 35 36 38 38 38 38 41 45 48 50 52 51 52 53 53 53 53 53 53 53 53 53 53 53 52 52 51 51 51 51 50 50 49
19 24 27 29 29 30 32 33 32 32 34 34 33 35 34 33 34 37 41 44 46 48 49 51 52 52 51 52 52 53 54 53 53 53 53 53 53 53 52 52 52 52 51 50
18 21 25 27 28 28 30 31 32 33 33 33 32 33 31 30 31 34 37 40 42 44 46 47 48 50 51 50 51 51 52 52 52 51 51 51 52 52 52 52 52 51 50 50
17 20 23 25 26 27 29 30 30 31 31 31 31 30 29 29 30 32 34 36 38 41 43 45 46 47 49 50 50 50 50 51 50 50 50 50 50 50 51 50 50 50 50 49
15 19 20 23 25 26 28 29 29 30 30 30 29 28 28 28 28 30 31 34 35 37 39 42 43 45 46 47 49 49 49 49 49 49 49 49 49 49 49 49 49 49 48 48
14 16 18 21 23 24 26 28 28 28 30 29 29 27 26 27 27 28 29 31 33 34 36 38 40 42 44 45 46 47 48 48 49 49 49 49 49 49 49 49 49 49 48 48
13 16 17 19 22 23 25 27 27 27 27 27 27 26 25 25 26 27 28 29 31 33 34 36 38 40 42 43 45 46 47 48 48 49 49 49 49 49 49 49 48 48 47 47
13 16 17 19 21 24 25 25 26 27 27 27 27 26 25 25 25 26 27 28 30 31 33 34 35 37 39 41 43 44 45 46 47 48 49 49 49 49 49 48 48 48 47 47
12 15 17 19 20 22 25 26 26 27 27 27 26 25 23 24 26 27 28 29 29 30 31 33 34 36 37 38 40 42 43 44 45 46 46 47 47 47 47 48 47 47 46 46
14 15 16 18 20 21 25 26 27 28 27 28 26 24 23 25 26 27 28 29 30 30 31 32 33 34 35 36 37 38 40 41 42 43 44 44 45 45 45 45 45 44 44 43
16 17 17 18 20 21 24 25 26 27 28 27 27 24 25 27 27 27 28 29 29 29 30 31 32 33 33 34 35 36 37 39 40 41 42 42 42 42 42 42 42 42 41 41
16 17 19 19 19 21 22 22 23 24 25 26 26 25 27 27 27 26 27 28 29 29 29 30 31 32 33 34 34 35 36 37 38 39 40 40 41 41 41 40 40 40 39 39
17 18 19 19 20 21 20 21 22 23 24 25 25 26 26 26 26 27 28 28 29 29 30 30 31 31 32 33 33 34 35 35 36 36 37 37 38 38 38 37 37 38 38 38
17 18 19 19 20 21 20 20 21 22 23 24 24 24 24 24 24 25 26 27 27 28 29 29 30 30 31 31 32 32 33 34 34 35 35 35 35 35 35 35 35 35 35 35
17 18 19 19 20 20 20 20 21 22 23 23 23 23 23 23 24 24 25 25 26 26 27 28 28 29 29 30 31 31 31 32 32 33 33 33 33 33 33 33 33 33 32 32
16 17 18 19 20 20 20 20 21 22 22 22 23 23 23 23 24 24 24 25 25 25 25 26 26 27 27 28 29 29 29 30 30 30 30 30 31 31 31 31 31 31 31 31
16 16 17 19 20 20 20 20 21 21 22 22 23 23 23 23 23 23 23 23 24 24 24 24 25 25 25 26 26 27 28 28 27 27 27 28 28 28 29 29 29 29 28 28
15 16 17 18 20 21 20 20 20 20 21 22 22 22 22 22 22 22 22 22 23 23 23 23 24 24 25 25 25 25 26 26 26 27 27 27 27 27 27 27 27 27 27 27
16 16 16 17 18 20 21 21 21 21 21 21 22 22 22 22 22 21 22 22 22 22 22 23 23 24 24 24 23 24 24 24 24 25 25 26 25 25 26 26 26 26 27 27
17 17 17 17 19 20 21 21 21 21 21 22 22 22 22 22 22 22 22 22 22 22 22 22 22 22 22 22 23 23 23 23 24 24 25 25 25 25 25 25 26 26 27 27
17 18 18 18 19 21 21 23 22 22 22 22 22 22 22 22 22 23 23 23 23 23 22 22 22 22 22 22 23 23 23 24 24 24 25 24 25 25 26 26 26 26 26 26

GEFSCGP_500_meanwind_084.txt.gz
Wind_Speed
22 28 32 34 36 36 38 41 45 47 48 48 49 48 49 50 51 52 53 54 54 53 53 52 51 51 49 47 46 45 44 43 42 41 40 40 39 39 39 38 38 38 37 37
20 24 28 31 33 35 36 38 41 44 45 46 47 47 47 48 49 50 51 52 53 53 53 52 52 51 50 49 48 46 45 44 43 43 42 42 42 41 41 40 40 40 40 39
19 22 25 28 30 32 34 35 36 38 41 42 43 45 45 45 47 48 50 50 51 52 52 52 52 51 50 50 49 48 47 46 45 44 44 44 44 44 43 43 43 43 43 42
17 21 23 25 27 30 31 33 34 35 36 38 41 42 44 43 45 46 48 49 49 50 51 51 52 51 51 50 49 49 49 49 48 47 47 47 46 46 46 46 46 46 46 45
15 19 21 22 24 27 28 30 32 33 34 34 37 40 40 41 43 43 44 45 46 48 49 50 50 51 51 51 50 49 49 50 50 49 49 49 48 48 48 48 48 48 47 47
12 15 18 20 22 24 26 28 30 30 32 34 34 36 37 38 40 41 42 43 45 46 48 49 50 50 51 51 52 52 51 51 51 51 50 50 50 50 50 50 49 50 49 49
10 14 17 19 20 23 24 26 29 30 31 32 32 34 34 35 37 38 39 41 43 45 47 48 49 49 50 51 52 52 52 52 52 53 53 52 52 52 51 51 51 51 51 51
9 12 15 17 20 21 22 24 26 28 30 31 32 33 33 34 34 35 37 38 41 42 44 46 47 48 48 50 52 53 54 54 54 54 54 54 54 53 53 53 53 53 53 52
9 12 14 16 18 20 20 21 24 25 26 28 30 31 31 32 32 33 34 35 36 38 40 43 45 47 48 49 51 53 54 54 54 54 54 54 55 55 54 53 53 52 53 53
9 11 13 15 18 20 20 21 24 25 24 25 27 28 29 30 29 29 30 32 33 35 36 39 41 43 45 47 48 50 51 52 53 53 54 54 55 55 54 53 53 52 52 52
10 11 12 15 17 18 20 22 24 25 24 24 24 24 26 28 28 27 28 29 30 32 33 35 37 38 40 43 44 46 47 48 50 51 51 51 53 53 53 53 52 52 52 52
11 12 13 15 17 18 19 22 24 25 25 24 24 24 24 25 26 26 27 29 30 30 31 32 33 34 36 39 40 42 44 45 47 48 49 50 51 51 51 51 51 51 50 50
12 13 14 15 17 18 19 21 23 24 25 24 24 25 24 25 26 26 27 28 29 29 29 30 31 32 33 35 37 39 41 43 44 45 46 47 47 47 48 48 49 49 49 49
12 13 13 15 17 18 19 20 22 24 25 25 24 23 23 24 25 26 27 28 28 28 28 29 30 30 31 32 33 35 36 38 40 41 43 44 45 45 46 46 47 47 47 47
12 14 14 14 16 18 19 21 22 24 24 25 23 23 23 25 25 26 26 26 27 28 28 28 29 29 30 31 31 32 33 35 36 37 39 40 41 42 43 44 45 45 45 45
13 14 16 16 16 18 19 20 22 23 24 25 25 24 24 26 26 26 26 26 27 27 28 29 29 29 29 30 30 31 31 32 34 35 36 38 39 40 40 41 41 42 42 42
13 14 15 16 16 18 19 18 20 21 22 24 25 25 25 26 26 26 26 26 27 27 28 29 29 29 30 30 30 31 31 32 33 34 35 36 37 38 39 39 40 40 41 41
14 15 15 15 16 16 17 18 19 20 21 23 24 25 26 26 26 26 26 27 27 28 29 29 29 30 30 30 30 31 31 32 33 33 34 35 35 36 37 38 38 39 39 40
15 15 15 16 16 16 16 17 18 19 21 22 23 24 25 26 26 27 27 27 28 29 29 29 30 30 31 31 31 31 32 32 33 33 34 34 35 35 36 36 37 37 37 37
15 15 15 16 17 17 17 17 19 20 21 22 23 23 24 24 26 26 27 27 28 28 28 29 30 30 30 31 31 32 32 33 33 33 34 34 34 34 35 35 36 36 36 36
15 15 16 17 18 18 19 19 20 21 22 22 23 24 24 24 25 25 26 26 27 28 28 28 28 29 29 30 30 31 31 32 33 33 34 34 35 35 34 34 34 33 33 33
15 15 16 17 18 19 20 20 20 21 22 22 22 23 24 25 25 26 26 26 27 27 27 27 27 28 28 28 29 30 30 31 32 32 33 33 33 33 33 32 31 31 30 30
16 16 16 17 19 20 20 20 20 21 22 22 23 23 24 25 26 26 26 27 27 27 27 27 27 27 27 28 28 29 29 29 30 30 30 31 31 31 30 30 29 29 29 29
18 18 18 18 19 21 21 21 21 22 22 23 23 24 25 26 26 26 27 27 27 27 27 27 27 27 27 28 28 28 29 29 29 29 29 29 29 29 29 28 28 28 28 27
19 19 19 18 19 21 22 22 23 23 23 24 23 24 25 26 26 26 26 27 27 28 27 28 28 28 27 27 27 28 28 27 28 28 28 28 28 27 27 26 26 26 26 26
20 20 20 19 20 21 22 23 24 24 25 26 26 26 26 26 26 26 27 27 27 27 28 27 28 28 27 27 27 27 27 27 27 27 27 27 27 26 26 26 26 26 26 26

GEFSCGP_500_meanwind_090.txt.gz
Wind_Speed
14 19 20 24 27 30 34 37 40 42 45 46 48 48 47 49 50 51 51 50 50 50 48 47 47 47 46 46 44 44 43 42 41 40 38 36 36 36 37 36 36 36 36 35
13 16 19 22 24 28 32 34 37 40 42 44 45 47 47 48 49 49 49 48 49 49 49 47 46 47 47 46 45 45 44 43 42 41 40 40 40 39 39 38 38 38 38 38
11 14 17 19 20 23 28 31 34 37 39 41 43 46 48 47 48 49 47 46 47 47 48 48 47 46 47 47 45 45 45 44 43 42 42 42 42 42 41 40 40 39 39 39
9 14 16 17 18 19 22 27 31 33 37 37 41 43 45 45 46 47 46 44 44 44 45 46 46 47 47 47 47 45 45 44 44 43 43 44 43 43 43 43 43 42 42 41
8 13 15 15 17 19 19 23 27 31 34 35 36 40 42 42 43 45 45 45 45 44 43 44 45 45 46 48 48 48 47 46 45 44 44 45 45 45 45 45 44 43 43 43
8 12 13 14 16 17 17 20 23 28 30 32 32 36 39 39 40 41 42 42 43 45 45 44 45 45 46 46 47 48 48 48 47 47 47 47 47 46 46 46 46 46 46 46
8 10 11 12 13 15 16 18 20 23 26 27 29 32 34 34 37 39 41 41 40 42 43 43 44 44 44 44 45 46 47 47 48 48 48 47 48 48 48 48 48 48 48 47
7 8 10 11 12 13 15 17 19 21 24 25 27 28 29 31 33 36 39 40 40 39 40 41 42 43 44 45 45 45 46 46 47 48 49 49 49 49 50 50 50 50 50 50
5 7 9 9 10 12 14 16 17 20 21 23 24 26 28 29 31 33 34 36 38 38 38 40 41 42 43 45 46 46 46 47 48 48 49 50 52 52 52 52 52 52 52 53
4 6 8 8 10 12 13 15 16 18 19 21 22 24 25 26 28 31 32 33 35 37 37 38 38 40 41 43 44 45 47 47 48 49 50 50 51 51 53 53 53 53 54 54
3 6 8 8 9 11 12 14 16 18 19 20 21 22 23 24 26 28 31 32 33 34 35 36 37 37 39 40 42 43 44 46 47 48 49 50 50 51 51 52 53 53 53 54
2 5 8 9 10 11 12 13 14 16 17 18 19 20 21 22 24 27 28 30 31 32 32 33 35 36 37 38 40 41 42 43 45 46 48 49 50 50 51 51 52 53 53 52
2 3 6 8 10 12 12 14 15 15 16 17 17 18 20 21 22 24 26 27 29 30 31 32 33 34 36 37 38 39 40 41 43 44 46 47 47 48 49 49 50 51 52 51
3 2 4 6 9 11 12 14 16 17 17 17 17 17 19 20 22 23 25 27 29 30 30 31 32 33 35 36 37 37 38 40 41 42 43 44 45 46 47 47 48 48 49 49
4 2 4 6 8 10 12 14 15 17 18 19 18 19 19 22 24 25 25 26 28 29 30 31 32 33 34 35 35 36 37 38 39 39 40 41 42 43 44 45 46 46 46 46
5 4 5 6 9 10 12 13 14 16 17 18 19 20 21 23 24 26 27 27 28 29 30 30 31 32 33 34 34 35 35 36 37 38 38 39 39 40 40 41 42 42 43 43
6 5 5 6 8 10 12 14 15 16 18 19 20 20 21 23 24 26 28 29 29 29 29 30 31 32 33 34 34 34 34 35 36 37 37 38 38 38 39 39 39 40 40 40
8 6 6 7 8 9 11 13 15 17 18 19 20 21 22 24 25 25 26 28 29 30 30 31 31 32 33 33 34 34 35 35 35 36 36 37 37 37 37 38 38 38 38 38
11 9 7 7 8 9 11 13 14 16 17 18 20 21 22 23 24 25 26 27 28 29 30 31 32 32 32 33 33 34 34 35 35 35 36 36 37 37 37 38 38 38 38 38
13 11 10 9 10 10 11 13 14 15 15 18 19 21 22 23 24 25 27 27 28 28 29 31 32 33 33 33 34 34 34 35 36 36 37 37 38 38 38 38 38 38 38 38
13 12 12 12 12 11 13 14 15 15 17 18 19 21 22 23 24 25 27 28 29 30 30 31 32 33 33 34 34 34 34 35 36 36 37 37 37 37 37 37 37 37 38 38
14 13 14 14 14 13 14 14 15 17 18 19 21 22 22 23 24 25 26 28 28 30 31 31 32 33 33 34 34 34 34 35 35 35 36 36 36 36 36 36 37 37 37 37
15 15 15 15 15 16 16 15 16 18 20 21 22 24 24 24 25 26 27 28 29 30 31 32 32 33 33 33 33 33 34 34 34 34 34 35 36 36 36 37 37 37 37 36
16 16 16 17 17 18 17 17 18 19 20 21 23 23 24 25 26 26 27 28 29 30 31 31 31 32 32 32 32 32 33 33 33 33 34 34 34 35 35 35 35 34 34 34
17 18 18 18 19 19 19 20 20 20 21 22 23 23 24 24 26 27 27 28 28 29 30 31 32 32 32 32 33 33 32 32 33 33 33 33 33 34 34 33 33 33 33 32
19 19 20 20 21 21 21 22 22 22 22 22 23 23 24 24 25 26 28 28 28 28 29 30 31 32 32 32 32 33 33 32 32 32 33 33 33 33 33 33 33 32 32 32

GEFSCGP_500_meanwind_096.txt.gz
Wind_Speed
4 5 7 10 12 15 17 19 23 28 33 37 39 40 41 43 47 49 49 49 50 50 48 46 45 45 44 41 42 43 44 44 44 44 43 41 39 39 38 36 36 35 35 34
2 4 6 8 11 13 16 18 21 25 29 32 35 37 38 39 43 46 48 48 48 48 48 46 45 45 42 41 40 40 41 39 41 43 42 41 39 39 39 37 37 37 36 36
1 3 4 6 8 11 14 16 19 22 26 29 33 34 36 36 39 43 45 47 47 46 46 46 45 45 43 42 40 40 40 39 39 41 41 41 41 41 41 40 40 40 38 37
2 1 4 6 6 8 11 15 17 20 22 26 31 32 33 34 37 40 43 45 46 45 45 45 45 45 45 43 42 42 41 40 40 40 41 42 42 41 40 40 41 41 41 40
3 2 3 5 6 7 9 13 15 17 20 23 27 28 30 31 35 38 40 42 43 44 44 44 45 45 45 44 44 43 43 43 41 39 39 41 41 41 42 41 41 42 42 42
3 3 4 4 4 5 7 10 12 15 17 20 23 26 27 29 33 35 37 39 41 42 43 43 44 45 46 45 44 44 43 43 43 42 41 40 41 42 42 42 42 42 43 42
4 3 2 2 3 4 5 7 9 13 16 17 19 21 23 25 29 33 36 37 39 40 42 43 43 43 45 45 45 44 45 44 44 44 45 44 43 43 44 43 43 43 43 44
4 3 2 2 3 4 5 6 8 11 13 14 17 18 19 22 25 30 34 35 37 40 42 42 43 43 44 45 45 45 45 45 44 44 44 44 44 43 43 44 45 45 45 44
2 1 1 2 3 3 4 5 8 10 12 13 15 16 17 20 22 26 31 33 34 37 39 40 41 43 44 44 44 44 44 44 45 45 45 44 44 44 44 45 45 45 45 45
2 0 2 2 2 2 3 4 5 8 10 11 13 14 15 18 20 23 26 30 32 35 38 39 40 42 43 43 43 44 44 45 45 46 46 47 46 46 46 46 46 47 47 48
2 0 1 1 2 2 3 3 4 5 7 9 11 12 15 17 19 21 23 27 30 33 35 37 38 39 40 41 43 44 45 45 45 46 47 47 47 48 48 48 48 49 50 49
4 2 1 1 2 2 3 3 4 5 6 8 10 11 13 16 17 20 23 25 28 30 33 35 38 39 40 41 42 43 44 45 46 46 47 47 48 48 49 49 49 49 49 49
5 2 1 2 2 2 3 4 6 6 7 9 11 11 14 16 18 20 22 24 26 28 30 33 36 39 40 41 42 43 44 44 45 45 46 46 47 48 49 49 49 49 49 49
6 4 2 2 3 4 4 5 6 8 8 9 11 11 13 15 18 19 21 23 25 27 29 32 34 37 39 40 41 42 43 44 44 45 45 46 47 47 47 48 48 48 49 49
6 5 3 3 3 4 5 6 8 9 10 11 12 13 14 16 17 19 21 23 25 28 30 32 34 36 38 40 41 43 44 44 44 45 45 46 47 47 47 47 47 47 47 47
7 6 5 4 4 4 5 6 7 9 9 11 12 13 16 18 19 20 22 24 25 27 30 31 33 35 38 40 41 42 44 45 45 45 46 46 47 47 47 47 47 47 47 46
8 7 6 5 5 5 6 7 8 9 10 11 13 15 17 19 21 24 25 26 28 30 31 33 34 35 37 40 42 43 44 44 45 45 46 47 47 47 47 47 47 47 47 46
9 9 7 7 7 7 7 8 9 9 10 12 13 15 17 19 21 24 26 28 29 30 32 33 34 36 37 38 40 42 43 44 44 45 45 46 46 46 45 45 46 45 45 44
10 10 9 9 9 8 9 10 10 10 11 13 14 16 18 19 21 24 26 29 31 31 32 33 34 35 35 37 38 40 41 42 43 43 44 44 44 45 44 44 44 44 44 43
10 10 11 11 11 11 12 12 12 12 12 14 15 17 18 20 22 23 26 28 29 31 32 33 34 35 36 36 37 38 39 40 41 42 43 43 43 44 43 43 43 42 42 42
10 11 11 12 12 12 14 14 14 13 14 16 16 17 19 21 23 24 26 28 29 29 31 32 34 35 36 37 38 38 39 39 39 40 41 41 41 42 42 42 41 41 41 41
11 12 12 13 14 14 15 16 15 16 17 18 19 20 21 22 24 26 27 28 29 29 30 31 33 34 36 38 38 38 39 39 39 40 40 41 41 41 41 41 41 41 41 40
11 13 13 14 15 16 17 17 18 19 19 20 21 21 22 24 25 26 27 27 28 29 30 31 32 34 35 36 36 36 37 38 39 39 39 40 40 40 40 41 41 41 40 40
12 14 15 15 17 18 18 19 20 20 21 21 22 23 23 25 26 27 27 28 28 29 30 31 32 32 32 33 34 35 35 35 36 37 38 38 38 39 40 40 40 40 39 39
14 15 16 17 18 19 20 21 22 22 22 23 24 25 25 26 27 27 27 27 27 28 29 30 31 30 31 32 33 34 34 34 34 35 36 36 37 38 38 38 38 38 38 38
15 16 17 18 20 21 22 23 23 24 24 25 26 27 27 28 28 28 27 27 27 28 29 29 29 30 31 32 32 32 33 33 33 34 34 35 35 36 37 37 36 36 37 36

GEFSCGP_500_meanwind_102.txt.gz
Wind_Speed
6 5 5 4 6 6 5 6 10 13 14 16 21 24 26 29 34 36 39 43 46 45 46 46 44 45 45 45 47 46 47 49 51 51 50 50 50 49 47 46 44 43 43 42
4 4 4 4 4 5 3 5 9 10 12 13 16 20 23 28 33 34 36 40 43 44 45 45 44 43 43 42 44 46 45 47 50 50 50 51 51 50 49 48 47 45 44 45
3 4 4 4 4 2 1 3 6 7 9 11 13 14 19 26 31 33 35 37 39 43 42 43 42 43 43 43 43 44 43 46 48 50 49 50 50 50 50 50 48 47 46 46
3 2 3 3 3 1 3 5 5 6 7 9 11 13 16 21 26 28 32 34 36 40 40 39 40 41 41 42 42 42 42 42 44 46 49 49 49 49 49 49 47 46 46 46
3 2 3 3 3 4 5 5 6 5 6 7 9 10 13 18 21 23 27 30 34 37 39 39 38 39 39 40 39 40 41 41 41 43 45 46 47 47 47 49 48 46 47 46
3 3 4 5 5 6 6 5 5 5 6 6 8 8 12 17 19 19 21 24 30 34 36 38 38 38 37 37 38 37 39 40 40 42 44 45 46 46 47 48 47 47 46 46
5 5 5 7 7 6 6 5 6 5 5 5 6 7 10 14 16 17 18 22 26 30 32 35 36 37 37 36 36 36 37 38 38 40 42 43 45 45 45 46 46 46 46 44
6 5 5 7 8 7 7 6 6 5 4 5 4 5 6 9 13 15 17 19 22 25 28 30 34 35 36 35 36 36 36 37 38 38 39 40 42 43 43 44 44 45 46 46
5 6 6 6 7 7 7 6 5 5 5 5 4 4 4 6 8 12 14 17 20 22 25 27 30 33 35 35 35 36 36 38 39 39 40 39 41 43 43 45 46 47 47 47
5 5 5 6 6 6 6 6 7 6 5 5 4 3 3 5 7 9 11 13 17 20 22 25 29 31 33 34 34 35 35 37 38 39 40 39 39 41 41 42 43 45 46 47
6 6 6 5 6 5 5 5 5 4 4 4 4 2 3 4 5 7 9 10 13 16 20 23 26 30 32 34 35 36 36 36 38 39 40 40 40 41 40 40 41 41 42 44
6 6 6 5 5 5 5 5 4 4 4 3 3 3 3 4 6 6 8 10 13 15 17 20 23 27 29 32 34 36 37 37 38 39 38 39 40 42 43 42 41 42 42 43
6 6 6 5 5 5 5 4 4 3 3 2 4 4 5 6 8 9 11 13 15 17 19 21 22 25 27 29 32 34 36 37 38 39 39 39 40 41 42 43 43 43 43 43
7 6 6 5 5 5 4 4 3 2 2 2 4 5 6 7 9 10 11 13 15 17 19 21 22 24 26 28 30 33 35 37 38 39 39 40 40 41 41 42 43 44 44 45
9 8 7 7 7 6 5 5 4 3 2 1 2 4 5 6 7 8 10 12 14 16 18 21 23 25 27 29 31 33 36 38 39 40 40 40 41 41 42 42 43 44 44 45
10 9 9 9 9 8 6 5 4 4 3 2 1 1 3 4 5 7 9 11 14 16 19 21 23 25 27 30 32 34 36 38 39 40 41 42 42 43 43 43 44 44 45 46
10 10 10 9 8 7 6 5 4 3 2 2 2 3 4 5 7 9 11 13 15 17 19 22 24 26 28 30 32 34 36 37 38 40 41 42 43 44 44 44 45 46 47 47
9 9 9 9 8 7 6 5 4 3 2 4 5 5 6 7 9 10 12 14 16 18 20 22 25 27 30 31 33 35 35 37 38 40 41 43 43 43 44 45 45 45 46 46
8 8 7 7 8 8 7 6 5 5 5 6 7 8 9 10 11 13 14 15 18 20 22 24 27 29 32 33 34 35 36 37 39 40 41 42 42 43 44 44 45 44 44 44
7 7 7 7 7 7 7 7 7 6 6 8 9 10 11 13 14 15 16 18 20 22 24 26 28 30 32 33 34 36 36 37 38 39 40 41 42 42 42 43 43 44 44 43
6 6 6 6 6 7 8 8 8 8 9 10 11 12 13 15 16 17 19 20 22 24 26 27 28 29 30 32 33 34 35 36 37 38 39 40 41 41 42 42 42 43 43 43
5 5 5 5 6 7 8 9 10 10 11 12 13 14 15 17 18 20 21 23 24 25 26 27 27 28 29 31 32 33 34 35 36 37 38 38 38 39 40 41 41 41 41 41
3 4 5 5 6 8 9 10 11 12 13 14 15 16 17 19 20 21 23 24 25 26 27 27 27 27 28 29 30 31 32 33 34 35 36 37 37 38 39 39 39 39 39 39
1 3 4 5 7 8 10 12 13 14 15 16 17 18 19 20 22 23 24 26 26 27 28 28 28 28 29 29 29 29 30 31 33 34 35 36 37 37 36 37 37 38 38 38
3 4 5 6 8 9 11 13 14 16 17 18 19 20 21 23 24 25 26 27 28 29 30 30 30 30 31 31 30 30 30 31 32 33 34 35 36 37 36 36 37 37 37 37
6 6 6 7 9 10 12 14 16 17 18 20 21 22 23 25 26 27 28 29 29 30 31 31 31 31 31 31 30 30 30 30 31 32 33 34 34 35 36 35 35 35 36 37

GEFSCGP_500_meanwind_108.txt.gz
Wind_Speed
7 7 7 7 7 7 7 8 8 8 9 12 12 14 16 18 22 24 26 29 32 33 38 41 44 46 48 46 49 51 55 54 54 53 52 52 53 52 52 50 50 50 49 47
6 6 6 6 6 6 6 6 6 7 8 9 10 11 12 13 15 19 22 23 26 28 31 35 39 42 45 43 44 47 50 51 51 53 53 51 51 52 53 50 49 49 49 49
5 5 5 5 5 4 5 5 3 4 3 4 6 7 7 9 11 13 15 17 20 23 27 30 34 38 40 42 43 43 46 48 47 49 51 52 50 51 52 52 51 50 51 51
3 3 4 3 4 4 3 2 2 2 2 2 1 2 5 7 9 11 12 14 17 20 23 27 30 34 34 35 39 40 42 44 45 44 46 49 49 49 50 51 51 51 51 52
1 1 2 2 1 1 0 0 1 2 3 2 1 1 2 4 6 8 9 10 14 16 18 23 27 30 31 32 34 36 38 41 41 42 43 46 47 46 46 47 48 50 51 50
1 2 2 2 2 2 3 3 4 4 3 3 3 2 3 2 3 5 7 8 10 12 16 19 24 26 26 27 28 30 32 36 38 38 40 42 45 45 44 44 44 46 48 49
3 4 4 4 4 4 4 4 5 5 4 5 4 4 3 3 2 2 5 7 8 9 13 16 20 22 23 23 23 24 28 33 35 36 38 40 43 43 43 43 44 46 47 48
5 5 6 6 5 5 4 4 4 5 5 5 4 4 4 3 1 0 2 2 4 7 9 12 14 18 21 22 21 20 23 27 32 34 36 39 41 41 43 44 44 45 46 47
5 6 6 6 5 5 5 5 5 5 5 5 4 3 3 3 1 1 1 0 2 4 6 9 10 14 16 19 20 20 21 23 26 29 33 37 38 39 41 44 45 46 46 46
5 5 5 5 5 5 5 5 6 6 5 5 5 3 2 3 2 1 3 2 2 2 3 6 8 11 14 17 19 20 19 21 23 26 28 32 35 36 38 41 43 43 45 45
5 4 4 4 5 5 5 6 5 5 4 4 4 4 4 3 2 3 4 3 2 1 3 5 7 8 11 16 18 20 20 21 23 24 26 29 32 34 36 38 40 43 44 44
5 4 4 5 5 4 5 5 4 4 4 4 4 3 3 3 3 2 3 3 2 1 2 5 8 9 11 14 17 20 21 21 23 24 26 28 30 33 35 36 38 40 43 44
5 4 4 4 4 4 4 3 3 3 3 3 3 3 3 3 3 3 3 3 3 4 4 6 8 9 11 13 16 19 21 23 24 26 28 29 30 32 34 36 37 39 41 44
5 4 3 3 3 3 3 4 3 3 3 3 3 3 4 4 3 4 5 5 5 5 5 6 6 7 9 12 15 19 22 24 25 27 30 31 32 32 33 35 37 38 41 42
5 4 4 4 4 4 4 4 3 3 2 2 3 3 3 3 4 5 5 5 6 6 6 7 8 9 11 13 15 18 21 24 25 26 29 31 34 34 35 36 37 38 40 41
5 5 5 5 5 4 4 3 3 2 1 2 3 3 4 5 5 5 6 6 7 8 9 10 11 12 14 15 17 19 21 23 25 27 29 32 34 35 36 37 37 38 40 41
6 6 5 5 5 5 5 4 3 3 2 3 3 3 4 5 6 6 7 8 9 10 12 13 14 15 17 18 19 20 22 25 28 30 32 33 35 36 37 37 38 39 39 41
6 6 6 6 6 6 6 6 4 3 3 2 3 4 5 6 7 8 9 10 11 12 14 15 16 17 19 21 22 23 24 27 29 31 32 34 35 36 38 39 39 40 41 41
7 7 6 6 6 6 6 6 6 5 4 3 4 5 6 7 8 9 10 12 14 15 16 17 18 19 20 22 24 26 26 28 29 30 33 35 36 37 38 40 41 41 42 42
6 6 5 5 5 5 5 5 6 6 6 5 5 6 7 8 9 10 12 14 16 17 19 20 21 22 23 24 26 28 29 30 31 33 34 35 36 36 37 38 39 40 40 40
5 4 4 4 4 4 4 4 5 5 6 7 7 8 9 10 11 12 14 16 17 19 21 22 23 24 25 26 28 30 31 32 33 34 34 34 34 35 35 37 38 39 40 40
4 3 3 3 3 3 4 4 5 6 7 8 8 9 10 11 13 14 15 17 19 21 22 23 24 26 27 28 30 31 32 33 33 33 33 33 34 35 36 37 39 39 40 40
4 3 3 2 1 2 3 4 5 6 7 8 9 11 12 13 15 16 17 19 21 22 24 25 26 27 29 30 32 33 33 34 34 34 34 33 33 35 36 37 37 38 38 38
6 4 4 3 2 1 2 4 5 6 8 9 10 12 14 15 17 18 20 21 23 24 26 27 28 29 31 32 34 35 35 34 34 33 33 33 33 34 35 36 35 36 37 37
8 7 6 5 4 4 4 5 6 7 8 10 12 13 15 17 18 19 21 22 24 25 27 28 30 31 33 34 35 36 36 35 35 34 34 34 35 35 35 35 35 35 34 35
10 9 9 8 7 7 7 7 7 8 9 11 13 15 16 18 20 21 23 25 26 27 29 30 32 33 35 36 37 37 37 36 36 37 36 36 37 37 35 35 34 34 34 34

GEFSCGP_500_meanwind_114.txt.gz
Wind_Speed
12 12 12 12 11 10 9 9 9 9 10 10 9 11 13 15 18 21 23 24 25 29 33 38 41 45 48 49 48 49 50 53 55 55 54 53 51 51 51 51 53 53 51 50
9 10 11 10 8 7 7 7 6 5 5 5 3 5 7 9 12 14 16 18 20 24 27 32 34 38 42 45 45 47 49 51 53 53 53 51 51 49 48 50 51 51 51 50
8 9 9 8 7 5 4 4 4 3 3 2 3 2 3 4 6 9 12 14 18 21 24 25 29 34 37 39 42 45 48 49 49 50 51 49 49 48 48 49 50 48 50 52
8 7 6 6 6 5 5 4 3 2 1 1 1 1 1 1 2 4 6 9 13 17 21 22 25 28 33 36 38 41 43 45 46 47 48 49 48 47 46 47 47 48 49 51
6 5 6 6 6 6 5 4 3 3 2 3 3 2 2 0 1 1 3 4 8 13 16 19 22 25 28 31 33 37 40 41 43 43 44 46 45 45 45 46 47 49 49 49
6 6 7 7 6 6 6 4 4 4 5 5 4 3 4 3 1 0 1 2 4 6 10 12 15 18 22 25 28 30 34 37 39 39 41 44 44 45 45 46 47 47 48 47
8 8 7 7 6 6 5 5 5 7 6 5 4 3 3 4 3 2 3 4 5 5 5 6 7 10 14 17 21 24 27 31 34 34 37 40 41 42 42 42 43 44 46 47
8 8 8 7 6 6 6 5 5 5 5 6 5 4 4 4 5 5 4 5 5 5 4 3 4 6 9 12 15 18 20 24 27 28 31 34 38 40 41 41 41 42 43 44
8 8 8 7 6 6 6 6 6 5 6 6 6 6 6 6 7 6 6 6 6 5 4 4 5 5 6 7 10 12 14 18 21 24 26 27 29 32 35 38 39 40 41 43
8 8 8 7 6 6 6 6 6 7 7 8 8 7 6 6 7 7 7 7 6 6 6 6 4 2 2 3 3 6 8 12 16 20 22 23 24 28 31 34 36 37 38 41
7 6 7 7 6 6 7 7 6 6 7 7 7 6 6 6 7 8 7 6 6 6 7 6 5 3 2 2 2 4 6 9 12 15 18 19 20 23 27 30 33 36 38 40
6 6 6 6 6 7 8 7 6 6 6 6 6 7 6 6 7 7 7 7 8 7 6 5 3 3 2 0 1 3 5 7 10 12 14 15 17 20 23 27 30 34 38 41
7 6 6 6 6 7 8 8 7 6 6 6 7 8 7 7 7 7 8 8 8 7 6 6 5 4 3 1 1 2 4 7 9 10 12 14 16 18 22 25 29 33 37 40
7 7 7 7 7 7 8 8 7 7 6 7 7 8 8 7 7 7 7 8 7 6 6 7 6 5 5 4 3 2 3 5 7 10 11 13 16 18 21 25 28 32 35 38
6 7 7 7 8 8 8 8 7 6 5 5 6 6 6 6 7 7 6 6 6 5 5 6 5 5 5 5 4 5 6 7 9 11 13 15 17 20 23 26 28 31 34 36
7 8 8 8 8 7 7 7 7 6 5 4 4 4 4 4 4 5 5 4 4 4 4 4 4 4 5 6 6 7 8 9 11 12 15 18 21 23 25 28 30 32 35 38
6 7 7 7 6 6 7 6 6 5 4 3 3 3 3 3 3 3 3 3 3 4 4 5 6 6 6 8 8 9 11 12 14 16 18 20 22 24 27 30 32 34 35 38
5 6 6 6 6 5 5 5 5 5 4 3 2 1 1 2 2 2 2 3 3 4 5 6 7 8 9 9 10 12 15 16 18 20 22 24 25 26 29 31 33 34 35 37
5 5 5 4 4 4 4 4 4 4 3 3 2 2 2 1 1 1 2 3 4 6 7 8 10 11 13 14 14 15 17 19 20 22 24 26 28 30 31 32 33 34 34 35
5 4 3 3 3 3 4 4 5 5 5 4 4 3 3 3 2 2 3 4 5 7 9 10 11 13 15 16 17 18 20 21 23 25 27 29 31 33 34 35 35 34 34 35
6 5 4 3 3 3 4 4 4 4 4 4 3 3 4 4 4 4 4 5 6 8 10 11 13 15 17 18 20 21 23 24 26 28 30 32 33 35 36 36 36 35 35 35
7 6 6 5 4 3 3 2 3 2 2 2 2 3 4 5 5 5 6 6 8 10 12 14 15 17 18 20 22 24 26 27 29 31 33 35 36 37 37 37 36 36 35 35
8 7 7 6 6 5 4 3 2 1 1 1 2 3 4 5 6 7 8 8 10 12 13 15 17 19 20 22 23 25 27 29 32 34 36 37 37 38 38 38 37 37 37 37
10 9 8 8 8 7 6 5 4 3 3 3 4 4 5 7 8 9 9 10 11 13 15 17 19 21 22 24 26 27 29 31 34 36 37 37 38 39 39 39 38 38 38 38
12 11 11 10 10 10 9 8 7 6 6 6 6 6 7 8 9 11 12 12 14 15 17 19 21 23 25 26 28 29 31 33 35 37 38 38 39 39 39 39 39 39 39 39
14 14 13 12 12 12 11 11 10 10 9 9 9 9 10 11 12 13 14 15 16 18 19 21 23 24 26 28 29 31 33 35 37 38 39 40 40 40 40 39 39 39 39 40

GEFSCGP_500_meanwind_120.txt.gz
Wind_Speed
13 14 14 16 17 18 18 18 17 17 17 17 17 17 19 20 23 25 27 30 32 34 36 39 42 45 48 50 51 52 54 55 56 56 55 55 54 53 50 49 49 48 46 45
10 11 12 13 13 13 14 13 12 11 11 12 12 11 13 15 18 20 22 25 27 30 32 35 38 43 45 47 48 49 50 51 53 55 55 54 54 53 51 49 49 48 47 47
8 9 10 10 10 11 11 11 10 9 9 9 9 8 9 10 12 14 17 20 22 24 26 27 31 35 40 43 45 47 49 49 49 50 51 53 54 53 52 50 48 48 48 48
6 7 7 8 9 9 9 9 9 9 8 8 8 6 6 8 9 10 12 13 14 16 17 19 22 27 33 36 39 43 46 48 47 47 48 50 51 51 51 50 48 48 46 46
6 5 5 6 7 8 8 8 8 8 7 7 7 6 6 7 7 8 8 10 9 12 13 15 17 22 27 30 32 36 39 41 43 44 46 47 48 49 50 49 47 46 45 44
4 4 4 5 6 7 6 6 6 6 6 6 6 5 4 5 5 4 4 5 6 7 8 11 14 17 21 25 29 31 34 36 37 39 41 44 45 46 47 47 46 45 44 44
3 3 3 4 5 6 5 5 5 4 4 4 4 3 2 2 3 3 3 3 3 2 4 6 9 12 16 20 24 27 30 33 34 35 37 39 41 44 45 46 46 45 44 44
3 3 3 3 4 4 4 4 4 3 3 3 2 1 1 2 2 2 2 3 2 1 2 3 5 7 10 13 16 20 24 27 30 31 32 34 37 40 42 43 44 42 42 41
4 4 3 2 3 3 4 3 2 3 2 2 2 1 1 2 2 2 2 3 3 2 1 1 2 4 7 10 11 14 17 20 23 26 28 32 34 36 37 38 40 41 40 39
3 3 2 2 3 3 4 3 2 2 2 1 1 1 2 1 1 2 2 3 4 4 3 3 2 2 4 6 7 9 10 13 16 19 23 27 31 33 34 35 37 39 39 39
2 2 2 2 3 4 4 3 3 2 2 1 0 1 2 1 1 1 1 1 2 4 4 5 5 4 3 2 3 5 7 8 10 13 16 20 25 29 32 33 33 36 37 37
1 1 2 2 2 3 4 4 3 3 2 1 1 2 2 1 1 1 1 2 2 3 4 4 4 4 4 3 2 3 4 6 7 10 11 12 15 20 25 27 29 31 33 34
1 1 1 1 2 3 4 4 4 3 2 1 0 1 1 1 1 2 2 2 3 3 4 4 4 3 2 2 1 1 3 4 5 6 7 9 11 14 19 22 25 27 28 30
2 2 1 1 1 2 3 3 3 3 3 1 1 1 1 1 1 2 2 2 3 3 3 3 4 3 2 2 2 1 1 2 3 4 5 7 9 12 15 17 21 25 27 28
2 3 2 1 2 2 2 3 3 2 2 1 1 1 1 1 1 1 1 2 2 1 2 2 3 3 3 3 3 3 2 2 3 4 5 7 8 11 13 16 19 23 26 29
2 2 1 1 1 2 2 2 2 2 1 1 1 1 1 2 1 1 1 1 0 2 2 3 3 3 3 4 4 4 4 5 6 6 7 8 10 11 13 16 19 22 26 29
1 1 1 1 1 1 1 2 2 1 1 1 1 0 1 2 2 2 2 2 2 3 3 3 4 5 5 5 5 5 5 6 7 8 9 11 13 14 15 18 20 23 25 28
3 3 2 1 1 1 1 2 2 2 2 2 1 0 1 2 2 3 3 3 3 3 4 4 5 5 6 6 7 8 8 9 10 11 12 14 16 18 19 20 23 25 27 29
4 4 3 3 3 2 2 2 2 2 2 2 1 1 2 2 3 3 4 4 4 5 6 6 7 7 7 7 9 10 11 12 13 14 16 17 19 21 22 23 25 27 29 31
6 6 5 5 4 4 3 4 4 4 4 4 3 3 3 4 4 4 4 4 4 5 7 7 8 8 8 9 10 12 13 15 16 17 19 20 21 22 24 25 27 29 32 34
8 8 7 7 7 6 6 6 6 6 6 6 5 5 5 5 5 5 5 5 5 6 7 8 9 9 10 11 12 14 16 17 19 20 22 23 23 25 27 29 31 33 34 35
10 10 10 10 9 9 8 8 7 6 6 6 6 6 6 6 6 6 7 7 7 8 9 10 10 11 13 14 15 17 18 20 21 23 24 26 27 28 30 32 33 35 37 37
13 12 12 12 12 11 11 10 9 8 7 7 6 7 7 7 7 8 9 10 10 10 11 11 12 13 15 17 18 20 21 23 24 25 27 28 29 30 32 33 35 37 38 39
15 15 15 15 15 14 13 12 12 11 10 10 10 10 10 10 10 11 11 12 12 13 13 14 15 16 17 19 21 22 24 25 26 27 28 29 30 32 33 35 36 38 38 39
16 16 16 15 16 15 15 14 14 14 14 14 13 13 13 13 13 14 14 14 15 15 16 17 18 19 20 21 22 24 25 26 27 29 30 31 32 34 35 37 38 39 40 41
17 17 17 17 17 17 17 18 18 18 17 17 16 17 17 17 17 17 17 17 18 18 18 19 19 21 22 23 24 25 26 28 29 31 32 33 35 36 37 39 40 41 42 42

GEFSCGP_500_meanwind_126.txt.gz
Wind_Speed
12 13 14 16 17 19 20 21 22 22 22 23 24 24 25 26 27 29 30 32 33 35 37 39 40 41 43 45 48 50 51 52 53 55 55 56 56 55 54 53 52 51 50 49
9 10 11 13 15 16 17 17 18 18 19 19 19 20 20 21 22 23 25 27 29 31 33 34 35 37 39 42 45 49 51 52 52 53 54 55 55 55 54 53 53 52 51 50
7 8 8 9 10 12 14 14 15 15 15 16 17 17 17 18 18 19 21 22 24 25 28 30 32 34 35 37 41 45 47 49 50 51 52 53 54 54 53 53 53 53 53 52
6 6 7 7 8 9 11 12 13 13 13 13 14 13 14 14 14 15 16 17 19 21 22 24 25 28 30 32 35 39 42 45 47 49 51 53 53 52 51 51 51 52 53 53
4 5 5 6 6 7 8 9 10 11 11 11 12 11 11 12 12 12 12 13 15 16 16 17 20 22 24 26 30 33 37 40 42 45 48 51 51 51 51 50 49 50 51 51
4 3 3 4 4 5 6 6 7 8 9 9 9 10 10 9 9 10 10 11 12 12 13 14 16 18 20 21 24 27 31 35 37 40 43 46 48 49 49 49 49 49 49 50
4 4 3 4 4 4 5 5 6 6 6 7 7 7 6 6 7 8 9 10 10 11 11 12 13 15 16 17 18 19 22 27 31 33 37 40 42 44 46 47 47 47 47 48
5 4 3 3 3 4 4 4 4 5 5 6 6 6 6 5 6 7 8 8 8 9 11 12 12 12 12 13 14 16 18 20 24 26 30 34 36 39 41 43 44 45 45 45
4 3 3 3 3 3 3 3 3 3 4 5 5 5 6 6 5 6 6 7 7 7 8 9 10 11 11 10 10 13 15 17 20 23 26 29 31 33 36 38 39 40 41 41
5 4 3 2 2 2 2 2 2 2 3 3 3 4 5 5 5 5 5 6 6 4 5 5 5 6 7 7 8 9 11 14 17 19 22 24 26 29 32 34 35 36 38 40
6 6 4 3 1 1 1 1 1 1 2 2 3 4 5 5 4 4 5 4 3 3 2 1 3 4 4 5 6 8 9 11 14 15 16 18 21 24 28 30 32 33 34 36
6 6 5 4 3 2 2 2 1 1 1 1 2 3 4 4 4 4 4 3 2 2 1 1 1 1 2 3 4 5 5 7 9 12 13 15 17 20 23 25 27 29 31 32
6 5 5 5 4 3 2 1 0 1 1 1 1 2 2 2 3 2 2 2 2 1 1 2 1 0 1 1 3 4 4 5 7 10 12 14 16 17 19 21 23 25 27 29
5 4 4 4 4 4 3 2 1 1 1 2 2 1 1 1 2 2 2 2 1 2 2 2 2 2 1 0 2 3 4 5 6 8 10 12 13 15 17 18 21 23 25 27
4 4 4 4 4 3 3 3 3 3 2 2 2 2 2 1 1 1 0 1 1 2 3 3 3 3 3 3 2 2 3 4 5 6 8 10 12 13 15 16 18 20 23 25
4 4 4 3 3 3 2 2 2 3 3 2 2 2 2 1 0 0 0 1 2 2 2 2 3 4 5 5 5 5 4 4 5 6 7 9 11 12 14 15 17 18 20 23
4 4 4 3 3 3 2 2 2 1 2 2 3 3 3 2 1 1 1 1 2 3 3 4 5 5 5 6 7 6 6 6 7 8 9 9 11 13 14 16 17 18 20 22
5 5 5 5 5 4 4 4 3 2 2 2 3 4 3 3 3 3 2 3 3 4 5 6 6 6 7 8 9 9 9 10 10 10 11 11 12 14 16 17 18 20 22 24
6 6 6 6 6 5 5 4 4 4 4 3 4 4 4 4 4 4 5 6 6 6 6 6 6 7 7 8 9 10 11 12 11 11 12 12 14 16 18 19 20 22 23 25
7 8 7 7 7 6 6 5 5 5 5 4 4 4 4 5 5 5 6 6 7 7 7 7 8 8 9 10 11 11 11 12 13 13 14 15 16 18 19 20 22 24 26 27
9 8 8 8 8 7 7 7 7 7 6 6 6 6 6 6 6 6 7 7 8 9 9 9 10 10 11 12 12 13 13 14 15 15 17 18 19 20 21 23 24 26 28 30
10 10 9 9 9 9 9 9 9 9 9 9 9 9 9 8 8 8 9 10 10 10 11 11 12 12 13 14 14 15 16 17 17 18 19 21 21 22 24 25 27 28 30 31
12 12 11 11 11 11 11 11 12 12 12 12 11 11 11 11 11 11 12 12 12 12 13 14 14 15 16 16 16 17 18 19 20 21 21 22 24 25 26 27 28 29 30 31
13 13 13 13 13 14 14 14 14 14 13 13 12 13 13 14 14 14 14 14 14 15 16 17 17 17 18 18 19 19 20 21 22 22 23 24 25 26 27 28 29 30 31 32
16 16 16 15 15 16 15 15 15 16 15 14 14 14 15 15 16 16 16 16 16 17 18 19 20 20 20 20 20 21 21 22 24 25 26 27 28 29 30 31 32 33 34 34
18 18 18 17 18 17 17 17 17 17 17 16 16 16 17 17 18 18 19 19 19 19 19 20 21 21 22 23 23 23 24 25 27 28 29 30 31 32 33 34 34 35 36 36

GEFSCGP_500_meanwind_132.txt.gz
Wind_Speed
10 12 13 15 17 19 21 23 25 26 27 28 28 28 29 30 30 30 31 32 33 33 34 35 36 37 39 40 41 43 44 45 46 47 47 47 48 50 51 51 51 52 51 50
7 9 11 12 13 16 18 20 22 23 24 25 25 25 25 26 27 28 29 30 31 31 32 32 34 36 37 38 40 42 43 44 46 47 47 48 48 49 50 50 51 51 51 51
3 5 7 9 11 13 15 17 19 20 20 21 22 23 23 24 25 26 27 28 29 30 31 32 34 34 35 36 38 40 41 43 45 46 47 49 49 49 50 51 52 52 53 52
2 3 5 7 9 10 12 14 16 17 18 18 20 21 22 22 23 24 26 27 28 29 30 31 31 32 34 34 35 37 39 41 43 44 46 48 49 49 49 50 51 52 53 53
1 2 3 4 5 6 8 10 12 14 15 16 17 19 19 21 21 22 24 25 26 26 27 28 28 30 31 32 33 34 35 36 39 41 44 46 47 48 48 49 50 50 51 51
2 1 1 2 3 3 5 7 9 10 12 14 14 16 17 17 18 19 20 22 23 23 24 24 25 26 28 30 31 32 32 33 34 36 38 41 43 44 45 47 47 48 48 50
4 3 2 1 1 2 3 5 6 8 10 11 12 13 14 14 15 16 17 18 18 19 20 21 22 23 24 25 27 28 29 30 30 31 33 35 38 39 41 42 44 45 46 47
5 4 4 3 3 2 2 3 4 6 8 9 10 11 12 13 14 15 15 16 16 17 18 18 19 20 21 21 22 24 25 26 27 28 30 31 33 35 37 38 40 41 42 43
6 4 4 4 3 3 3 3 5 6 6 7 9 10 11 11 13 13 13 13 14 15 16 16 16 17 18 18 19 20 21 23 24 25 25 26 28 30 33 34 36 38 39 40
7 6 5 4 3 3 3 3 3 5 6 7 8 9 9 9 10 11 11 12 13 14 14 14 14 14 15 16 16 16 17 18 19 20 21 23 24 25 28 29 31 32 33 34
7 6 5 5 4 4 4 4 4 5 6 7 8 8 8 8 9 11 11 12 12 12 11 12 12 12 12 12 13 13 13 13 14 15 16 17 18 20 22 24 26 27 29 31
7 6 6 5 5 5 5 6 6 7 7 8 8 8 8 9 10 11 11 11 11 9 9 9 9 9 10 9 9 10 10 11 11 11 12 13 14 16 18 20 22 23 24 28
7 6 6 6 6 6 6 7 7 7 7 7 8 8 8 9 9 9 10 10 9 8 8 8 8 8 8 8 7 8 7 7 7 8 9 10 11 12 15 17 18 20 22 24
7 7 7 6 6 6 6 6 6 7 7 8 7 7 8 8 9 9 9 8 8 8 8 7 7 6 6 6 6 6 5 5 5 6 7 9 10 11 12 14 16 19 20 21
9 9 8 7 6 6 6 6 7 8 8 8 8 7 8 8 9 9 8 7 8 8 6 6 6 5 5 6 5 4 5 5 4 5 6 8 10 11 13 14 16 17 19 20
10 10 9 8 7 6 6 7 7 8 9 9 8 8 8 8 8 8 7 7 8 7 6 6 5 5 5 6 6 6 6 6 6 6 7 8 10 11 13 14 15 17 19 20
11 11 10 9 8 7 6 7 8 8 9 9 9 8 8 8 8 8 7 7 7 7 6 6 6 6 6 5 6 7 7 8 8 8 9 10 12 13 14 15 16 17 19 20
11 11 12 11 10 9 7 8 8 8 8 9 8 7 7 7 8 8 8 8 8 8 8 7 6 7 7 7 7 8 9 10 10 11 11 12 13 13 14 16 17 18 20 21
12 12 12 12 11 9 8 9 10 9 8 8 8 8 8 7 8 8 9 9 8 8 8 8 8 8 8 8 9 10 11 12 13 13 13 14 14 15 15 16 18 20 21 23
14 14 13 12 12 11 10 10 10 10 9 9 9 9 8 8 9 9 9 9 9 8 9 9 9 10 10 10 11 11 12 13 14 15 15 16 16 17 17 18 20 21 22 24
16 16 15 14 14 12 12 13 12 12 11 10 9 9 9 9 10 10 10 10 10 10 11 11 11 11 12 12 13 13 14 15 15 15 16 17 18 19 20 21 22 23 23 24
18 18 17 17 16 15 15 15 14 13 13 12 12 11 11 12 12 12 12 12 12 12 12 13 13 13 14 15 15 15 15 16 17 17 17 19 20 21 21 23 24 25 26 27
20 20 20 19 18 18 18 17 16 15 14 14 14 14 14 14 14 14 14 14 14 14 15 15 15 16 16 16 17 16 17 18 19 20 21 22 23 24 24 25 26 27 28 29
22 22 22 21 19 20 20 19 19 18 17 16 16 16 16 16 16 16 17 17 17 17 17 18 18 18 18 18 18 18 19 20 21 22 23 24 25 26 26 27 28 29 30 30
23 24 24 24 23 24 22 22 21 20 19 19 19 19 19 19 18 18 18 19 19 19 19 20 20 20 19 20 20 21 22 23 23 24 25 26 27 28 29 30 30 31 32 33
24 26 27 26 27 26 25 25 25 24 23 22 22 22 22 21 20 20 20 20 20 20 20 20 21 21 21 21 22 22 24 25 26 28 29 30 30 31 32 32 33 34 34 35

GEFSCGP_500_meanwind_138.txt.gz
Wind_Speed
8 10 12 14 16 19 21 22 24 26 28 29 30 30 30 31 31 32 32 32 33 33 34 35 35 35 35 35 36 38 39 40 41 43 44 45 45 46 46 46 47 46 47 48
5 6 9 11 12 14 16 19 21 23 25 26 27 27 28 28 28 29 29 30 30 30 31 33 34 34 34 34 36 37 38 39 41 42 43 44 45 46 47 47 47 47 47 48
3 3 6 7 9 11 13 14 17 19 21 22 23 24 24 25 25 26 27 28 29 29 30 31 32 33 34 34 35 35 36 38 39 41 42 43 44 45 46 47 48 49 48 48
1 2 3 4 5 6 8 11 13 15 17 19 20 21 21 22 23 24 25 27 27 28 28 29 31 32 33 33 34 34 35 37 38 39 40 41 43 44 45 47 48 49 50 50
2 1 2 3 4 4 6 7 9 12 14 17 18 19 19 21 21 22 23 24 25 26 27 28 29 30 31 33 34 34 34 35 36 37 38 40 41 43 45 46 47 48 49 50
3 2 1 1 3 4 5 5 6 9 11 14 15 17 17 18 19 20 21 22 23 23 24 26 28 30 31 31 33 33 33 34 34 34 36 37 38 40 41 43 44 46 47 48
6 4 2 1 0 2 3 4 4 6 8 10 12 14 14 14 15 17 17 19 19 20 22 24 26 27 29 30 30 31 32 32 32 33 33 34 35 36 37 39 40 42 43 45
6 5 4 2 1 1 2 3 3 5 6 8 10 12 12 12 13 14 15 16 17 18 20 21 23 24 25 27 28 28 29 30 30 31 32 33 33 34 34 35 36 38 39 41
7 5 5 3 2 1 1 2 4 5 6 7 9 10 11 12 12 13 14 15 16 17 18 19 20 21 22 23 25 26 26 27 28 29 30 30 31 32 32 32 33 34 36 36
8 7 6 4 3 2 2 4 5 6 7 7 7 8 9 10 11 12 13 14 15 15 16 17 18 19 20 20 21 22 23 24 24 25 26 27 27 28 28 29 30 31 31 32
8 7 6 5 5 4 4 5 6 8 8 9 8 7 8 10 10 11 11 12 12 13 14 15 16 17 18 18 18 18 19 20 20 21 22 22 24 24 25 26 26 26 27 28
8 7 7 6 6 6 6 6 7 8 9 9 9 8 9 10 10 9 10 11 11 12 13 13 13 14 15 15 15 15 15 16 17 19 19 20 22 22 22 23 23 24 25 25
9 8 8 7 7 7 7 7 8 9 8 9 9 8 8 9 8 9 9 10 11 11 11 11 12 12 12 12 11 11 11 11 13 14 15 17 18 18 19 20 21 21 22 23
10 9 9 9 9 9 8 8 9 9 9 9 9 8 7 8 8 9 9 9 10 11 11 11 11 11 10 9 9 8 8 8 9 9 10 12 14 15 16 17 18 18 19 21
11 10 10 10 10 10 9 9 10 11 11 11 9 8 7 8 8 9 10 10 10 10 11 11 11 10 8 7 6 7 7 7 7 8 9 10 11 12 13 14 15 17 18 20
13 12 11 11 11 10 10 10 12 12 12 12 11 9 9 9 9 9 10 10 9 9 9 10 9 8 6 6 5 5 5 6 6 6 7 8 9 10 11 11 12 13 15 17
14 13 12 11 11 11 11 11 12 12 12 12 11 10 10 10 10 9 9 9 9 9 8 7 7 6 6 5 5 4 4 4 5 6 7 8 9 9 10 11 13 14 15 16
15 14 14 13 13 12 12 12 11 11 11 11 11 10 10 10 10 10 10 10 10 9 8 7 6 6 6 6 6 6 6 7 7 7 8 8 9 9 10 11 13 15 16 18
17 17 16 16 15 14 13 13 12 12 11 12 11 12 12 11 11 12 11 10 9 9 7 7 6 7 7 7 7 7 9 9 9 9 10 10 10 11 12 14 15 16 18 19
20 20 19 19 19 17 16 16 15 14 13 13 13 13 13 12 12 12 12 11 10 9 8 7 8 8 8 8 9 9 10 10 11 11 12 12 12 13 14 15 16 17 18 20
22 22 22 22 21 20 19 19 18 17 16 16 15 15 14 13 12 12 12 11 11 10 10 10 10 10 10 9 9 10 11 11 12 13 14 14 15 15 16 17 18 19 20 21
25 25 24 24 24 22 23 22 22 21 19 19 18 17 15 14 13 13 13 13 13 13 13 13 13 13 12 12 12 12 13 14 14 15 16 16 17 17 19 20 21 22 23 25
27 27 27 26 24 25 26 26 25 25 23 21 21 20 18 17 16 16 16 16 16 16 16 15 15 15 15 15 15 15 16 16 17 17 18 18 19 20 21 22 23 24 25 27
30 29 29 28 25 27 28 28 28 28 26 25 24 23 22 20 20 19 19 19 19 18 18 18 17 17 18 18 18 18 19 19 20 20 20 21 21 22 23 24 25 26 27 29
32 33 32 31 29 31 31 31 31 31 30 28 27 26 25 24 23 23 22 21 21 21 20 20 20 20 21 21 21 21 22 22 22 22 22 22 23 24 25 26 28 30 31 32
34 35 34 33 33 35 33 34 33 33 31 31 30 29 28 27 26 26 25 25 24 24 24 23 23 23 24 24 25 25 24 24 24 23 23 24 25 26 28 29 31 32 34 35

GEFSCGP_500_meanwind_144.txt.gz
Wind_Speed
6 8 10 11 13 15 18 21 23 25 26 28 29 30 32 33 34 34 34 34 34 34 35 35 36 36 36 37 37 38 38 39 40 40 40 40 40 41 41 41 42 44 45 45
4 7 8 9 11 13 15 18 21 24 26 27 29 29 31 32 32 32 32 32 33 33 34 35 35 36 36 36 36 38 38 39 40 40 40 41 41 41 41 42 42 44 45 46
2 4 7 7 8 11 14 16 18 21 23 26 27 27 27 29 30 30 31 31 32 33 33 34 34 35 35 35 36 36 37 38 39 39 39 40 41 42 42 42 42 43 45 45
1 3 6 8 9 10 12 15 17 19 20 22 23 23 22 25 28 29 30 30 31 31 32 32 33 34 35 36 36 36 37 37 38 38 38 39 40 41 41 42 42 43 44 45
3 4 5 6 7 8 10 11 13 15 17 19 21 23 22 24 25 26 27 29 30 30 31 32 32 33 35 36 36 36 36 37 38 38 38 38 39 39 40 41 41 42 43 43
5 4 4 5 6 7 8 9 10 12 14 15 17 21 21 22 23 24 25 27 28 29 31 31 32 32 33 34 35 36 36 37 38 38 38 38 38 39 39 40 41 42 42 42
7 6 5 5 6 6 7 8 9 10 12 13 14 17 18 20 22 23 24 25 26 28 28 29 30 31 31 32 33 34 35 35 36 37 38 38 38 38 38 39 40 40 41 41
8 7 7 6 6 6 7 8 9 11 11 12 13 15 15 17 19 21 23 24 25 26 27 28 28 29 29 30 31 32 33 33 34 35 36 37 38 38 37 38 39 40 40 40
9 8 8 7 7 7 7 8 9 11 12 12 13 13 13 15 17 19 21 22 24 25 26 26 27 27 27 28 29 30 31 32 33 34 35 36 37 37 37 37 38 38 38 38
10 9 9 8 8 8 8 9 10 11 12 13 12 13 14 16 17 18 19 21 22 23 24 25 26 26 26 27 28 28 29 30 31 32 33 34 35 35 36 36 35 35 35 35
12 11 10 10 10 10 10 10 11 12 13 14 13 12 14 16 17 18 18 19 20 21 22 24 25 25 26 26 26 27 27 27 28 29 29 30 30 30 31 31 32 32 32 32
14 14 12 12 12 12 12 12 12 13 14 15 16 13 15 17 17 18 18 18 19 20 21 21 23 23 24 24 25 25 25 25 26 26 26 26 27 27 27 27 28 28 29 29
17 16 15 14 13 13 13 13 14 14 15 15 15 14 15 17 17 17 18 18 19 19 19 20 21 21 22 22 22 22 22 23 23 23 23 23 24 24 25 25 26 26 26 27
18 17 16 16 15 15 15 15 16 16 16 15 15 14 15 16 17 17 17 17 18 18 19 19 19 19 19 20 20 20 20 20 20 20 20 20 20 20 21 22 24 24 25 26
19 18 17 17 17 17 16 17 17 18 17 17 16 16 16 17 17 17 17 17 17 18 19 18 18 18 18 18 19 19 18 17 17 17 17 18 19 19 19 21 22 22 23 23
20 19 18 18 19 19 18 17 18 18 19 18 18 17 18 18 17 17 17 17 18 18 18 18 18 18 18 18 17 17 16 15 15 15 16 16 16 16 17 18 19 20 21 22
21 21 21 20 20 20 19 19 20 20 20 20 19 18 18 18 18 18 18 18 18 18 18 18 17 17 17 16 15 14 14 15 15 15 14 14 14 14 15 16 17 18 18 19
23 23 22 22 21 21 21 21 21 22 21 21 20 20 20 20 19 19 19 19 19 19 18 18 18 17 16 15 14 14 14 15 15 15 14 14 14 14 14 15 15 15 16 18
25 25 25 24 23 22 21 22 23 23 22 22 22 22 21 20 20 20 20 20 19 19 18 18 17 17 16 15 15 15 15 15 15 15 15 15 15 15 15 15 15 16 17 18
27 27 27 27 26 24 24 24 24 24 24 24 24 24 23 22 21 20 21 20 19 19 18 17 17 16 16 16 15 15 15 15 15 15 15 16 16 17 17 17 17 18 19 20
29 29 29 29 28 26 26 26 26 26 26 26 26 26 25 24 23 22 22 21 21 20 19 19 18 18 17 17 17 17 17 17 17 17 17 17 18 19 19 19 20 21 21 21
32 32 32 31 30 29 29 29 30 30 29 28 28 28 27 26 25 24 24 24 23 23 22 22 21 21 20 20 19 19 19 19 19 19 20 20 20 21 21 22 22 22 23 23
35 35 36 35 33 33 32 32 33 33 32 31 31 30 30 29 28 27 27 26 25 26 25 25 24 23 23 23 22 22 22 22 22 22 23 23 23 24 24 24 24 24 24 24
38 39 40 39 36 36 36 36 36 37 37 36 35 33 32 32 31 30 29 29 28 28 28 27 27 26 26 26 25 25 25 25 25 25 26 26 26 26 26 26 26 26 26 26
41 42 43 42 40 40 39 40 40 41 40 38 37 36 35 35 34 33 33 32 31 31 30 29 29 29 28 28 28 27 27 28 28 28 29 29 29 29 28 28 28 27 28 28
41 44 45 44 43 44 43 42 43 42 41 40 40 38 38 38 37 37 36 35 34 33 32 32 31 31 31 31 31 31 31 31 31 31 31 31 31 31 30 29 29 29 29 30

GEFSCGP_500_meanwind_150.txt.gz
Wind_Speed
2 4 6 8 10 11 13 15 17 19 20 22 23 25 26 27 27 28 29 30 31 32 32 32 33 34 35 35 35 35 36 36 36 37 37 38 38 38 38 38 39 39 39 39
0 2 5 6 8 10 11 14 16 18 19 21 22 24 25 26 27 27 27 28 30 31 32 32 32 33 35 35 36 36 37 37 37 38 39 38 38 37 38 38 38 38 39 39
1 2 4 6 8 10 11 13 15 17 19 20 22 22 23 25 26 26 27 27 28 30 31 32 33 33 34 35 36 36 36 37 38 38 38 37 38 38 38 39 39 40 39 39
3 3 4 6 7 9 11 13 14 17 19 20 22 22 22 24 25 26 27 27 28 29 31 32 33 34 34 35 36 36 37 37 38 38 39 39 39 39 39 39 40 40 39 39
5 5 6 7 9 10 11 12 14 15 18 19 20 22 22 23 24 24 26 27 28 29 30 31 33 34 34 35 35 36 36 37 37 38 39 39 39 40 40 40 40 39 39 39
7 7 7 8 9 10 11 12 13 14 16 17 18 20 21 22 23 24 25 26 27 28 29 29 30 32 33 34 35 36 36 36 37 38 38 39 39 39 40 40 40 39 39 39
8 8 8 8 9 9 10 10 12 13 14 15 17 19 20 21 22 23 25 26 26 27 27 28 29 30 31 33 34 34 35 35 36 36 37 38 39 39 39 39 39 39 39 39
10 9 9 8 8 8 9 9 10 12 13 14 16 17 18 20 21 23 24 25 25 26 27 27 28 28 30 31 32 33 34 34 35 35 36 37 38 38 38 38 38 38 38 38
12 11 10 9 8 8 9 9 10 11 11 12 13 15 17 18 20 22 23 23 24 24 25 26 27 28 28 29 30 31 32 33 33 34 35 36 36 37 37 37 37 37 37 38
13 12 11 11 9 9 9 10 10 11 11 11 11 12 14 16 17 19 20 21 22 23 23 24 25 26 26 27 27 29 30 31 32 33 34 34 34 34 34 35 35 36 37 37
14 13 12 12 11 11 11 11 12 12 13 13 13 12 13 13 15 16 18 19 21 22 23 24 24 24 25 26 27 28 29 30 31 31 32 32 31 31 31 31 32 33 34 34
16 15 14 13 12 11 12 12 13 14 14 15 15 13 13 15 16 17 18 19 19 21 22 23 23 24 25 26 27 27 27 28 28 28 28 28 28 28 29 29 30 30 31 31
18 17 16 15 13 13 13 13 14 15 15 15 15 14 15 16 17 18 18 19 19 20 21 22 23 24 25 25 26 26 26 26 25 25 25 25 26 27 27 27 28 27 28 28
19 19 18 17 16 16 15 16 16 17 17 16 16 16 17 18 18 18 19 19 19 20 21 21 22 24 25 25 24 24 23 23 23 23 24 25 25 26 27 27 27 27 27 27
21 20 19 19 19 18 18 18 18 18 18 18 16 17 18 19 18 19 19 19 20 20 21 21 22 23 23 23 23 23 23 22 22 23 23 24 25 26 26 27 27 27 27 27
24 23 22 21 21 20 19 19 19 19 20 19 19 19 20 21 20 20 20 21 20 20 21 21 22 22 22 22 22 23 23 23 23 23 23 23 23 24 25 25 26 26 27 27
26 26 25 23 24 23 21 21 21 21 21 21 21 21 22 22 22 22 22 22 21 21 21 21 21 21 22 22 23 23 23 23 23 23 23 22 23 23 24 24 24 25 25 25
28 28 28 27 26 26 24 24 24 24 23 23 23 23 24 24 24 24 24 23 22 22 22 22 21 22 23 23 23 23 23 24 24 23 23 23 23 23 23 23 24 24 24 24
30 30 30 30 29 28 26 26 26 25 25 25 24 24 25 25 25 25 25 24 24 24 24 24 24 24 24 24 24 24 24 24 24 23 23 23 23 23 23 23 23 23 23 23
32 32 33 32 32 31 29 28 27 28 27 27 28 27 27 27 27 25 26 26 26 26 26 26 26 26 26 26 26 25 25 25 25 25 24 23 22 22 22 22 22 22 22 22
35 35 35 35 35 33 31 31 30 29 30 30 30 30 30 29 29 28 27 26 27 27 27 27 27 27 27 27 27 26 26 26 26 26 25 24 24 23 22 22 22 22 22 22
37 38 37 36 36 34 33 33 33 33 33 33 33 33 33 32 31 31 30 30 29 29 29 29 28 28 28 28 28 28 27 27 27 27 26 26 26 25 24 23 23 23 23 23
39 39 39 38 37 36 36 37 37 37 37 36 36 36 36 35 35 34 33 32 32 32 32 31 31 30 29 29 29 29 29 29 28 28 28 28 28 27 27 26 25 25 25 25
41 40 41 41 39 39 40 41 40 41 40 40 40 39 39 38 37 37 36 35 35 35 35 34 33 32 31 31 31 31 31 31 30 30 29 29 29 29 28 28 27 27 27 27
42 43 44 44 43 44 43 43 43 43 44 43 42 42 42 42 40 40 39 38 38 38 37 36 35 35 34 33 33 33 33 33 32 31 31 31 31 31 30 30 29 29 29 30
42 45 47 46 46 47 45 44 45 45 46 45 45 44 44 44 43 42 42 41 40 39 38 37 37 37 36 36 35 35 35 34 34 33 32 32 32 32 32 31 31 31 31 31

GEFSCGP_500_meanwind_156.txt.gz
Wind_Speed
3 4 6 8 9 10 12 14 15 15 16 18 19 20 21 23 24 25 26 27 28 28 28 29 29 31 31 31 32 33 33 34 35 35 35 35 36 37 36 35 37 38 39 40
3 4 5 7 8 9 11 13 14 16 16 17 18 19 20 21 22 24 25 26 28 28 27 28 29 30 31 32 32 33 34 34 35 35 36 37 37 38 39 40 39 39 40 40
4 5 5 6 8 10 12 13 14 16 17 18 19 20 20 21 22 23 24 26 27 28 28 28 29 30 31 32 33 34 35 35 36 36 37 38 39 40 40 41 41 41 41 41
6 5 6 7 8 10 12 14 15 17 18 19 20 21 21 22 23 24 25 25 26 27 28 28 29 30 31 32 33 34 35 36 37 37 37 37 38 38 39 39 40 40 40 40
7 7 7 8 9 10 12 14 15 16 17 19 20 22 21 23 23 24 25 26 26 27 28 28 29 30 31 32 33 34 35 36 37 37 37 37 37 37 37 38 38 39 39 39
9 9 9 9 10 11 12 13 15 17 17 18 19 21 21 22 23 24 25 27 28 28 28 28 29 30 31 32 32 33 34 35 36 36 36 37 37 38 38 38 38 38 38 38
11 11 12 12 12 13 13 14 15 17 17 18 19 21 21 22 23 23 24 26 27 28 29 29 30 30 31 32 33 34 34 34 34 35 36 36 37 38 38 38 37 37 38 38
13 14 14 14 14 14 15 16 17 18 18 18 19 20 20 21 22 23 24 25 27 28 29 30 30 31 32 32 33 33 34 34 34 34 35 36 36 37 37 37 37 37 37 36
15 15 16 16 16 16 16 16 17 17 17 17 17 18 18 19 20 22 23 25 26 28 29 29 29 30 31 32 32 33 33 33 34 34 34 35 35 35 35 36 36 36 35 34
17 17 17 17 16 16 16 16 16 16 17 17 17 18 18 18 19 21 22 23 24 26 27 28 29 30 31 31 32 32 32 33 34 34 34 34 34 34 34 34 34 34 33 33
18 18 18 18 17 17 17 17 17 17 18 19 19 18 19 19 20 21 22 23 25 26 27 27 28 29 29 30 31 31 32 32 33 33 33 33 34 34 34 34 34 33 33 33
20 19 19 19 19 18 18 19 19 19 20 21 21 19 20 21 22 22 23 24 25 26 27 27 28 29 29 30 31 31 31 31 32 32 32 32 33 34 34 34 34 33 33 33
22 21 21 20 20 20 19 20 21 22 22 22 23 22 21 22 23 24 25 24 25 26 26 27 28 29 30 30 30 31 31 31 31 31 31 32 32 33 33 33 33 33 33 33
24 23 23 23 23 23 23 23 23 24 24 24 23 23 23 23 24 24 25 25 26 26 27 27 28 29 29 30 31 31 31 32 32 31 31 32 32 32 32 33 33 33 33 34
26 26 26 25 25 25 25 25 25 25 25 25 23 24 24 25 25 25 25 26 27 27 27 27 28 29 30 30 31 32 32 31 31 31 31 31 31 32 33 33 34 34 34 34
28 29 29 28 28 29 28 26 26 26 26 26 26 25 25 26 26 26 27 27 28 28 28 28 28 29 30 30 31 31 32 31 31 31 31 31 32 33 33 34 34 34 35 35
32 32 32 31 31 32 30 29 29 28 28 28 28 27 28 28 28 28 29 29 29 29 29 29 30 30 30 30 31 31 31 31 32 32 32 32 33 33 33 34 34 34 35 35
35 35 36 35 34 34 32 31 31 31 30 30 30 30 30 30 30 30 30 30 31 31 31 31 31 31 32 32 32 31 31 31 32 32 32 33 33 32 33 33 34 34 34 34
38 38 38 38 37 37 34 33 33 33 32 31 32 31 31 30 30 30 31 32 32 33 33 33 33 32 32 33 33 32 32 32 32 32 33 33 33 33 33 33 33 33 33 33
40 40 40 40 40 40 37 36 35 36 36 34 33 32 32 32 32 32 33 33 34 35 35 35 35 34 34 34 34 33 33 33 33 33 33 34 34 34 33 33 33 33 33 33
43 43 42 42 43 42 40 39 38 38 38 37 36 36 35 35 35 35 35 35 35 36 36 37 36 36 36 36 35 35 35 34 34 34 35 35 35 34 34 34 34 33 33 33
45 45 44 44 44 43 41 41 40 40 40 39 38 38 39 39 38 37 36 36 36 36 36 37 37 37 38 38 37 36 36 36 36 36 36 36 36 36 35 35 34 33 32 32
47 46 46 46 45 44 43 43 42 42 41 41 41 41 41 40 40 39 39 38 38 38 38 38 38 38 38 39 39 38 37 38 38 37 37 37 37 37 36 35 34 34 33 33
49 48 49 49 47 45 45 45 44 44 44 44 43 43 43 43 43 42 42 41 41 41 41 41 40 40 39 39 39 39 39 39 38 38 38 37 37 36 36 35 35 34 33 33
49 49 50 50 48 48 47 47 47 46 46 45 45 45 46 46 45 45 44 43 43 43 43 42 41 41 40 40 39 39 39 39 39 39 38 38 37 37 36 36 35 34 34 33
47 48 49 49 48 50 49 48 48 48 47 47 47 47 47 48 47 47 46 45 44 44 43 43 42 42 41 41 40 40 40 40 40 39 39 38 38 37 37 36 35 35 34 34

GEFSCGP_500_meanwind_162.txt.gz
Wind_Speed
2 3 4 6 7 10 12 12 13 15 16 17 18 18 18 19 20 21 22 23 24 24 26 27 27 28 28 28 28 29 31 32 32 33 34 34 34 34 33 33 32 33 34 34
3 4 4 5 7 9 11 12 12 14 15 16 17 18 19 19 20 21 22 23 23 24 25 26 27 28 29 28 28 28 29 32 32 32 33 33 34 34 34 35 35 34 35 35
4 4 5 5 6 7 9 10 12 13 15 16 16 17 19 19 21 22 22 23 24 25 25 26 27 28 29 30 30 29 30 32 33 32 33 33 33 34 35 36 36 36 36 36
5 5 5 5 6 7 8 10 12 13 14 15 17 17 18 19 20 21 22 23 24 25 26 27 27 29 29 29 30 30 30 31 32 32 32 33 34 34 35 36 36 37 36 36
6 6 6 7 8 8 9 10 11 12 13 14 15 17 17 18 19 20 22 23 24 25 26 27 28 28 29 29 30 30 30 30 31 32 33 33 34 35 35 36 36 37 37 38
7 7 7 8 9 9 10 11 12 12 13 15 16 18 18 18 19 20 22 23 24 25 25 26 27 28 29 29 30 30 31 32 32 33 33 34 35 36 37 37 37 37 37 37
9 9 9 10 10 11 11 12 13 14 14 14 16 18 18 18 19 20 21 23 24 24 25 25 26 27 28 29 29 30 31 31 32 33 34 35 36 36 37 37 37 37 37 37
10 11 11 12 12 12 13 14 15 15 16 15 16 17 18 19 20 21 21 22 23 24 25 26 26 27 28 29 30 30 31 32 32 33 34 35 35 36 36 37 37 37 37 37
12 12 13 13 13 13 14 15 16 17 17 17 16 17 17 19 21 22 23 23 24 25 27 27 28 29 29 30 30 31 31 32 33 34 34 34 34 35 35 36 36 37 37 37
14 14 14 14 14 14 15 15 16 17 18 18 17 18 18 18 19 22 24 25 26 27 28 29 30 30 30 31 31 32 33 34 34 35 35 35 35 35 35 35 35 36 36 36
16 16 15 16 16 16 17 17 18 18 18 19 19 18 18 18 19 21 22 24 25 26 28 29 30 31 32 33 33 34 34 35 35 35 35 35 35 35 35 35 35 35 35 36
18 18 18 18 18 18 19 19 20 20 20 20 21 20 19 19 20 21 22 23 25 26 27 29 30 32 32 33 34 34 34 35 35 35 35 35 35 35 35 35 35 35 35 36
21 22 21 21 21 21 22 22 22 22 22 22 22 21 22 22 22 23 23 25 25 26 28 29 29 30 31 32 32 33 34 35 36 36 36 36 35 35 35 36 36 36 36 36
24 24 24 24 25 24 24 25 25 25 24 24 23 23 23 25 25 26 26 26 27 28 28 29 30 31 31 32 33 34 34 35 36 36 36 37 37 37 36 36 36 36 36 37
26 26 26 26 27 26 26 26 26 27 26 27 25 26 25 26 27 28 28 28 29 30 30 31 31 32 32 33 34 35 36 36 37 37 37 37 38 38 38 37 37 37 38 37
30 30 29 28 29 29 28 27 28 28 28 29 28 28 27 28 28 29 29 30 30 31 32 32 33 33 33 34 35 36 37 38 38 38 38 38 38 39 39 39 38 38 37 37
33 33 33 32 32 32 31 29 29 30 30 30 30 29 30 30 30 31 31 31 31 32 33 34 34 34 34 35 35 36 37 38 38 39 38 38 39 39 39 39 39 39 38 39
36 36 36 36 36 35 33 32 32 32 32 32 32 32 32 32 32 32 33 33 33 33 34 34 34 35 35 36 36 36 37 37 38 38 38 39 39 39 40 40 40 39 39 39
38 38 39 39 40 39 36 35 35 35 34 34 34 34 33 34 34 33 33 34 34 34 34 35 36 36 36 37 37 37 37 37 38 38 39 39 39 39 39 39 39 39 40 40
40 40 41 41 42 42 39 38 37 38 37 35 35 35 35 34 35 34 34 35 35 36 36 36 36 37 37 37 37 37 37 38 38 39 39 39 40 40 40 40 40 40 40 41
42 42 42 43 43 43 41 40 39 38 37 37 37 37 36 36 36 36 36 36 36 36 37 37 38 38 39 39 39 39 39 39 40 40 40 40 40 40 40 40 40 40 41 42
44 44 43 43 44 43 41 41 40 40 39 39 39 38 38 37 37 37 38 38 38 37 38 38 39 39 39 40 40 40 40 41 41 41 40 41 41 41 41 41 41 41 42 42
46 46 45 46 45 44 43 43 42 42 42 42 41 41 40 39 39 40 40 40 39 39 39 40 40 40 41 41 42 41 42 42 41 41 41 41 42 42 42 42 42 42 42 41
48 47 48 48 46 45 44 44 44 44 44 44 44 44 43 43 43 43 43 43 43 42 42 42 43 42 43 43 43 43 43 43 42 42 42 42 42 42 42 42 42 42 43 42
48 48 49 49 47 47 46 46 46 46 46 45 46 46 46 46 46 45 45 45 44 44 44 44 44 45 45 45 45 44 44 43 43 43 43 43 43 43 43 42 42 43 43 42
46 47 48 48 47 48 47 47 48 48 47 47 47 46 47 47 47 47 46 45 45 45 45 45 46 46 46 46 46 45 45 43 43 42 43 43 43 43 43 43 42 42 42 42

GEFSCGP_500_meanwind_168.txt.gz
Wind_Speed
3 4 5 6 7 8 10 11 12 14 14 14 15 16 17 18 20 21 21 21 22 23 25 27 27 28 28 28 30 31 31 31 31 31 31 31 32 33 34 34 34 34 33 33
4 5 6 6 7 7 9 11 13 14 15 15 16 16 17 18 19 20 21 23 23 24 24 26 27 28 29 28 29 31 31 31 31 32 32 33 33 33 34 34 34 35 34 34
5 6 6 7 7 8 9 11 12 14 15 16 17 17 18 19 20 21 22 23 24 25 25 27 28 29 29 30 30 31 31 31 32 32 32 32 33 33 34 34 34 34 35 34
6 7 7 8 8 9 10 11 12 13 15 16 17 18 18 19 20 21 22 23 24 25 26 26 28 29 30 30 31 31 32 32 33 32 33 33 34 34 34 34 35 35 36 36
8 8 8 8 9 9 10 11 12 13 14 15 17 19 18 19 20 21 23 24 24 25 26 27 27 28 30 30 31 32 32 33 34 34 34 34 34 34 33 34 35 37 37 38
9 9 10 10 11 11 11 12 13 14 15 16 17 19 20 19 20 21 22 23 24 25 25 26 27 28 29 30 31 32 32 33 33 34 34 35 34 34 34 34 36 37 37 38
11 11 12 12 12 12 13 14 14 15 16 16 17 19 20 20 21 21 22 23 24 25 26 27 28 29 30 30 31 31 32 33 33 33 34 35 35 35 35 36 36 37 37 37
14 13 13 14 14 14 15 16 16 17 17 17 18 19 19 20 21 22 23 24 25 26 27 28 28 29 30 31 32 32 33 33 33 34 34 35 35 35 36 36 36 38 37 37
16 15 16 16 16 16 16 17 18 19 19 18 19 19 18 20 21 22 24 25 26 27 28 29 30 31 31 32 33 34 35 35 35 35 36 36 37 37 37 37 37 37 38 38
18 18 18 18 18 18 19 19 19 20 21 21 20 19 20 21 22 22 23 25 27 28 29 30 31 32 33 33 34 35 37 37 37 37 37 37 38 38 38 38 38 39 39 38
21 21 21 21 21 21 21 21 22 22 23 22 22 20 21 22 23 23 25 26 27 29 31 32 33 34 35 35 36 36 37 38 38 39 39 39 38 39 39 39 39 39 39 39
24 24 24 24 24 23 24 24 25 25 25 25 25 24 23 24 24 25 26 28 29 30 31 32 34 35 36 37 37 38 38 39 39 40 40 40 40 40 41 41 41 41 40 40
27 27 27 27 27 26 26 27 28 28 29 28 28 27 26 26 27 27 28 30 30 31 32 33 34 35 36 37 37 38 39 39 40 40 40 41 41 42 42 42 41 42 41 41
29 29 29 29 30 30 29 30 30 31 31 31 30 30 29 29 30 30 31 32 32 32 33 34 35 36 37 38 39 39 40 40 41 41 42 43 43 43 43 43 43 43 43 42
32 32 32 32 32 33 33 33 33 34 34 35 33 32 32 33 33 33 34 34 34 34 34 35 35 37 38 39 40 40 41 41 42 42 43 44 44 44 44 44 44 44 44 44
36 36 35 35 36 36 36 35 36 36 36 36 36 34 34 36 36 35 35 36 36 36 36 37 37 37 38 39 39 40 41 42 43 43 44 43 43 44 44 44 44 44 45 45
39 39 39 39 38 40 39 37 37 37 36 37 37 36 37 37 37 37 37 38 37 37 37 37 38 38 39 39 40 40 41 41 42 42 43 44 44 44 45 45 45 45 45 45
41 42 42 42 42 42 40 39 39 39 38 39 39 38 39 39 39 39 39 39 38 38 38 38 38 38 39 39 40 40 40 41 41 42 42 43 44 45 45 46 46 47 47 47
43 43 44 45 45 45 42 41 41 42 41 40 40 40 40 40 40 40 40 40 40 40 40 40 40 40 40 40 41 41 41 41 42 42 43 43 44 45 46 47 48 48 48 48
44 45 46 46 47 48 44 44 44 45 44 42 42 41 41 41 41 41 41 41 41 42 42 42 42 42 41 41 41 41 41 42 42 42 43 44 45 46 46 47 47 48 48 48
46 46 47 47 48 49 46 46 46 45 45 44 44 44 44 44 44 43 43 43 43 43 43 43 43 43 43 43 43 43 43 43 43 44 45 46 46 47 47 47 47 48 48 48
47 48 48 48 49 49 47 47 47 48 48 47 47 46 46 46 45 45 45 45 45 45 45 45 45 45 45 45 45 45 45 45 45 46 47 47 47 47 47 47 47 47 47 47
49 49 49 50 50 49 49 49 49 49 49 49 48 48 48 47 47 47 47 47 47 46 46 46 46 46 46 47 47 47 47 46 46 46 47 47 47 47 47 47 47 47 47 47
50 49 50 51 50 50 50 50 50 51 51 50 50 49 49 48 48 48 48 48 49 48 48 47 47 47 47 47 47 47 47 47 46 46 47 47 47 47 47 47 47 47 46 46
51 51 52 52 51 50 50 51 52 52 52 51 51 50 50 50 49 48 48 49 49 48 48 48 48 48 47 47 47 47 47 46 46 46 47 47 47 47 47 47 46 46 46 46
50 51 53 53 50 51 51 51 51 51 51 52 52 51 50 50 49 49 49 49 48 48 48 48 48 48 47 47 47 47 47 47 47 47 47 46 46 46 46 46 46 46 46 46

GEFSCGP_500_meanwind_174.txt.gz
Wind_Speed
5 5 5 5 6 8 8 9 9 10 11 12 11 12 13 14 16 18 19 20 21 22 24 25 26 26 27 29 30 31 31 31 31 32 32 31 31 30 30 31 31 32 32 33
5 5 5 5 6 7 8 9 10 10 11 12 12 12 13 14 16 18 19 20 22 23 24 25 26 26 27 30 31 32 32 32 33 33 33 31 32 32 32 32 32 32 33 33
5 5 6 6 7 7 8 9 10 11 11 12 13 14 14 15 17 19 20 21 22 23 25 25 25 26 27 29 31 32 33 32 32 33 33 32 33 32 32 32 32 32 33 34
6 6 7 6 7 8 9 10 11 11 12 13 14 16 16 17 18 19 20 22 22 24 24 26 26 26 27 28 30 31 32 32 32 32 33 33 34 34 33 32 32 33 33 34
8 8 8 8 8 9 10 11 12 12 12 13 14 16 16 17 18 19 20 21 23 24 25 25 26 26 27 28 29 30 31 30 31 32 33 33 34 34 34 33 34 35 35 34
9 9 10 10 10 10 11 12 12 12 13 14 14 16 16 16 18 19 20 22 23 24 25 26 26 26 27 28 28 29 29 30 31 31 32 33 34 35 35 35 34 35 35 35
11 11 10 10 11 12 13 13 13 14 14 15 16 16 16 17 18 20 21 22 23 24 25 25 26 26 27 27 28 28 29 30 31 32 33 33 33 35 36 36 36 35 35 36
13 13 13 13 13 13 14 14 15 16 16 17 17 18 18 18 19 20 22 23 23 25 26 27 27 28 28 28 29 29 30 31 32 32 33 34 34 35 36 36 36 37 37 37
15 16 16 16 15 16 16 16 16 18 18 19 20 20 20 20 21 22 22 24 25 25 27 28 28 29 29 29 29 30 31 32 33 34 35 35 36 36 37 37 37 38 38 38
18 19 19 19 18 19 19 19 20 20 21 21 20 20 21 21 23 23 23 24 26 27 28 29 29 30 31 31 31 32 32 33 35 36 37 37 37 38 38 39 39 39 40 40
21 22 21 22 22 22 22 23 23 23 23 24 24 23 23 24 25 25 25 26 26 27 29 30 31 31 32 33 34 34 35 35 36 38 39 39 39 40 40 40 40 40 41 42
24 24 24 25 25 25 25 26 26 27 27 27 27 26 26 26 26 27 28 28 28 29 30 31 32 33 33 34 35 36 37 38 38 39 40 41 41 41 42 42 42 41 42 43
27 27 27 28 28 28 28 28 29 30 30 29 29 28 28 28 29 29 29 30 30 31 32 33 33 35 35 36 37 37 38 39 39 40 41 42 42 42 43 43 43 43 44 44
30 30 30 30 30 30 30 30 31 31 31 31 30 29 29 31 32 32 31 31 31 32 33 34 36 36 37 38 39 39 40 40 40 41 41 42 43 43 44 44 44 45 46 46
34 34 34 33 33 33 33 33 33 33 33 33 31 31 30 33 34 34 34 34 34 34 35 36 37 38 39 39 40 40 41 42 42 42 42 43 43 44 44 45 46 47 47 47
37 37 37 37 36 36 36 35 35 35 35 35 35 33 33 35 35 36 36 37 37 38 38 39 39 40 40 40 41 41 42 42 42 43 43 44 45 45 45 46 46 47 48 49
39 39 40 39 39 40 39 37 37 37 37 37 37 36 37 38 38 38 39 39 40 40 40 40 40 40 40 40 41 42 42 43 43 44 44 45 45 46 47 47 48 48 48 48
41 41 42 42 42 43 40 39 40 40 39 40 40 40 40 41 41 41 41 41 41 41 41 41 41 41 41 41 42 42 42 43 43 44 45 46 46 47 48 48 49 49 49 49
42 42 43 44 45 45 42 40 41 42 41 41 41 41 42 42 42 42 41 41 41 42 42 42 42 42 43 43 43 43 43 43 44 44 45 45 46 46 47 48 49 49 49 49
43 44 45 45 46 46 43 42 42 43 44 41 42 42 42 42 42 42 42 42 42 43 43 43 44 44 44 44 44 44 44 44 45 45 45 46 46 47 46 47 48 48 48 49
44 45 45 45 46 47 45 44 44 44 44 43 43 43 43 43 43 43 43 43 44 44 44 44 44 44 44 45 45 46 46 46 46 46 46 46 47 47 47 47 47 48 48 49
46 46 46 46 47 47 45 46 45 46 46 45 45 45 45 45 44 44 44 44 44 44 44 44 44 44 44 45 46 47 47 47 47 46 46 47 47 47 47 47 47 47 47 48
47 47 47 47 47 47 47 47 47 47 48 48 48 48 47 47 46 46 45 45 45 45 44 45 45 45 45 46 47 48 48 48 47 47 46 46 46 47 47 47 47 47 47 48
47 47 47 47 47 47 48 48 48 48 49 48 49 49 49 48 48 48 48 47 47 46 46 47 47 48 48 48 48 48 48 48 47 47 47 46 46 46 46 46 47 47 47 48
47 47 48 48 47 48 48 47 47 48 48 48 48 48 48 48 48 48 48 48 48 48 49 49 49 49 49 49 48 48 48 48 48 47 47 47 47 46 46 46 46 47 47 47
46 46 47 48 47 47 46 46 46 47 48 48 48 48 48 49 49 48 48 48 49 49 49 49 49 49 48 48 48 48 47 47 47 47 47 46 46 46 46 45 45 46 46 47

GEFSCGP_500_meanwind_180.txt.gz
Wind_Speed
8 8 8 9 10 11 11 11 13 13 13 15 15 15 16 16 16 17 18 20 20 21 22 23 24 26 27 29 30 29 28 29 30 30 31 32 32 32 32 32 31 31 31 32
8 8 8 9 10 11 12 13 14 14 14 15 15 15 16 16 15 16 18 19 21 21 22 23 25 26 27 29 29 29 29 29 31 32 32 32 33 34 34 34 34 33 33 33
9 9 9 10 11 12 12 13 14 15 15 16 16 16 16 15 15 16 17 18 20 21 22 24 24 26 27 29 30 30 31 31 32 32 33 33 33 35 35 34 34 34 33 33
9 10 10 11 11 12 13 14 14 14 16 16 16 16 15 16 16 17 18 19 20 21 22 24 25 26 27 28 30 31 31 31 32 33 33 33 33 35 35 35 34 34 34 34
11 11 11 11 12 13 13 14 15 15 16 16 16 17 15 16 16 17 18 19 20 21 22 23 24 25 27 28 29 31 31 31 31 32 33 32 33 34 35 36 34 34 35 35
13 13 13 12 13 14 14 15 16 16 17 17 16 18 18 17 17 17 19 21 21 22 22 23 24 26 27 29 30 31 32 32 32 31 32 31 32 33 34 35 36 35 35 36
15 15 15 15 15 16 16 16 17 17 18 18 18 20 20 19 19 19 19 21 21 23 24 25 26 27 28 29 30 31 32 33 33 32 31 32 32 33 34 35 36 36 37 37
18 17 17 16 16 18 18 18 18 20 20 20 20 22 21 21 21 21 22 22 23 24 25 27 28 29 29 30 31 33 33 33 34 34 33 33 34 34 35 36 37 38 39 39
19 19 19 19 19 19 20 20 21 22 23 23 23 23 23 23 23 24 24 25 26 26 27 29 30 30 30 31 32 33 34 34 35 35 35 35 35 35 35 36 36 38 39 40
21 22 21 21 22 22 22 22 22 23 25 25 25 25 25 25 25 26 27 28 29 29 30 31 32 32 32 32 33 34 34 35 35 36 37 36 36 36 36 37 37 37 38 40
25 25 25 24 24 25 25 26 26 27 28 28 28 28 27 27 27 28 29 30 31 32 32 33 33 34 34 34 34 35 35 35 36 36 37 37 37 37 38 39 39 40 40 41
29 29 28 28 28 28 28 28 29 29 30 30 31 31 29 28 29 29 30 31 32 33 34 35 35 36 36 36 36 36 37 37 37 37 38 38 39 39 39 40 40 41 42 43
32 32 32 31 30 31 31 31 32 33 33 33 33 33 31 31 31 32 33 33 33 33 34 35 36 37 38 38 38 38 38 38 39 39 40 40 41 41 41 41 42 43 44 45
35 35 35 35 34 33 33 33 34 35 35 35 35 34 33 33 34 34 35 34 34 34 34 35 36 38 39 39 40 40 40 40 41 41 41 42 43 43 44 44 44 45 45 46
38 38 37 37 37 36 36 36 36 37 37 38 37 37 35 35 36 36 36 35 35 35 36 36 37 38 40 41 42 42 42 43 43 43 44 44 44 45 46 46 47 47 47 47
40 40 40 39 39 39 39 38 39 39 39 40 40 39 38 39 39 39 38 38 38 38 37 38 39 39 41 42 42 43 44 44 45 45 46 46 47 47 48 48 48 48 49 49
42 42 42 42 41 43 42 39 40 40 40 41 41 40 40 41 41 41 40 40 41 41 40 41 41 42 42 43 43 44 45 46 46 47 47 48 48 48 49 49 50 50 50 50
44 43 44 44 44 45 42 41 41 41 41 41 42 42 42 42 42 42 42 43 43 42 43 43 43 44 45 45 46 46 46 46 47 47 47 48 48 48 48 49 49 49 50 51
44 44 45 46 46 46 44 43 42 43 43 43 43 43 44 43 43 42 43 44 44 44 44 44 45 45 46 46 46 47 47 47 47 47 47 48 48 48 48 48 48 49 49 50
44 45 46 47 48 48 46 45 44 45 45 43 44 44 45 45 44 44 44 45 45 46 46 46 46 47 47 47 48 48 47 47 47 47 47 47 47 47 48 48 48 48 49 49
45 45 46 47 48 48 46 45 45 45 46 45 44 45 45 45 46 46 46 47 47 48 48 48 47 47 47 48 48 48 48 48 48 48 48 48 47 48 48 48 48 48 48 48
45 46 46 46 47 46 45 46 46 47 47 46 47 46 46 46 46 46 46 47 48 48 48 49 49 49 48 48 47 47 47 47 48 48 48 48 48 48 49 48 48 48 48 48
46 46 46 46 46 46 46 46 47 47 47 47 48 48 48 48 48 47 47 47 48 49 49 50 50 50 50 49 49 48 48 48 49 49 49 50 50 50 50 50 49 48 48 48
47 47 47 47 46 46 46 47 47 47 48 48 49 49 49 49 48 48 49 49 49 50 50 50 50 50 49 49 50 50 50 50 50 50 50 50 50 50 50 50 50 49 48 48
47 47 47 47 46 47 47 48 48 49 49 49 49 49 48 48 48 49 49 49 50 50 50 51 50 50 50 50 51 51 51 51 51 51 50 50 49 49 49 49 49 49 48 48
45 46 46 47 47 48 48 48 48 49 49 48 48 48 48 49 49 49 50 50 50 50 49 50 50 50 50 49 50 50 49 49 50 50 49 49 48 48 48 48 47 47 47 47

GEFSCGP_500_meanwind_186.txt.gz
Wind_Speed
11 11 12 12 12 13 13 13 13 14 14 15 15 15 15 17 17 18 18 20 21 22 22 22 23 25 26 26 27 27 27 28 28 29 30 31 31 31 32 33 33 32 33 33
10 11 11 12 12 12 14 14 14 14 15 16 16 16 16 16 18 18 18 19 21 22 22 22 24 25 27 27 27 27 27 28 28 29 31 31 32 32 32 33 34 34 34 34
10 11 12 12 11 12 13 14 14 15 16 16 17 16 16 16 17 18 18 18 19 21 21 22 24 25 24 24 25 25 26 26 27 28 30 31 32 32 33 33 33 34 35 35
12 12 13 12 12 12 13 14 14 15 16 16 17 18 16 16 17 17 18 19 19 20 21 23 24 25 24 24 25 25 25 26 27 28 29 31 32 34 34 34 33 34 35 35
13 13 13 13 13 14 14 15 16 16 17 17 17 19 17 18 18 18 18 19 20 21 22 22 23 25 26 25 26 26 26 27 27 28 30 32 32 33 33 33 34 35 36 36
15 14 14 14 15 15 16 16 17 18 19 18 17 19 18 18 18 18 17 18 20 21 22 23 23 25 27 27 27 27 28 28 29 29 31 32 32 33 33 34 34 35 36 37
16 16 16 16 17 18 18 18 19 19 20 19 18 20 19 18 19 19 18 18 19 20 22 23 24 25 27 28 29 29 29 29 30 31 31 33 34 34 35 35 36 36 37 37
18 18 18 17 17 18 19 19 19 20 21 20 20 21 19 19 20 20 20 19 20 21 23 24 25 26 27 29 30 30 31 31 32 32 32 33 34 34 34 35 36 37 37 37
21 20 20 19 20 20 20 20 21 22 22 22 22 22 21 21 21 21 22 22 23 23 25 25 26 27 28 29 29 30 31 32 33 34 34 34 34 35 36 36 37 37 38 38
23 23 22 22 22 23 23 23 24 24 25 25 25 24 23 22 23 24 24 25 26 26 27 28 28 29 30 30 30 31 33 33 33 34 35 36 36 37 37 37 37 38 38 38
26 26 25 25 25 26 26 26 26 27 27 28 28 26 25 24 25 26 26 26 28 28 29 30 31 32 32 33 33 34 34 35 36 36 36 37 37 37 37 38 39 39 39 40
29 29 28 28 28 29 29 29 28 29 29 29 29 28 27 26 27 27 28 28 29 30 31 32 32 33 33 35 36 35 36 36 37 37 37 38 38 39 39 39 40 40 40 40
31 32 31 31 31 31 31 31 31 31 31 31 30 30 29 29 29 30 30 30 31 31 32 33 34 34 35 36 37 37 37 37 38 38 39 39 39 40 41 42 42 41 41 41
34 34 33 33 33 33 33 33 33 34 34 33 32 31 31 32 32 32 32 32 33 33 34 35 35 36 37 38 38 38 39 39 39 39 39 40 40 41 41 42 42 43 43 43
36 37 35 35 36 36 36 35 36 36 36 36 34 34 34 34 34 34 34 34 34 35 36 36 36 36 37 38 39 40 40 40 40 40 41 41 42 42 42 43 44 44 45 45
38 39 38 38 37 38 38 37 37 38 38 38 37 36 36 36 35 35 35 36 36 36 37 37 37 38 38 39 40 41 41 41 42 43 43 43 44 44 45 45 46 46 46 47
39 40 40 40 39 41 41 38 38 39 39 40 40 38 38 38 37 37 37 37 38 38 38 38 38 39 39 40 41 41 41 43 44 44 45 45 46 46 47 47 48 48 48 48
41 41 42 42 42 43 41 40 40 41 40 41 41 40 40 41 40 40 40 40 40 40 40 40 41 41 42 42 43 43 43 43 44 45 46 46 47 48 48 49 49 50 50 50
42 42 43 44 44 44 42 41 41 42 42 42 42 42 42 42 42 41 41 41 42 42 42 43 43 43 44 44 45 46 45 45 46 46 46 47 48 49 49 49 49 49 50 50
42 43 44 45 45 44 41 41 41 42 43 41 42 42 42 42 42 41 42 42 43 44 45 45 46 46 46 46 46 47 47 47 48 48 48 48 49 49 49 49 50 50 50 50
42 43 44 44 44 44 42 42 42 43 42 41 41 41 42 42 42 42 42 43 44 45 46 46 47 47 47 47 47 47 48 49 49 49 50 50 50 51 51 51 50 50 50 50
41 42 43 43 45 44 42 42 42 42 42 42 42 42 42 43 43 43 44 44 44 45 46 47 48 48 48 49 48 48 48 49 49 49 49 49 50 50 50 50 50 51 51 51
42 42 42 43 43 42 42 42 42 43 43 43 43 43 43 43 43 44 44 45 45 45 46 47 47 47 47 48 49 49 49 50 50 50 49 50 50 50 50 51 51 51 51 52
42 42 42 43 42 42 43 43 43 43 43 43 44 44 45 44 45 45 45 44 44 44 45 45 46 46 47 47 48 49 49 50 50 50 50 51 51 51 50 50 51 51 51 51
42 43 44 44 43 43 43 43 43 44 44 44 43 43 44 44 44 44 44 44 44 44 44 44 45 45 46 46 47 48 49 50 49 49 49 49 49 49 49 49 49 50 50 50
41 41 42 43 43 44 44 44 44 44 44 44 44 44 44 45 44 44 44 44 44 44 44 44 45 46 46 46 47 47 47 47 47 48 48 48 48 48 48 47 48 48 48 48

GEFSCGP_500_meanwind_192.txt.gz
Wind_Speed
18 19 19 19 19 19 19 19 18 19 20 21 20 19 19 20 21 21 22 22 23 24 25 26 28 28 27 27 25 26 27 27 29 31 33 32 32 33 32 32 32 32 33 32
18 18 18 20 20 20 20 20 19 18 19 20 20 19 19 19 20 21 22 22 23 23 23 24 25 27 28 27 27 27 28 28 28 28 30 32 32 31 31 32 32 32 33 34
18 18 18 19 19 20 20 20 20 19 19 21 21 19 18 19 20 21 21 22 22 22 23 25 26 26 26 27 26 27 27 29 29 28 29 32 31 30 30 30 31 32 33 34
19 19 19 19 20 20 20 20 20 20 20 20 22 21 19 19 20 21 21 21 21 21 22 23 24 25 26 26 26 27 28 28 27 28 29 30 30 30 30 31 31 32 32 34
21 20 20 20 20 21 20 21 21 21 22 22 22 23 19 20 21 21 21 22 21 21 21 22 22 24 26 26 27 27 28 29 28 29 30 30 29 30 31 32 33 33 33 34
23 22 22 21 21 22 22 22 23 23 23 23 22 23 22 21 22 22 22 22 22 22 22 21 22 24 26 27 28 28 28 29 28 29 30 30 31 31 32 33 34 35 35 35
24 24 23 23 23 23 23 23 24 25 24 24 22 24 23 21 22 23 23 23 23 24 23 23 22 23 25 27 28 28 28 29 30 30 30 31 31 32 33 34 35 35 35 35
27 26 25 25 24 25 24 24 25 26 26 25 24 24 22 22 23 23 24 24 24 24 24 24 24 25 25 27 29 30 31 31 32 33 31 31 32 33 34 35 35 36 37 37
30 29 28 27 26 26 26 26 25 27 27 26 26 25 24 23 23 24 25 26 26 25 25 26 27 27 27 27 29 29 31 32 33 33 33 32 34 35 35 36 37 38 38 38
33 33 31 30 29 28 28 27 27 27 28 28 27 25 24 24 24 24 25 26 27 27 27 27 28 29 29 30 30 29 30 32 33 33 33 35 35 35 35 36 37 38 39 39
34 35 33 32 31 31 30 28 29 30 30 30 29 26 25 25 25 26 27 28 29 29 29 29 30 30 32 32 32 32 32 32 34 34 34 35 35 36 35 36 37 39 39 40
36 37 36 34 33 34 33 31 31 31 31 31 30 28 27 28 28 28 29 30 31 31 31 32 32 32 33 33 33 33 34 34 34 35 35 35 36 36 37 38 38 39 40 41
38 38 37 36 35 35 35 34 33 33 33 33 32 29 30 30 31 30 31 31 32 33 33 33 34 34 34 34 34 34 35 36 36 36 37 37 37 38 38 39 39 40 41 42
40 40 39 38 36 35 35 34 34 35 36 35 34 31 31 33 33 33 33 34 34 35 35 35 35 36 36 35 35 36 36 37 37 38 38 39 39 39 40 40 42 42 43 43
41 42 41 40 39 38 37 36 36 37 37 38 35 34 32 34 35 35 35 35 36 37 37 37 37 37 37 37 37 37 38 39 39 40 40 41 41 42 42 42 43 43 45 46
42 43 43 42 41 42 41 39 38 38 38 39 38 36 35 37 37 38 38 38 38 38 38 38 39 39 39 39 40 40 41 41 42 42 43 43 43 44 45 45 45 45 45 46
42 42 44 44 42 43 43 41 41 41 41 41 41 39 39 39 40 40 40 40 40 40 40 40 40 41 41 41 42 42 42 43 44 45 45 46 46 46 46 47 47 47 47 48
41 41 42 44 44 45 43 42 42 43 43 44 44 43 42 42 42 42 42 42 41 42 42 41 41 42 42 43 43 43 44 44 45 46 47 47 48 48 49 49 50 50 50 49
41 41 42 43 44 45 43 42 42 43 43 44 45 45 44 44 44 43 43 43 42 42 43 43 43 43 44 44 45 45 46 46 46 47 47 48 49 49 50 50 51 51 51 51
40 40 41 42 43 44 43 43 43 44 44 44 45 45 45 44 44 43 43 43 43 44 44 45 45 45 45 46 47 47 48 48 48 48 48 49 49 50 50 51 51 51 50 50
39 40 41 41 43 43 42 42 42 43 43 43 43 43 44 44 44 44 44 44 44 45 45 46 46 47 47 48 48 49 49 49 49 49 50 50 50 51 51 51 51 51 51 51
39 40 41 42 43 42 43 44 44 44 43 43 43 43 43 43 43 43 43 43 44 45 45 46 46 47 47 48 48 49 49 49 49 49 50 50 50 51 51 51 51 51 52 52
41 41 41 42 42 43 43 44 45 45 45 44 43 43 43 42 41 41 42 42 43 44 45 45 46 47 47 48 48 48 48 49 49 49 49 49 49 50 50 50 50 51 52 53
40 41 42 43 42 42 43 43 44 44 45 44 43 43 43 42 42 42 42 43 44 44 45 46 46 46 46 47 48 48 48 48 48 48 48 49 49 50 50 50 51 51 51 52
39 40 41 41 42 42 42 43 44 44 44 44 44 43 43 43 43 43 44 44 45 45 45 45 45 46 46 46 46 47 47 47 48 48 48 49 49 50 50 50 51 51 51 51
37 38 39 39 40 41 41 42 43 44 44 43 43 42 42 42 43 43 44 44 44 44 44 44 45 45 45 45 45 45 46 47 47 48 48 48 48 49 50 50 50 50 51 51

GEFSCGP_500_meanwind_198.txt.gz
Wind_Speed
24 24 24 24 24 25 25 24 24 24 23 24 23 22 22 24 23 22 21 22 22 23 24 26 26 27 27 28 29 30 30 32 33 33 33 35 35 36 37 38 38 37 35 33
25 23 23 24 24 24 24 24 24 24 23 23 23 23 22 24 23 23 22 22 22 22 23 24 25 25 26 28 30 30 31 32 33 33 34 35 36 36 37 38 39 38 37 36
25 24 24 24 24 24 24 24 23 23 23 23 23 23 22 25 24 23 23 22 22 22 23 23 23 25 26 27 28 29 31 33 33 32 32 33 35 36 38 38 39 39 39 38
25 25 25 25 24 24 24 24 23 23 24 23 23 24 21 23 23 23 22 22 22 22 23 24 22 22 24 25 27 29 29 31 31 32 32 32 34 36 36 37 38 38 39 40
26 26 26 26 25 25 25 24 24 24 25 24 23 24 22 22 22 22 22 21 21 22 23 24 24 23 22 24 25 27 29 29 30 31 33 32 33 34 35 36 39 39 39 39
28 27 27 26 26 26 26 25 26 26 26 26 23 25 23 22 23 22 22 22 21 22 23 24 25 24 23 23 24 26 27 29 30 31 33 34 34 34 34 34 37 38 37 37
29 28 28 28 28 28 27 26 27 28 28 27 25 25 24 24 24 24 23 23 23 23 23 24 25 25 24 24 25 26 27 28 30 32 33 34 35 34 34 34 35 36 36 38
32 31 30 29 29 29 29 29 28 29 29 28 26 26 25 24 25 25 25 24 24 24 24 24 26 26 26 25 25 26 26 27 29 31 33 34 35 35 35 35 35 35 36 38
34 34 32 32 31 32 31 31 29 30 30 30 28 25 25 25 25 26 25 25 25 24 24 25 26 27 27 27 27 27 27 27 28 29 32 33 35 36 37 36 35 35 35 36
36 36 35 34 34 34 33 32 31 32 32 31 29 26 26 25 26 26 26 26 26 25 25 26 27 28 28 29 29 29 29 28 27 28 31 33 35 35 35 37 36 35 36 37
37 38 38 37 36 35 35 34 34 34 34 33 31 28 27 27 27 27 27 26 26 27 27 27 28 29 29 31 31 31 32 32 31 31 32 32 33 34 35 36 36 36 36 37
38 39 40 39 38 38 37 36 36 36 35 34 33 31 30 30 29 29 28 27 28 28 28 28 29 29 30 31 32 33 33 33 34 34 34 34 34 35 36 36 37 37 37 38
39 40 40 40 40 39 39 38 37 37 37 36 34 32 31 31 31 31 30 30 30 30 31 30 31 32 31 32 33 34 34 35 35 35 35 36 36 37 38 39 39 40 40 39
41 42 42 41 40 40 39 38 38 38 38 37 35 33 32 33 32 32 32 32 32 32 33 33 33 34 35 34 33 34 34 35 36 36 36 36 38 38 38 40 39 40 41 41
40 41 42 42 42 41 41 40 39 39 38 38 35 35 33 33 33 33 33 33 33 34 34 35 35 35 36 35 35 35 35 35 35 36 36 36 37 38 39 40 40 41 41 42
40 40 40 41 41 42 42 41 41 40 40 40 38 35 34 34 35 34 34 35 35 35 36 36 36 36 36 37 36 36 37 36 36 37 37 37 37 38 38 39 40 41 42 42
39 39 39 40 40 42 43 41 40 40 40 41 41 38 37 37 37 36 36 36 37 37 37 37 37 37 37 37 38 37 38 37 38 38 39 39 39 39 39 40 41 42 43 44
38 38 39 39 39 43 42 40 39 39 40 40 40 39 39 39 38 38 38 38 39 39 39 39 39 39 39 39 39 39 39 39 39 39 40 40 41 41 41 42 42 43 45 45
37 37 37 39 39 41 40 38 38 39 39 38 39 39 40 40 39 39 39 39 39 40 40 40 40 40 40 40 40 40 40 40 41 41 41 41 42 42 43 43 43 44 45 46
37 36 36 37 38 39 38 37 37 38 38 36 37 38 38 39 39 39 39 39 39 40 40 41 40 40 40 40 41 41 42 41 41 42 42 43 43 44 44 44 44 45 46 47
37 38 37 36 37 37 36 36 36 37 36 36 36 36 36 37 38 38 39 40 40 40 40 40 40 41 41 41 41 42 42 43 43 43 43 44 44 45 45 46 46 47 47 48
35 37 37 36 37 37 35 36 35 35 35 36 36 35 36 36 36 37 38 39 39 39 39 40 41 41 42 42 43 43 43 44 45 45 45 45 46 46 47 48 48 48 49 49
34 35 36 36 37 36 35 35 35 36 35 35 36 36 35 35 35 36 36 37 37 38 38 39 40 40 41 42 43 43 43 44 44 45 46 46 47 48 48 49 49 49 49 49
33 33 34 34 34 34 35 35 35 36 36 36 36 36 36 36 36 36 36 36 36 37 37 38 39 39 40 40 41 42 43 43 43 45 45 47 47 48 48 49 49 49 49 49
32 32 33 33 32 33 33 34 34 34 35 37 37 38 38 38 37 37 36 37 37 37 38 38 38 39 39 40 40 41 41 42 43 44 45 46 46 47 48 48 48 48 48 49
30 31 32 32 32 32 32 32 33 33 34 35 36 36 37 37 37 37 37 38 38 38 39 39 39 39 39 40 40 41 41 42 42 43 44 45 46 47 47 46 47 47 47 47

GEFSCGP_500_meanwind_204.txt.gz
Wind_Speed
31 32 31 30 31 31 31 31 31 30 31 32 31 30 29 28 29 29 28 27 28 28 29 29 28 29 30 32 32 30 31 33 34 35 34 35 35 35 35 35 35 35 36 37
32 32 30 31 31 31 31 32 31 31 32 32 32 32 30 29 29 29 29 28 28 28 29 30 29 29 29 31 33 33 32 33 35 35 34 34 35 36 36 36 36 37 37 37
33 31 30 31 31 31 31 32 32 32 33 33 33 32 30 29 30 30 29 28 27 28 29 30 30 30 30 30 32 34 32 34 34 34 36 36 36 38 38 38 37 37 38 38
34 32 32 31 31 31 31 31 32 33 33 33 33 34 29 29 30 30 29 28 27 28 29 29 30 30 31 30 30 32 33 34 34 34 35 37 37 37 37 38 38 38 40 40
34 33 33 33 32 32 32 31 32 33 33 33 33 34 30 29 30 29 30 29 28 28 29 28 29 29 30 31 30 31 32 32 35 36 35 37 38 38 37 38 38 38 39 40
36 36 35 34 33 33 32 32 33 33 34 35 32 34 33 29 30 30 30 30 29 28 28 28 28 29 30 30 31 31 32 32 34 35 36 36 37 38 38 38 38 38 38 39
38 38 37 36 36 35 34 34 34 35 36 36 33 34 34 31 30 30 30 30 30 29 29 29 29 29 29 30 30 32 32 31 32 34 36 36 37 38 38 39 39 38 38 39
39 39 38 38 37 37 36 36 36 37 38 37 35 36 34 32 31 31 31 30 30 30 30 30 30 30 29 29 30 31 31 31 32 33 34 35 36 37 38 39 40 39 40 40
39 39 38 38 37 37 37 37 37 38 39 39 39 36 34 33 32 32 32 32 32 31 31 31 30 30 30 30 30 32 32 32 33 33 34 35 35 36 37 39 39 39 40 41
39 39 38 38 37 38 38 38 37 38 39 41 40 37 35 34 33 34 34 34 33 32 31 31 31 30 31 31 32 33 33 33 33 34 34 35 36 36 37 37 39 40 42 42
39 40 40 39 38 38 37 38 39 40 40 40 41 38 35 35 35 35 34 33 33 33 32 32 31 32 32 32 33 34 34 34 34 34 35 36 37 38 38 38 39 40 41 41
40 42 42 41 39 38 38 38 39 40 40 41 41 38 35 34 35 35 34 34 34 33 33 33 33 33 34 34 35 34 34 34 34 34 34 36 37 38 38 39 40 40 41 42
40 42 43 43 42 41 41 39 39 40 42 42 41 39 36 35 35 35 35 35 35 35 35 34 34 34 35 36 36 36 35 35 35 35 36 37 38 39 39 39 39 39 41 42
41 42 42 42 42 43 43 42 41 42 43 43 42 40 38 37 36 35 35 36 36 36 36 36 35 35 36 36 36 36 36 36 37 37 36 37 37 39 40 40 39 39 40 41
42 43 42 42 42 42 43 43 43 43 44 44 42 41 39 39 38 37 37 37 38 36 36 36 37 37 37 37 37 37 37 37 37 37 37 38 38 39 39 39 38 38 38 39
41 42 42 42 41 42 43 44 44 44 44 44 44 43 40 39 39 38 38 39 39 39 38 38 38 38 38 38 37 37 37 37 37 37 38 38 38 39 39 38 38 38 38 38
42 41 41 40 40 42 44 41 42 43 43 43 44 43 42 40 40 40 40 40 40 39 38 38 38 38 38 37 37 37 37 38 38 38 38 38 38 39 39 38 38 38 38 38
40 41 41 40 39 41 39 39 40 41 41 41 42 42 42 42 41 41 41 41 41 41 40 39 40 39 39 39 38 38 39 38 38 38 38 38 38 38 38 38 38 39 39 39
39 39 41 41 40 39 36 36 37 39 40 40 41 40 41 41 41 41 41 41 42 42 41 41 41 40 39 39 39 39 39 38 39 38 38 38 38 38 39 38 39 39 40 40
36 37 39 40 41 40 36 34 34 35 37 36 38 38 39 40 41 39 40 41 41 41 41 40 40 40 40 40 40 40 40 40 40 39 39 39 40 40 40 40 40 40 41 41
34 35 36 37 39 39 37 35 33 35 34 34 35 36 37 37 39 38 38 39 40 40 40 40 39 39 39 40 40 40 40 41 41 41 40 40 40 41 41 41 42 41 41 42
34 35 36 36 38 36 34 34 34 34 33 33 34 35 35 36 36 37 37 38 39 40 40 40 40 39 40 40 40 40 40 41 41 41 41 41 41 41 42 42 43 44 44 44
32 33 35 36 36 36 34 34 34 34 34 33 33 33 34 35 36 37 37 37 37 38 39 40 41 41 41 41 40 40 40 41 41 41 41 41 41 42 42 42 43 43 44 44
32 32 33 34 34 34 35 34 34 34 33 33 33 33 33 34 35 36 37 37 37 38 38 38 39 40 40 41 40 40 40 40 40 41 41 41 41 41 41 42 43 43 43 43
31 31 31 32 32 33 34 34 34 33 32 32 32 33 33 34 34 35 36 37 37 38 37 37 37 37 38 38 39 39 39 39 39 40 40 40 40 41 41 42 43 43 44 44
30 31 31 30 30 32 32 33 33 32 31 31 32 32 32 33 33 34 35 36 37 38 38 38 38 37 37 38 38 38 38 39 39 39 40 40 41 41 42 43 44 45 45 46

GEFSCGP_500_meanwind_210.txt.gz
Wind_Speed
34 35 34 33 33 34 34 34 34 33 33 34 33 32 30 30 30 29 28 29 29 29 29 29 29 29 29 29 29 29 30 31 31 32 33 35 36 36 36 37 36 35 36 36
35 35 33 34 34 34 35 35 34 34 34 35 34 33 31 31 31 30 29 29 30 30 30 30 30 30 29 29 30 30 30 31 32 33 33 34 36 37 37 38 38 37 36 37
35 34 34 35 35 35 35 35 35 35 34 35 36 35 32 31 30 30 30 30 30 30 31 31 31 31 31 30 31 30 30 31 32 34 35 35 36 38 38 38 39 38 38 39
36 35 35 35 35 36 37 35 36 36 36 36 37 37 33 31 30 30 30 31 30 31 32 32 31 31 31 31 31 32 32 31 32 34 36 36 37 38 38 38 39 39 39 40
38 37 37 36 35 36 36 36 36 37 37 38 37 39 36 32 31 30 31 31 31 32 32 32 32 32 31 31 32 33 34 33 33 33 35 37 38 38 39 39 39 40 41 41
39 39 38 38 37 36 36 37 37 38 39 40 37 38 38 34 31 31 32 32 32 32 32 32 33 33 32 32 32 33 34 33 33 34 35 37 38 38 39 40 40 40 41 41
40 40 40 39 38 38 38 38 38 39 41 41 39 39 39 35 33 32 32 32 32 33 33 33 34 34 33 33 33 33 33 34 34 34 35 36 38 39 40 40 40 41 42 41
40 40 39 40 39 39 39 40 40 40 41 41 40 40 38 36 34 33 32 31 32 33 33 34 34 35 34 34 34 35 35 34 34 35 35 36 37 38 39 41 41 41 42 42
40 41 40 40 39 39 39 40 39 40 41 42 42 40 38 36 35 34 33 32 32 32 33 34 35 35 35 35 35 35 35 35 35 35 36 37 37 39 39 40 41 41 41 42
40 41 41 40 40 40 40 39 39 40 41 42 42 40 38 35 35 35 34 34 33 33 33 33 34 34 35 35 35 35 35 35 37 37 37 37 38 39 40 41 41 41 42 42
39 41 41 40 40 39 39 39 39 40 41 42 43 41 37 35 35 35 35 34 34 33 32 33 33 34 34 35 35 35 35 36 38 38 38 38 38 40 40 40 41 41 41 42
38 41 41 41 40 39 40 39 40 40 41 42 43 41 37 36 35 35 35 35 34 34 33 33 33 34 35 35 35 36 36 37 38 39 38 38 38 39 39 40 41 42 42 42
38 39 41 40 40 39 40 40 40 41 42 42 42 40 36 36 36 36 35 35 35 35 35 34 34 35 35 35 35 36 36 37 37 38 38 38 37 38 40 41 42 42 43 42
39 39 39 39 39 39 40 40 40 42 43 43 41 38 36 36 36 37 37 36 35 35 36 36 36 37 36 36 36 36 36 36 36 37 38 38 37 37 38 39 40 41 41 41
38 39 38 38 39 40 41 40 41 43 43 43 40 39 37 37 37 38 38 38 37 37 37 37 37 37 37 36 36 36 36 36 37 38 38 38 37 37 37 38 40 40 40 39
38 38 38 38 38 39 41 41 41 42 42 42 41 39 36 36 37 37 37 38 38 38 38 38 38 38 38 38 37 37 37 37 37 38 38 39 39 39 38 38 38 38 38 38
37 37 38 38 38 39 39 37 39 40 40 40 40 38 38 38 39 38 38 38 38 38 39 39 39 39 39 39 38 37 38 38 38 38 38 38 38 38 38 37 37 37 37 38
37 37 37 37 38 40 37 35 36 37 38 39 40 39 39 40 40 40 39 38 38 38 39 39 39 39 39 39 39 39 38 38 38 39 39 39 39 38 37 38 37 37 37 38
35 36 36 37 39 39 36 35 34 35 36 36 37 39 39 40 40 39 39 39 39 39 39 38 38 39 39 39 40 40 40 40 40 39 40 39 39 39 38 38 37 37 37 37
33 32 33 36 37 38 35 33 34 34 34 33 34 36 38 39 39 39 39 39 39 39 38 37 37 38 38 38 39 40 40 40 41 41 41 40 40 39 39 39 38 38 38 38
30 31 31 32 35 37 35 33 33 34 33 32 33 34 35 36 36 37 39 39 39 38 37 37 37 37 38 38 38 39 39 39 40 40 41 41 41 40 40 40 39 39 40 40
28 30 31 30 32 32 31 31 32 32 32 33 33 32 32 33 33 34 36 37 37 37 37 38 38 38 38 38 38 38 38 39 39 39 40 40 40 40 40 41 40 40 41 41
26 28 28 29 29 28 28 29 29 29 30 30 31 31 31 31 32 32 33 34 35 35 36 37 38 39 39 38 38 38 38 38 39 40 40 40 40 41 41 41 41 41 41 42
24 24 26 27 28 28 28 28 27 26 27 29 29 30 30 31 31 31 31 32 33 33 34 34 36 37 37 37 37 37 38 38 39 39 40 40 40 40 40 41 41 42 42 43
22 23 24 25 25 26 27 28 28 28 27 28 29 29 29 29 30 30 31 32 32 33 33 34 34 35 36 37 37 38 38 38 39 39 39 39 40 40 40 41 42 43 43 44
20 21 23 23 24 25 25 26 28 28 28 28 29 30 31 30 30 31 31 31 31 32 33 33 34 34 35 35 35 36 36 37 37 38 38 38 38 39 41 41 42 42 42 42

GEFSCGP_500_meanwind_216.txt.gz
Wind_Speed
39 40 39 38 39 39 39 39 38 37 37 38 38 38 37 37 37 36 35 35 34 33 32 32 32 32 31 31 31 30 30 31 31 31 31 31 32 33 33 34 35 36 37 37
41 41 39 40 40 40 39 39 38 38 38 39 39 39 38 38 37 37 37 36 35 34 34 34 33 33 32 32 31 31 30 31 32 32 32 31 31 32 33 34 34 36 37 38
42 41 41 41 42 41 41 40 39 39 39 40 41 40 39 38 38 38 37 37 37 36 35 34 34 34 33 32 32 32 31 32 32 33 32 32 32 33 34 34 35 36 37 38
43 42 42 42 42 42 42 41 41 41 41 41 42 43 39 39 38 38 38 38 37 37 36 35 35 34 34 33 33 33 33 33 33 33 34 33 33 33 35 35 36 37 37 38
44 44 44 44 43 43 43 42 42 42 43 43 42 44 41 39 38 38 38 38 37 37 37 36 35 35 35 34 34 34 34 34 34 34 34 34 34 34 35 37 38 37 38 38
44 44 45 45 44 44 43 43 43 44 44 46 42 44 43 40 38 37 37 37 37 37 37 37 36 36 36 36 35 35 34 35 35 35 35 35 34 35 36 37 39 39 38 39
44 45 46 45 45 45 45 44 44 45 46 46 43 45 44 40 39 38 37 37 38 38 38 37 38 38 38 37 36 36 36 36 36 36 36 35 35 36 37 38 38 39 39 39
43 44 45 45 46 46 45 45 46 47 48 47 46 45 42 40 40 39 38 38 38 39 39 38 39 39 39 38 38 38 37 37 36 36 36 36 36 36 37 38 39 39 39 40
43 44 45 46 46 46 46 46 46 47 48 49 48 46 42 40 40 39 38 38 39 39 39 39 40 40 40 40 39 39 39 38 38 37 37 37 38 38 38 39 39 39 40 41
41 43 44 45 46 46 46 45 44 46 48 49 49 47 43 40 40 40 39 38 39 40 40 40 41 41 41 41 41 41 41 40 39 39 39 39 38 38 39 40 40 40 41 42
39 41 42 43 43 43 44 45 46 47 48 49 50 48 45 42 41 40 39 39 39 40 41 41 41 42 42 42 41 41 41 41 41 40 40 40 39 39 39 40 41 41 42 42
37 39 40 40 41 42 43 44 45 47 48 49 50 49 45 44 42 41 40 40 40 40 41 42 42 42 42 42 42 42 42 41 41 40 40 40 40 40 40 40 42 42 43 43
38 39 40 40 41 41 42 42 44 46 47 48 49 47 44 43 42 41 41 40 39 40 41 42 42 42 42 42 42 42 42 42 41 41 40 40 41 41 41 41 41 43 44 45
39 40 41 40 40 40 41 41 42 44 46 46 46 45 43 42 42 41 41 41 41 40 41 42 42 42 42 42 42 42 42 41 41 41 41 41 42 41 42 42 43 44 45 46
39 40 39 39 39 41 41 41 42 44 45 47 44 43 41 41 41 41 41 41 41 41 41 42 43 42 42 42 42 42 42 42 42 42 42 42 43 43 43 42 43 44 46 46
37 38 38 37 37 40 42 41 41 43 45 46 46 44 41 41 42 42 41 41 42 41 41 42 42 42 42 42 42 43 43 43 43 43 43 43 44 44 44 43 42 43 44 44
35 36 37 37 37 39 40 39 40 40 41 43 44 43 43 42 42 42 42 42 42 42 41 42 42 42 41 42 42 42 44 44 44 45 45 44 44 44 43 43 43 44 45 45
34 34 35 36 37 39 37 37 39 39 39 41 41 41 43 43 42 42 42 42 42 42 42 41 42 43 43 43 43 43 43 44 45 45 46 45 45 45 44 43 43 43 44 44
33 33 34 35 36 36 34 34 36 38 38 38 39 40 42 42 42 41 41 41 42 42 43 42 42 43 43 43 42 42 42 43 43 44 46 46 46 46 46 45 45 45 44 45
31 32 33 34 34 34 32 32 33 36 37 36 37 37 39 41 42 40 40 40 40 41 42 42 42 43 42 42 42 42 42 43 43 43 44 45 46 47 47 47 46 45 44 45
28 29 30 31 32 32 31 30 30 32 33 33 35 36 37 39 40 39 39 38 39 39 40 41 41 41 42 42 41 42 42 42 43 44 44 44 45 46 47 47 47 46 46 45
25 26 27 27 29 29 28 28 29 29 30 31 32 33 34 36 37 37 38 38 38 38 39 40 40 41 41 41 41 40 40 41 42 43 44 43 43 44 45 46 46 46 46 45
24 25 25 26 27 26 26 27 28 28 29 29 30 31 33 33 34 36 37 37 38 38 39 39 39 40 40 40 41 41 40 40 41 42 43 42 43 43 44 44 44 45 44 43
22 23 24 24 25 25 26 26 26 28 29 29 29 30 31 32 33 34 36 36 37 36 37 38 38 38 39 40 40 40 40 40 40 40 41 41 42 42 42 42 42 43 43 44
21 22 22 23 23 24 24 24 25 26 27 28 28 29 30 31 32 32 34 35 35 35 35 35 35 35 36 37 39 39 39 39 40 40 41 41 41 40 40 39 40 41 42 43
20 21 22 23 23 24 24 25 25 25 25 26 26 27 28 29 29 30 30 31 31 32 33 33 34 33 34 35 35 36 37 37 38 38 39 39 39 39 39 39 39 40 41 43

GEFSCGP_500_meanwind_222.txt.gz
Wind_Speed
40 42 42 41 41 42 42 41 40 40 40 40 40 40 39 38 37 37 37 37 38 37 36 36 35 35 34 34 33 32 32 32 32 32 32 32 31 32 32 33 35 35 35 36
41 42 41 41 42 43 43 43 41 41 41 40 40 40 40 40 39 38 37 38 39 38 38 38 37 37 36 35 35 34 33 32 32 32 33 34 33 33 33 34 36 36 36 37
41 41 41 42 43 44 44 43 42 42 42 41 41 41 40 40 39 39 38 38 39 40 40 39 38 38 37 37 36 35 34 34 33 33 34 34 34 34 34 34 34 35 37 38
42 41 41 42 43 44 45 44 43 43 43 43 42 43 40 39 39 39 39 39 39 40 40 40 40 38 38 37 36 35 35 34 34 34 34 35 34 34 34 35 35 35 36 38
40 41 41 43 42 43 44 44 45 45 45 46 44 45 42 40 40 40 39 39 39 40 40 40 40 40 39 38 37 36 35 35 35 35 35 35 34 34 35 35 35 36 36 38
40 40 41 42 42 43 44 44 44 45 45 47 45 45 45 42 40 39 40 40 39 39 40 40 40 40 40 39 38 38 37 36 35 35 36 35 35 35 35 36 36 36 36 37
39 40 41 42 42 43 44 44 44 45 46 48 46 46 45 42 40 40 40 40 40 40 40 40 40 40 40 40 40 39 38 38 37 37 37 36 35 36 36 37 37 37 37 37
39 39 41 41 42 42 43 44 44 45 46 47 47 47 44 43 41 40 40 40 41 40 41 41 41 41 40 40 41 40 40 39 38 38 38 37 37 37 37 37 38 39 38 39
37 39 40 41 42 43 43 45 44 45 45 45 47 47 45 43 41 40 40 41 41 41 41 41 42 42 42 42 41 41 40 40 40 39 39 39 38 38 38 38 38 39 40 39
36 38 39 40 41 42 43 43 43 44 46 46 47 47 45 43 41 40 40 40 40 40 41 42 42 42 42 42 42 42 42 41 40 40 40 40 40 39 39 39 39 40 41 40
36 37 37 39 40 41 42 44 44 45 47 47 47 48 46 44 42 41 40 41 41 42 42 42 42 42 42 42 42 43 43 43 42 41 41 41 41 41 40 40 41 41 41 41
36 37 36 37 39 40 41 43 43 44 45 47 47 48 47 46 44 42 41 41 41 42 43 43 42 42 42 43 43 43 43 43 43 43 42 42 42 42 41 41 42 43 43 42
35 36 36 36 37 39 40 41 42 44 44 44 45 47 47 46 44 43 42 42 41 42 42 42 42 42 42 43 44 44 44 44 44 44 43 43 43 42 42 42 42 43 43 44
34 35 36 36 36 37 39 40 41 42 43 43 42 41 43 44 44 43 42 43 42 42 42 42 42 42 42 43 43 44 44 45 45 44 44 44 44 43 43 43 43 44 44 44
33 34 35 36 35 36 38 40 41 42 42 43 42 41 40 41 43 42 42 42 42 42 42 41 42 42 42 43 43 44 44 45 45 45 45 45 45 45 44 44 45 45 45 45
32 33 34 34 34 35 36 37 40 40 39 40 41 40 40 39 41 42 42 42 42 42 42 42 42 42 42 43 43 43 43 44 45 45 45 45 45 45 45 45 46 46 46 46
30 31 32 33 34 36 35 34 35 37 38 37 38 38 39 39 39 40 41 41 42 42 42 42 42 42 42 43 43 43 43 44 45 45 45 45 45 45 45 46 46 46 47 47
28 29 29 31 33 35 34 33 33 34 36 36 36 37 38 39 38 39 39 40 40 40 40 41 41 41 42 43 43 43 44 44 45 45 45 45 44 44 45 45 46 46 48 48
25 27 28 29 31 31 32 33 32 33 33 34 34 35 36 37 37 37 37 38 38 39 39 39 40 41 41 42 43 43 43 44 45 45 45 44 45 45 45 45 46 47 48 49
21 23 26 27 28 29 29 29 30 32 33 33 34 34 34 35 37 37 37 37 37 38 38 39 40 40 41 41 42 42 43 44 45 45 44 44 45 45 46 46 46 47 48 48
19 20 22 24 25 27 27 26 26 29 30 31 33 34 35 35 36 36 37 38 37 36 37 38 39 40 41 41 41 42 42 43 43 43 44 44 45 45 46 46 46 47 48 48
17 18 20 22 23 24 24 24 25 26 28 30 31 32 33 34 34 34 35 36 36 36 36 36 37 39 40 41 41 41 42 43 42 42 43 44 44 45 46 47 47 46 47 48
17 17 18 20 21 20 21 21 21 23 26 27 29 30 31 32 32 33 34 35 35 35 35 35 36 38 39 41 41 42 42 43 42 41 42 42 43 44 44 44 44 44 45 46
15 16 16 17 16 17 18 19 19 20 22 24 25 27 28 29 30 30 31 32 32 33 34 34 35 36 37 39 40 41 42 43 43 42 42 42 42 42 43 43 43 44 44 44
15 16 16 16 16 17 18 19 20 20 20 22 23 25 26 27 28 29 29 29 30 30 31 31 32 34 36 36 37 38 39 39 40 41 41 41 41 41 42 42 43 43 43 43
15 16 17 16 16 16 15 17 18 19 19 19 21 22 24 25 26 27 27 27 28 28 29 29 30 31 32 33 33 35 36 37 37 38 39 39 40 40 40 40 41 41 42 43

GEFSCGP_500_meanwind_228.txt.gz
Wind_Speed
42 43 43 43 44 43 44 44 44 43 42 43 43 42 41 41 42 41 41 39 39 39 39 39 39 39 38 37 36 35 34 33 32 32 32 32 32 32 31 31 32 32 32 32
44 43 42 42 43 43 44 45 44 44 44 45 44 44 43 43 43 42 42 41 40 39 39 39 40 40 39 39 38 37 36 35 34 33 32 32 33 33 33 32 33 33 33 33
44 42 41 42 42 42 44 45 45 45 45 46 46 46 45 44 44 43 42 41 41 41 41 41 40 40 40 40 39 38 37 36 35 34 33 33 33 33 33 33 34 34 34 34
42 41 41 42 42 42 44 44 45 46 46 45 46 47 44 44 45 44 43 42 41 42 42 42 41 41 41 41 40 39 38 38 37 36 35 34 34 33 34 34 34 34 34 34
39 39 40 41 41 42 43 43 44 45 46 46 45 47 45 44 45 44 43 42 42 42 42 42 42 42 41 41 41 41 40 39 38 38 37 36 35 35 35 35 34 34 34 34
38 38 39 41 41 42 42 42 44 45 45 47 45 46 46 45 44 43 43 43 42 42 42 42 43 43 42 41 41 41 41 41 40 39 38 38 37 36 36 35 36 35 35 35
38 38 39 39 41 42 42 42 42 44 46 48 45 48 49 45 44 44 44 44 43 43 43 43 43 43 42 42 41 41 41 41 41 40 40 39 38 38 37 36 36 36 36 36
37 39 39 39 40 41 42 42 43 43 45 46 45 47 47 45 45 45 44 44 44 44 43 43 44 43 43 43 42 41 41 41 41 41 41 40 40 39 38 38 37 37 37 37
36 38 39 39 40 40 41 42 42 43 44 45 46 46 46 45 45 45 45 44 44 44 44 44 44 44 43 43 43 43 42 42 43 43 42 42 41 40 39 39 39 39 39 39
34 37 38 38 40 41 40 41 41 43 43 42 43 44 45 45 45 45 45 44 45 45 45 45 45 44 44 44 44 44 44 43 44 44 44 43 43 42 41 41 41 40 40 40
33 35 36 38 39 39 39 39 41 43 44 44 42 42 42 43 43 44 44 43 44 45 45 45 45 45 45 44 45 45 45 44 45 45 44 44 43 43 42 42 42 41 41 41
34 35 36 36 38 39 40 40 40 41 43 43 44 42 40 42 43 43 42 42 42 42 43 44 45 45 45 45 46 46 46 46 45 46 45 45 45 44 44 44 43 43 42 42
33 33 34 35 36 39 40 40 40 41 42 43 44 44 41 43 43 43 42 42 42 42 42 42 43 44 45 46 46 46 47 47 47 46 46 46 46 46 46 45 45 45 44 43
33 33 34 35 36 36 39 40 41 41 42 42 42 41 40 42 43 43 43 43 43 43 43 43 43 43 44 45 45 46 46 46 47 47 47 47 46 46 46 46 46 45 45 45
32 33 34 35 35 35 37 39 40 41 42 43 42 40 38 39 41 42 42 43 43 43 43 43 42 42 43 43 44 44 45 45 46 46 47 47 47 47 47 46 46 46 45 45
29 30 31 33 33 34 36 37 39 40 41 42 44 43 41 40 39 40 41 42 43 43 43 43 43 43 43 43 44 44 45 45 45 46 46 46 46 47 47 47 47 47 47 46
25 25 26 27 29 31 33 35 36 38 40 41 41 42 42 43 40 38 39 40 41 42 42 43 44 44 44 44 43 44 44 45 45 46 46 46 47 47 48 49 49 48 47 47
22 23 24 24 26 29 30 32 34 36 37 39 39 38 38 40 41 39 38 38 38 39 40 41 41 42 43 44 44 44 44 44 45 46 46 46 46 47 47 48 48 48 48 48
20 22 23 24 25 27 27 28 30 32 34 35 37 38 37 37 39 39 38 38 38 38 40 40 41 41 41 43 43 44 44 44 45 45 45 46 46 47 47 48 48 49 49 49
18 19 20 21 22 24 25 25 27 29 31 33 35 36 35 36 37 37 37 37 38 38 38 39 40 41 42 42 43 44 44 44 44 44 45 46 46 46 47 47 48 48 49 49
18 18 18 19 21 22 22 23 25 27 28 30 33 34 34 34 34 35 35 36 36 36 36 37 37 38 40 41 43 43 44 45 45 45 46 46 46 46 46 46 47 47 47 48
16 16 17 18 19 19 19 21 23 24 25 27 29 30 31 31 31 32 32 33 34 34 34 35 35 36 37 39 41 42 43 44 44 45 45 45 46 46 46 46 46 47 47 48
15 15 16 16 18 18 19 20 21 21 23 24 26 27 29 30 30 30 30 30 31 32 32 32 33 34 34 35 37 38 40 41 43 44 44 44 45 45 45 45 45 46 46 47
15 15 16 16 17 17 17 18 19 20 21 22 24 25 27 29 29 29 30 30 30 30 31 30 30 31 32 33 34 35 37 38 40 42 42 42 42 43 43 44 44 44 44 45
16 17 17 16 16 17 18 18 18 18 19 20 21 22 24 26 28 29 30 30 29 30 31 31 30 30 31 31 33 33 34 36 37 38 39 40 41 41 42 42 42 41 41 42
15 16 17 16 16 17 17 18 18 17 18 18 19 21 22 23 25 27 28 29 29 29 30 31 30 31 31 31 32 33 33 34 35 35 36 37 38 39 39 39 39 39 39 39

GEFSCGP_500_meanwind_234.txt.gz
Wind_Speed
42 42 42 42 42 43 44 44 43 43 42 43 44 43 42 42 43 43 42 41 41 40 39 39 39 39 39 38 37 37 36 36 35 34 33 33 32 32 31 31 31 31 30 30
41 41 41 42 43 44 43 44 43 43 43 43 43 43 43 43 43 42 42 42 42 41 41 41 40 40 40 39 39 38 38 37 36 35 35 34 33 33 32 31 31 30 30 30
39 39 40 42 43 44 44 43 43 43 43 44 44 45 44 44 44 43 42 42 42 42 41 41 41 41 41 40 40 40 39 38 38 37 36 35 34 34 33 32 32 32 31 31
37 36 39 42 43 43 44 44 44 45 45 45 45 46 45 44 44 44 43 42 42 42 42 42 41 42 41 41 41 40 40 40 39 38 37 37 36 35 34 34 34 33 33 32
36 36 38 40 41 43 43 44 45 45 46 47 47 48 45 45 45 43 42 42 42 43 43 43 42 42 42 42 42 41 41 40 40 39 39 38 37 37 36 36 35 35 34 34
35 36 36 38 39 41 43 43 45 47 47 49 47 48 47 45 44 43 43 42 42 43 43 43 43 43 44 44 43 43 42 41 41 40 40 39 39 38 38 37 37 36 36 35
33 35 35 35 37 38 41 42 43 45 47 49 48 49 49 46 44 44 44 44 43 43 44 44 43 44 44 44 44 44 43 43 42 42 41 41 40 40 40 39 39 38 37 37
31 33 33 34 35 37 38 40 42 43 44 46 47 49 49 46 45 44 44 45 44 44 44 45 44 44 44 45 45 45 45 44 44 43 42 42 42 42 42 41 41 40 39 39
30 31 32 32 33 35 36 39 39 41 41 42 45 47 48 46 46 45 45 45 45 45 45 45 45 45 45 45 45 45 45 45 45 44 44 43 43 43 43 43 42 42 40 40
30 31 30 30 33 34 36 36 37 39 40 41 41 43 46 46 45 45 45 44 44 44 45 44 44 45 46 46 46 46 46 47 46 45 44 43 44 43 43 43 43 42 41 41
28 29 29 30 31 33 34 35 36 38 40 41 40 41 42 43 43 44 45 45 45 45 45 44 44 44 45 47 47 48 47 47 47 46 46 45 45 44 44 44 44 44 43 43
27 28 28 29 29 31 33 33 35 37 39 40 41 41 41 41 41 42 44 45 45 45 45 45 45 45 46 46 47 47 48 47 47 47 47 46 46 45 45 45 45 45 45 45
27 27 27 28 30 30 31 32 35 36 37 38 40 40 38 41 43 43 43 44 45 44 44 45 45 45 46 46 47 47 47 48 48 48 47 47 47 47 47 47 47 47 47 46
26 28 28 28 28 30 31 31 33 35 38 37 37 38 38 38 41 43 43 44 44 44 44 44 45 45 46 47 47 47 47 47 48 48 48 48 48 48 48 48 48 47 47 47
26 26 26 27 27 30 32 32 32 34 36 37 36 35 36 37 39 41 42 44 44 44 44 44 45 45 46 47 47 47 47 47 47 48 48 48 48 49 49 48 48 48 48 48
24 25 25 26 27 29 31 33 33 34 35 37 37 35 34 35 37 38 40 42 43 44 45 44 44 44 45 46 46 46 47 47 47 47 48 48 48 48 48 48 48 48 48 48
21 23 23 24 26 29 31 31 32 32 34 35 36 35 35 35 35 36 37 39 41 42 44 44 44 44 44 44 45 45 46 46 46 46 46 47 48 48 48 48 49 49 49 49
18 20 22 22 22 24 26 28 29 30 31 32 33 34 33 34 35 36 37 38 38 40 41 42 43 43 43 43 43 43 44 45 45 45 45 45 46 47 48 49 49 49 50 50
15 15 17 18 19 20 21 22 24 26 28 30 31 33 34 34 34 35 36 37 37 37 39 40 42 43 43 43 43 43 43 43 43 44 45 45 46 46 47 48 49 50 50 51
14 14 14 15 16 17 18 19 21 24 25 27 28 30 32 33 34 34 35 37 37 36 36 37 39 41 42 42 42 43 43 43 43 43 43 44 44 45 46 47 48 49 50 50
13 14 14 14 15 15 16 17 18 20 22 24 27 28 30 31 32 33 34 34 36 37 36 36 37 37 39 40 41 41 42 42 43 43 43 43 44 44 44 45 46 47 48 49
13 13 14 14 15 15 15 16 18 19 20 22 25 27 29 29 29 29 30 31 32 34 34 34 34 34 35 37 39 39 40 41 42 43 44 44 44 44 44 45 46 47 47 48
13 14 14 15 15 15 15 16 17 18 19 21 23 25 26 27 28 29 29 29 30 31 32 33 34 34 34 35 36 36 37 38 38 40 41 41 42 43 43 44 45 46 46 46
13 14 14 15 15 15 15 15 16 17 18 19 21 23 25 25 26 27 28 29 30 30 31 31 32 32 33 33 33 34 34 35 35 36 37 38 39 40 41 42 43 43 44 44
12 13 13 14 14 14 14 15 15 15 16 16 18 20 22 22 23 24 26 28 29 28 28 28 28 29 30 31 31 32 33 33 34 35 35 36 37 38 40 40 41 41 42 43
11 12 12 11 12 13 13 14 14 13 13 14 16 17 19 21 22 23 24 26 27 27 27 27 27 27 28 28 30 31 31 33 34 34 35 36 36 37 38 39 39 40 39 40